<?xml version='1.0' encoding='UTF-8'?><gpx version="1.1" creator="JPX - https://github.com/jenetics/jpx" xmlns="http://www.topografix.com/GPX/1/1"><trk><trkseg><trkpt lat="45.5498371772285" lon="10.419799065772938"><ele>190.0</ele><time>2026-04-21T14:50:32Z</time></trkpt><trkpt lat="45.54989031709949" lon="10.419856825678542"><ele>190.0</ele><time>2026-04-21T14:50:36Z</time></trkpt><trkpt lat="45.54993732922361" lon="10.41992041808663"><ele>190.0</ele><time>2026-04-21T14:50:38Z</time></trkpt><trkpt lat="45.549981947644525" lon="10.419992318284079"><ele>190.0</ele><time>2026-04-21T14:50:42Z</time></trkpt><trkpt lat="45.55004359046154" lon="10.41994663596785"><ele>190.0</ele><time>2026-04-21T14:50:45Z</time></trkpt><trkpt lat="45.55008870787487" lon="10.419856855827062"><ele>190.0</ele><time>2026-04-21T14:50:47Z</time></trkpt><trkpt lat="45.550143119960396" lon="10.419767018414541"><ele>190.0</ele><time>2026-04-21T14:50:49Z</time></trkpt><trkpt lat="45.550191773016714" lon="10.419704256045845"><ele>189.83333333333334</ele><time>2026-04-21T14:50:51Z</time></trkpt><trkpt lat="45.55022937784315" lon="10.41961933428467"><ele>189.66666666666669</ele><time>2026-04-21T14:50:53Z</time></trkpt><trkpt lat="45.550287547383036" lon="10.419563509156548"><ele>189.5</ele><time>2026-04-21T14:50:55Z</time></trkpt><trkpt lat="45.55032398560243" lon="10.419482370234906"><ele>189.33333333333334</ele><time>2026-04-21T14:50:57Z</time></trkpt><trkpt lat="45.55038138820787" lon="10.4194101111618"><ele>189.16666666666666</ele><time>2026-04-21T14:50:59Z</time></trkpt><trkpt lat="45.55043909075434" lon="10.419340837831571"><ele>189.0</ele><time>2026-04-21T14:51:01Z</time></trkpt><trkpt lat="45.550506535233865" lon="10.41924580168211"><ele>189.0</ele><time>2026-04-21T14:51:03Z</time></trkpt><trkpt lat="45.55056694908096" lon="10.41915556607014"><ele>189.0</ele><time>2026-04-21T14:51:05Z</time></trkpt><trkpt lat="45.550637025600075" lon="10.419065708279444"><ele>189.0</ele><time>2026-04-21T14:51:07Z</time></trkpt><trkpt lat="45.5507105057132" lon="10.418956637324778"><ele>189.0</ele><time>2026-04-21T14:51:09Z</time></trkpt><trkpt lat="45.55076534920336" lon="10.418861800666598"><ele>189.0</ele><time>2026-04-21T14:51:11Z</time></trkpt><trkpt lat="45.55083748344911" lon="10.41877082007593"><ele>189.16666666666666</ele><time>2026-04-21T14:51:13Z</time></trkpt><trkpt lat="45.550881535027834" lon="10.418697702295823"><ele>189.33333333333334</ele><time>2026-04-21T14:51:15Z</time></trkpt><trkpt lat="45.5509409651783" lon="10.418613360183764"><ele>189.5</ele><time>2026-04-21T14:51:17Z</time></trkpt><trkpt lat="45.55100546138619" lon="10.418516348261132"><ele>189.66666666666669</ele><time>2026-04-21T14:51:19Z</time></trkpt><trkpt lat="45.551053946865025" lon="10.41843685539394"><ele>189.83333333333334</ele><time>2026-04-21T14:51:21Z</time></trkpt><trkpt lat="45.55110734983335" lon="10.418369663408557"><ele>190.0</ele><time>2026-04-21T14:51:23Z</time></trkpt><trkpt lat="45.5511565424139" lon="10.41829290385447"><ele>190.0</ele><time>2026-04-21T14:51:25Z</time></trkpt><trkpt lat="45.551204968745985" lon="10.418231928082216"><ele>190.0</ele><time>2026-04-21T14:51:27Z</time></trkpt><trkpt lat="45.55126436757146" lon="10.418133462643219"><ele>190.0</ele><time>2026-04-21T14:51:29Z</time></trkpt><trkpt lat="45.551315855185564" lon="10.418038771688241"><ele>190.0</ele><time>2026-04-21T14:51:31Z</time></trkpt><trkpt lat="45.55136354471754" lon="10.417935089863725"><ele>190.0</ele><time>2026-04-21T14:51:33Z</time></trkpt><trkpt lat="45.551409078698505" lon="10.417851178868897"><ele>190.0</ele><time>2026-04-21T14:51:35Z</time></trkpt><trkpt lat="45.5514540572049" lon="10.417762283047797"><ele>189.83333333333334</ele><time>2026-04-21T14:51:37Z</time></trkpt><trkpt lat="45.55149109580726" lon="10.417661038770394"><ele>189.66666666666669</ele><time>2026-04-21T14:51:39Z</time></trkpt><trkpt lat="45.55153118487339" lon="10.417532285208248"><ele>189.5</ele><time>2026-04-21T14:51:41Z</time></trkpt><trkpt lat="45.551553606608145" lon="10.417421466484281"><ele>189.33333333333334</ele><time>2026-04-21T14:51:43Z</time></trkpt><trkpt lat="45.55157384993128" lon="10.417320447552061"><ele>189.16666666666666</ele><time>2026-04-21T14:51:45Z</time></trkpt><trkpt lat="45.55158809555466" lon="10.41721847773219"><ele>189.0</ele><time>2026-04-21T14:51:47Z</time></trkpt><trkpt lat="45.55160767289222" lon="10.417114841838165"><ele>188.5</ele><time>2026-04-21T14:51:49Z</time></trkpt><trkpt lat="45.55162404899587" lon="10.417002230645492"><ele>188.0</ele><time>2026-04-21T14:51:51Z</time></trkpt><trkpt lat="45.55163746929516" lon="10.416904612347809"><ele>187.5</ele><time>2026-04-21T14:51:53Z</time></trkpt><trkpt lat="45.55165760475851" lon="10.416793990658453"><ele>187.0</ele><time>2026-04-21T14:51:55Z</time></trkpt><trkpt lat="45.55166732368665" lon="10.416695014789163"><ele>186.5</ele><time>2026-04-21T14:51:57Z</time></trkpt><trkpt lat="45.551712029809316" lon="10.416605906691045"><ele>186.0</ele><time>2026-04-21T14:51:59Z</time></trkpt><trkpt lat="45.55169984879544" lon="10.41649066379698"><ele>186.0</ele><time>2026-04-21T14:52:08Z</time></trkpt><trkpt lat="45.55166633286203" lon="10.416388238958863"><ele>186.0</ele><time>2026-04-21T14:52:11Z</time></trkpt><trkpt lat="45.55167686103806" lon="10.416254382882228"><ele>186.0</ele><time>2026-04-21T14:52:14Z</time></trkpt><trkpt lat="45.5516839885496" lon="10.416154615886137"><ele>186.0</ele><time>2026-04-21T14:52:16Z</time></trkpt><trkpt lat="45.55170735160097" lon="10.416053137722631"><ele>186.0</ele><time>2026-04-21T14:52:18Z</time></trkpt><trkpt lat="45.551728648684815" lon="10.415939543902795"><ele>186.0</ele><time>2026-04-21T14:52:20Z</time></trkpt><trkpt lat="45.55175797000949" lon="10.41583108276865"><ele>186.0</ele><time>2026-04-21T14:52:22Z</time></trkpt><trkpt lat="45.55179052466343" lon="10.415718836300913"><ele>186.0</ele><time>2026-04-21T14:52:24Z</time></trkpt><trkpt lat="45.55182024756929" lon="10.415599085063848"><ele>186.0</ele><time>2026-04-21T14:52:26Z</time></trkpt><trkpt lat="45.5518553835546" lon="10.41548470823668"><ele>186.0</ele><time>2026-04-21T14:52:28Z</time></trkpt><trkpt lat="45.55187954151497" lon="10.415372838625206"><ele>186.0</ele><time>2026-04-21T14:52:30Z</time></trkpt><trkpt lat="45.55189631521705" lon="10.415245878131248"><ele>186.0</ele><time>2026-04-21T14:52:32Z</time></trkpt><trkpt lat="45.55191127595658" lon="10.415119266766988"><ele>186.20000000000002</ele><time>2026-04-21T14:52:34Z</time></trkpt><trkpt lat="45.55193155184879" lon="10.414979635821803"><ele>186.4</ele><time>2026-04-21T14:52:36Z</time></trkpt><trkpt lat="45.55194986873881" lon="10.414843505477403"><ele>186.6</ele><time>2026-04-21T14:52:38Z</time></trkpt><trkpt lat="45.55196475676667" lon="10.414694777003271"><ele>186.8</ele><time>2026-04-21T14:52:40Z</time></trkpt><trkpt lat="45.55198522281163" lon="10.414555201700868"><ele>187.0</ele><time>2026-04-21T14:52:42Z</time></trkpt><trkpt lat="45.55200126877458" lon="10.4144193166264"><ele>187.0</ele><time>2026-04-21T14:52:44Z</time></trkpt><trkpt lat="45.55202205815529" lon="10.414283479378126"><ele>187.0</ele><time>2026-04-21T14:52:46Z</time></trkpt><trkpt lat="45.55204585344532" lon="10.414153646801932"><ele>187.0</ele><time>2026-04-21T14:52:48Z</time></trkpt><trkpt lat="45.55206952872897" lon="10.414025080501945"><ele>187.0</ele><time>2026-04-21T14:52:50Z</time></trkpt><trkpt lat="45.55210681824034" lon="10.413895629032103"><ele>187.0</ele><time>2026-04-21T14:52:52Z</time></trkpt><trkpt lat="45.55214479364482" lon="10.413772691627312"><ele>187.16666666666669</ele><time>2026-04-21T14:52:54Z</time></trkpt><trkpt lat="45.5522004024476" lon="10.413668860193717"><ele>187.33333333333334</ele><time>2026-04-21T14:52:56Z</time></trkpt><trkpt lat="45.552254490203005" lon="10.413557824036468"><ele>187.5</ele><time>2026-04-21T14:52:58Z</time></trkpt><trkpt lat="45.55233033029025" lon="10.41348375247009"><ele>187.66666666666666</ele><time>2026-04-21T14:53:00Z</time></trkpt><trkpt lat="45.552390684371574" lon="10.413407811350757"><ele>187.83333333333331</ele><time>2026-04-21T14:53:02Z</time></trkpt><trkpt lat="45.5524477550116" lon="10.413337307643381"><ele>188.0</ele><time>2026-04-21T14:53:04Z</time></trkpt><trkpt lat="45.552498849951505" lon="10.413236992132315"><ele>188.0</ele><time>2026-04-21T14:53:08Z</time></trkpt><trkpt lat="45.552546656906124" lon="10.413175008512301"><ele>188.0</ele><time>2026-04-21T14:53:11Z</time></trkpt><trkpt lat="45.552514709371344" lon="10.413021722372406"><ele>188.0</ele><time>2026-04-21T14:53:15Z</time></trkpt><trkpt lat="45.552453672344356" lon="10.412921656257119"><ele>188.0</ele><time>2026-04-21T14:53:18Z</time></trkpt><trkpt lat="45.55240276675721" lon="10.412847213561943"><ele>188.0</ele><time>2026-04-21T14:53:20Z</time></trkpt><trkpt lat="45.55231695776614" lon="10.412729493359784"><ele>188.0</ele><time>2026-04-21T14:53:22Z</time></trkpt><trkpt lat="45.55225164661099" lon="10.412639893856676"><ele>188.0</ele><time>2026-04-21T14:53:24Z</time></trkpt><trkpt lat="45.55218739618769" lon="10.412571024836748"><ele>188.0</ele><time>2026-04-21T14:53:28Z</time></trkpt><trkpt lat="45.55213489366584" lon="10.4124949433641"><ele>188.0</ele><time>2026-04-21T14:53:30Z</time></trkpt><trkpt lat="45.55209623240086" lon="10.412400930563601"><ele>188.0</ele><time>2026-04-21T14:53:32Z</time></trkpt><trkpt lat="45.55203590269823" lon="10.412330653583975"><ele>188.0</ele><time>2026-04-21T14:53:35Z</time></trkpt><trkpt lat="45.55200267265408" lon="10.412231285355185"><ele>187.33333333333331</ele><time>2026-04-21T14:53:38Z</time></trkpt><trkpt lat="45.55193283005657" lon="10.412133910497172"><ele>186.66666666666666</ele><time>2026-04-21T14:53:42Z</time></trkpt><trkpt lat="45.55188635856595" lon="10.412025352451705"><ele>186.0</ele><time>2026-04-21T14:53:45Z</time></trkpt><trkpt lat="45.5519112760431" lon="10.411923406464496"><ele>185.33333333333334</ele><time>2026-04-21T14:53:49Z</time></trkpt><trkpt lat="45.55199324641331" lon="10.41186537696167"><ele>184.66666666666669</ele><time>2026-04-21T14:53:52Z</time></trkpt><trkpt lat="45.552059455556645" lon="10.411804789078952"><ele>184.0</ele><time>2026-04-21T14:53:55Z</time></trkpt><trkpt lat="45.55213535631622" lon="10.411735770973074"><ele>184.0</ele><time>2026-04-21T14:53:58Z</time></trkpt><trkpt lat="45.552173027701805" lon="10.411646143002462"><ele>184.0</ele><time>2026-04-21T14:54:00Z</time></trkpt><trkpt lat="45.552251000787585" lon="10.411630262898488"><ele>184.0</ele><time>2026-04-21T14:54:02Z</time></trkpt><trkpt lat="45.5523199374247" lon="10.41157227703577"><ele>184.0</ele><time>2026-04-21T14:54:04Z</time></trkpt><trkpt lat="45.552386797756974" lon="10.411509838432332"><ele>184.0</ele><time>2026-04-21T14:54:06Z</time></trkpt><trkpt lat="45.552449986833075" lon="10.411442912535692"><ele>184.0</ele><time>2026-04-21T14:54:08Z</time></trkpt><trkpt lat="45.55251216257252" lon="10.411378789958968"><ele>184.0</ele><time>2026-04-21T14:54:10Z</time></trkpt><trkpt lat="45.55257517397614" lon="10.411315464591537"><ele>184.0</ele><time>2026-04-21T14:54:12Z</time></trkpt><trkpt lat="45.552653604766164" lon="10.411240371629502"><ele>184.0</ele><time>2026-04-21T14:54:15Z</time></trkpt><trkpt lat="45.55271997789606" lon="10.411170268413441"><ele>184.0</ele><time>2026-04-21T14:54:17Z</time></trkpt><trkpt lat="45.552796023867494" lon="10.411115292111809"><ele>184.0</ele><time>2026-04-21T14:54:19Z</time></trkpt><trkpt lat="45.55288820845548" lon="10.411024287316458"><ele>184.0</ele><time>2026-04-21T14:54:21Z</time></trkpt><trkpt lat="45.55298101547467" lon="10.41094157577071"><ele>184.0</ele><time>2026-04-21T14:54:23Z</time></trkpt><trkpt lat="45.55306285162403" lon="10.410849033635206"><ele>184.0</ele><time>2026-04-21T14:54:25Z</time></trkpt><trkpt lat="45.553147667292116" lon="10.410806837557832"><ele>184.0</ele><time>2026-04-21T14:54:27Z</time></trkpt><trkpt lat="45.55322673857072" lon="10.41073261351217"><ele>184.0</ele><time>2026-04-21T14:54:29Z</time></trkpt><trkpt lat="45.55330109807408" lon="10.41067697361067"><ele>184.0</ele><time>2026-04-21T14:54:31Z</time></trkpt><trkpt lat="45.553370514919" lon="10.410617701084266"><ele>184.0</ele><time>2026-04-21T14:54:33Z</time></trkpt><trkpt lat="45.55343719926112" lon="10.410565399941841"><ele>184.0</ele><time>2026-04-21T14:54:35Z</time></trkpt><trkpt lat="45.553491346994676" lon="10.410507880629552"><ele>184.0</ele><time>2026-04-21T14:54:37Z</time></trkpt><trkpt lat="45.55357224412043" lon="10.410421677148529"><ele>184.0</ele><time>2026-04-21T14:54:39Z</time></trkpt><trkpt lat="45.55364223451005" lon="10.410361828942206"><ele>184.0</ele><time>2026-04-21T14:54:41Z</time></trkpt><trkpt lat="45.553710910201545" lon="10.410301326731508"><ele>184.2</ele><time>2026-04-21T14:54:43Z</time></trkpt><trkpt lat="45.553797102756434" lon="10.410241147162639"><ele>184.39999999999998</ele><time>2026-04-21T14:54:45Z</time></trkpt><trkpt lat="45.55387587341025" lon="10.410174811773999"><ele>184.6</ele><time>2026-04-21T14:54:47Z</time></trkpt><trkpt lat="45.55395362845576" lon="10.410113106692114"><ele>184.8</ele><time>2026-04-21T14:54:49Z</time></trkpt><trkpt lat="45.554028979591806" lon="10.410048525856409"><ele>185.0</ele><time>2026-04-21T14:54:51Z</time></trkpt><trkpt lat="45.55410975088771" lon="10.409989635676316"><ele>185.0</ele><time>2026-04-21T14:54:53Z</time></trkpt><trkpt lat="45.554196137854746" lon="10.409943430102636"><ele>185.0</ele><time>2026-04-21T14:54:55Z</time></trkpt><trkpt lat="45.55427344365034" lon="10.409894731449254"><ele>185.0</ele><time>2026-04-21T14:54:57Z</time></trkpt><trkpt lat="45.55436197090602" lon="10.409848113743294"><ele>185.0</ele><time>2026-04-21T14:54:59Z</time></trkpt><trkpt lat="45.55445047068576" lon="10.409801860296023"><ele>185.0</ele><time>2026-04-21T14:55:01Z</time></trkpt><trkpt lat="45.55453619012004" lon="10.40974890259398"><ele>185.0</ele><time>2026-04-21T14:55:03Z</time></trkpt><trkpt lat="45.554606877696806" lon="10.40967951126564"><ele>185.0</ele><time>2026-04-21T14:55:05Z</time></trkpt><trkpt lat="45.55468178011805" lon="10.409616215928166"><ele>185.0</ele><time>2026-04-21T14:55:07Z</time></trkpt><trkpt lat="45.554754483193136" lon="10.409552663740488"><ele>185.0</ele><time>2026-04-21T14:55:09Z</time></trkpt><trkpt lat="45.55482570479281" lon="10.409500257756983"><ele>185.0</ele><time>2026-04-21T14:55:11Z</time></trkpt><trkpt lat="45.55489933543371" lon="10.409495310602624"><ele>185.0</ele><time>2026-04-21T14:55:13Z</time></trkpt><trkpt lat="45.55497604766823" lon="10.409559376633307"><ele>185.0</ele><time>2026-04-21T14:55:15Z</time></trkpt><trkpt lat="45.55505974796886" lon="10.409617276417862"><ele>185.0</ele><time>2026-04-21T14:55:17Z</time></trkpt><trkpt lat="45.555147868070684" lon="10.409607912527655"><ele>185.0</ele><time>2026-04-21T14:55:19Z</time></trkpt><trkpt lat="45.55522345412757" lon="10.409541088427389"><ele>185.0</ele><time>2026-04-21T14:55:21Z</time></trkpt><trkpt lat="45.555251833632056" lon="10.409430697284513"><ele>185.0</ele><time>2026-04-21T14:55:23Z</time></trkpt><trkpt lat="45.55531034251806" lon="10.409348776383005"><ele>185.0</ele><time>2026-04-21T14:55:25Z</time></trkpt><trkpt lat="45.55535680319527" lon="10.40923271766249"><ele>185.4</ele><time>2026-04-21T14:55:27Z</time></trkpt><trkpt lat="45.55537119357404" lon="10.409115053747266"><ele>185.8</ele><time>2026-04-21T14:55:29Z</time></trkpt><trkpt lat="45.55540997433049" lon="10.408993464549786"><ele>186.2</ele><time>2026-04-21T14:55:31Z</time></trkpt><trkpt lat="45.555473565532196" lon="10.408883930873532"><ele>186.6</ele><time>2026-04-21T14:55:33Z</time></trkpt><trkpt lat="45.555554626842046" lon="10.408794650753379"><ele>187.0</ele><time>2026-04-21T14:55:35Z</time></trkpt><trkpt lat="45.55563752028721" lon="10.408705633085132"><ele>187.0</ele><time>2026-04-21T14:55:37Z</time></trkpt><trkpt lat="45.55571769219823" lon="10.408613526105848"><ele>187.0</ele><time>2026-04-21T14:55:39Z</time></trkpt><trkpt lat="45.55581315697989" lon="10.408504475012974"><ele>187.0</ele><time>2026-04-21T14:55:41Z</time></trkpt><trkpt lat="45.55590111126746" lon="10.408389448519"><ele>187.0</ele><time>2026-04-21T14:55:43Z</time></trkpt><trkpt lat="45.555994867736636" lon="10.40828385169446"><ele>187.0</ele><time>2026-04-21T14:55:45Z</time></trkpt><trkpt lat="45.55608218259506" lon="10.408168064983204"><ele>187.0</ele><time>2026-04-21T14:55:47Z</time></trkpt><trkpt lat="45.556168512787174" lon="10.40807929359407"><ele>187.0</ele><time>2026-04-21T14:55:49Z</time></trkpt><trkpt lat="45.55625247381002" lon="10.407996319552565"><ele>187.0</ele><time>2026-04-21T14:55:51Z</time></trkpt><trkpt lat="45.556331064407615" lon="10.407900587796185"><ele>187.0</ele><time>2026-04-21T14:55:53Z</time></trkpt><trkpt lat="45.55640790467177" lon="10.40780255429285"><ele>189.16666666666669</ele><time>2026-04-21T14:55:55Z</time></trkpt><trkpt lat="45.556471421343936" lon="10.407703348530143"><ele>191.33333333333334</ele><time>2026-04-21T14:55:57Z</time></trkpt><trkpt lat="45.55652147145547" lon="10.40760072689015"><ele>193.5</ele><time>2026-04-21T14:55:59Z</time></trkpt><trkpt lat="45.55648384544595" lon="10.407510635483352"><ele>195.66666666666669</ele><time>2026-04-21T14:56:01Z</time></trkpt><trkpt lat="45.55641959319783" lon="10.407427039043013"><ele>197.83333333333334</ele><time>2026-04-21T14:56:03Z</time></trkpt><trkpt lat="45.556351737311495" lon="10.407342871861042"><ele>200.0</ele><time>2026-04-21T14:56:05Z</time></trkpt><trkpt lat="45.5562861958952" lon="10.40726486679665"><ele>200.0</ele><time>2026-04-21T14:56:07Z</time></trkpt><trkpt lat="45.55622059590751" lon="10.407205017891274"><ele>200.0</ele><time>2026-04-21T14:56:09Z</time></trkpt><trkpt lat="45.556145616731726" lon="10.407123652745938"><ele>200.0</ele><time>2026-04-21T14:56:11Z</time></trkpt><trkpt lat="45.55606012746915" lon="10.407022925736037"><ele>200.0</ele><time>2026-04-21T14:56:13Z</time></trkpt><trkpt lat="45.5559775851537" lon="10.406904293649092"><ele>200.0</ele><time>2026-04-21T14:56:15Z</time></trkpt><trkpt lat="45.55589654530623" lon="10.406786109517093"><ele>201.4</ele><time>2026-04-21T14:56:17Z</time></trkpt><trkpt lat="45.55582009528959" lon="10.406665960003526"><ele>202.8</ele><time>2026-04-21T14:56:19Z</time></trkpt><trkpt lat="45.5557401822255" lon="10.406565814590692"><ele>204.2</ele><time>2026-04-21T14:56:21Z</time></trkpt><trkpt lat="45.555665817780834" lon="10.406458031267153"><ele>205.6</ele><time>2026-04-21T14:56:23Z</time></trkpt><trkpt lat="45.55556983070216" lon="10.406393731183778"><ele>207.0</ele><time>2026-04-21T14:56:25Z</time></trkpt><trkpt lat="45.555487246247345" lon="10.406296794910835"><ele>207.0</ele><time>2026-04-21T14:56:27Z</time></trkpt><trkpt lat="45.55539921509726" lon="10.406204248451298"><ele>207.0</ele><time>2026-04-21T14:56:29Z</time></trkpt><trkpt lat="45.555319088531384" lon="10.406112823381207"><ele>207.0</ele><time>2026-04-21T14:56:31Z</time></trkpt><trkpt lat="45.55525396728021" lon="10.406045488265681"><ele>207.0</ele><time>2026-04-21T14:56:33Z</time></trkpt><trkpt lat="45.55518340822872" lon="10.405973597608183"><ele>207.0</ele><time>2026-04-21T14:56:35Z</time></trkpt><trkpt lat="45.55509709977698" lon="10.405940381772258"><ele>204.66666666666666</ele><time>2026-04-21T14:56:37Z</time></trkpt><trkpt lat="45.55501199574016" lon="10.405897050410617"><ele>202.33333333333331</ele><time>2026-04-21T14:56:39Z</time></trkpt><trkpt lat="45.55493566992879" lon="10.40585168171551"><ele>200.0</ele><time>2026-04-21T14:56:41Z</time></trkpt><trkpt lat="45.554870355653975" lon="10.405807121594252"><ele>197.66666666666666</ele><time>2026-04-21T14:56:43Z</time></trkpt><trkpt lat="45.554816244837895" lon="10.405750530121368"><ele>195.33333333333331</ele><time>2026-04-21T14:56:45Z</time></trkpt><trkpt lat="45.55479093432988" lon="10.405595793085643"><ele>193.0</ele><time>2026-04-21T14:56:47Z</time></trkpt><trkpt lat="45.55475104040934" lon="10.405455386182869"><ele>193.0</ele><time>2026-04-21T14:56:49Z</time></trkpt><trkpt lat="45.55471287653251" lon="10.405305691825511"><ele>193.0</ele><time>2026-04-21T14:56:51Z</time></trkpt><trkpt lat="45.55467391083156" lon="10.405132452014447"><ele>193.0</ele><time>2026-04-21T14:56:53Z</time></trkpt><trkpt lat="45.554632861112275" lon="10.404967595922333"><ele>193.0</ele><time>2026-04-21T14:56:55Z</time></trkpt><trkpt lat="45.55459952608328" lon="10.4048143115431"><ele>193.0</ele><time>2026-04-21T14:56:57Z</time></trkpt><trkpt lat="45.55457118933575" lon="10.40467183415226"><ele>193.0</ele><time>2026-04-21T14:56:59Z</time></trkpt><trkpt lat="45.554533520464325" lon="10.404517467984114"><ele>193.0</ele><time>2026-04-21T14:57:01Z</time></trkpt><trkpt lat="45.55451286409857" lon="10.404365428383503"><ele>193.0</ele><time>2026-04-21T14:57:03Z</time></trkpt><trkpt lat="45.55447735295726" lon="10.404244528749672"><ele>193.0</ele><time>2026-04-21T14:57:05Z</time></trkpt><trkpt lat="45.55445094175704" lon="10.40414073321247"><ele>193.2</ele><time>2026-04-21T14:57:07Z</time></trkpt><trkpt lat="45.55440738104822" lon="10.404013599856093"><ele>193.4</ele><time>2026-04-21T14:57:09Z</time></trkpt><trkpt lat="45.55436913077568" lon="10.403883358502469"><ele>193.6</ele><time>2026-04-21T14:57:11Z</time></trkpt><trkpt lat="45.55432250228766" lon="10.40376374543548"><ele>193.79999999999998</ele><time>2026-04-21T14:57:13Z</time></trkpt><trkpt lat="45.55426819638355" lon="10.403647740280253"><ele>194.0</ele><time>2026-04-21T14:57:15Z</time></trkpt><trkpt lat="45.55421448977882" lon="10.40350378605359"><ele>194.0</ele><time>2026-04-21T14:57:17Z</time></trkpt><trkpt lat="45.55416505308967" lon="10.403356888352778"><ele>194.0</ele><time>2026-04-21T14:57:19Z</time></trkpt><trkpt lat="45.554077041750084" lon="10.403225287505295"><ele>194.0</ele><time>2026-04-21T14:57:21Z</time></trkpt><trkpt lat="45.554016818939914" lon="10.403076858842493"><ele>194.0</ele><time>2026-04-21T14:57:23Z</time></trkpt><trkpt lat="45.55393492010168" lon="10.402943554477671"><ele>192.0</ele><time>2026-04-21T14:57:25Z</time></trkpt><trkpt lat="45.553904833045095" lon="10.402863743471046"><ele>190.0</ele><time>2026-04-21T14:57:26Z</time></trkpt><trkpt lat="45.55383133311648" lon="10.402717858635938"><ele>188.0</ele><time>2026-04-21T14:57:28Z</time></trkpt><trkpt lat="45.55376224311769" lon="10.402565324834848"><ele>186.0</ele><time>2026-04-21T14:57:30Z</time></trkpt><trkpt lat="45.55372412398769" lon="10.402489281166606"><ele>184.0</ele><time>2026-04-21T14:57:31Z</time></trkpt><trkpt lat="45.55365415338788" lon="10.40233412039637"><ele>184.0</ele><time>2026-04-21T14:57:33Z</time></trkpt><trkpt lat="45.553601577341574" lon="10.402180846407186"><ele>184.0</ele><time>2026-04-21T14:57:35Z</time></trkpt><trkpt lat="45.5535724427504" lon="10.402097250858413"><ele>184.0</ele><time>2026-04-21T14:57:36Z</time></trkpt><trkpt lat="45.553556926644966" lon="10.402004486589073"><ele>184.0</ele><time>2026-04-21T14:57:37Z</time></trkpt><trkpt lat="45.55350631835095" lon="10.401867667947457"><ele>184.0</ele><time>2026-04-21T14:57:39Z</time></trkpt><trkpt lat="45.55347830583803" lon="10.401785305560583"><ele>184.0</ele><time>2026-04-21T14:57:40Z</time></trkpt><trkpt lat="45.5534486646308" lon="10.401702955353636"><ele>184.6</ele><time>2026-04-21T14:57:41Z</time></trkpt><trkpt lat="45.55341381052976" lon="10.401625272571412"><ele>185.2</ele><time>2026-04-21T14:57:42Z</time></trkpt><trkpt lat="45.553337979092596" lon="10.401485789180962"><ele>185.79999999999998</ele><time>2026-04-21T14:57:44Z</time></trkpt><trkpt lat="45.55325740301178" lon="10.401340097771238"><ele>186.39999999999998</ele><time>2026-04-21T14:57:46Z</time></trkpt><trkpt lat="45.55321307004454" lon="10.401267319836103"><ele>187.0</ele><time>2026-04-21T14:57:47Z</time></trkpt><trkpt lat="45.55314631051788" lon="10.401119059176779"><ele>187.0</ele><time>2026-04-21T14:57:49Z</time></trkpt><trkpt lat="45.55312326873942" lon="10.401031708860538"><ele>187.0</ele><time>2026-04-21T14:57:50Z</time></trkpt><trkpt lat="45.55305679343972" lon="10.400879597182833"><ele>187.0</ele><time>2026-04-21T14:57:52Z</time></trkpt><trkpt lat="45.55302179050399" lon="10.400715591718242"><ele>187.0</ele><time>2026-04-21T14:57:54Z</time></trkpt><trkpt lat="45.55299685507253" lon="10.400632714749806"><ele>187.0</ele><time>2026-04-21T14:57:55Z</time></trkpt><trkpt lat="45.55291688518549" lon="10.400488205151312"><ele>185.75</ele><time>2026-04-21T14:57:57Z</time></trkpt><trkpt lat="45.55284227976345" lon="10.4003686740043"><ele>184.5</ele><time>2026-04-21T14:57:59Z</time></trkpt><trkpt lat="45.55276250921981" lon="10.400242094441454"><ele>183.25</ele><time>2026-04-21T14:58:01Z</time></trkpt><trkpt lat="45.55267685718184" lon="10.4001299845745"><ele>182.0</ele><time>2026-04-21T14:58:03Z</time></trkpt><trkpt lat="45.55260528113328" lon="10.40000872204777"><ele>182.0</ele><time>2026-04-21T14:58:05Z</time></trkpt><trkpt lat="45.55252270749878" lon="10.39989752856025"><ele>182.0</ele><time>2026-04-21T14:58:07Z</time></trkpt><trkpt lat="45.552444089842595" lon="10.399779203603817"><ele>182.0</ele><time>2026-04-21T14:58:09Z</time></trkpt><trkpt lat="45.55239128666023" lon="10.399646853550438"><ele>182.0</ele><time>2026-04-21T14:58:11Z</time></trkpt><trkpt lat="45.5523671093612" lon="10.399501744194286"><ele>182.0</ele><time>2026-04-21T14:58:13Z</time></trkpt><trkpt lat="45.55236945625767" lon="10.399349049929793"><ele>182.2</ele><time>2026-04-21T14:58:15Z</time></trkpt><trkpt lat="45.552404051314895" lon="10.399205783900678"><ele>182.39999999999998</ele><time>2026-04-21T14:58:17Z</time></trkpt><trkpt lat="45.552486349330565" lon="10.399092989213251"><ele>182.60000000000002</ele><time>2026-04-21T14:58:19Z</time></trkpt><trkpt lat="45.552568916506814" lon="10.399017368610911"><ele>182.8</ele><time>2026-04-21T14:58:21Z</time></trkpt><trkpt lat="45.552524393762454" lon="10.398909711925317"><ele>183.0</ele><time>2026-04-21T14:58:22Z</time></trkpt><trkpt lat="45.55245309711031" lon="10.398775860700828"><ele>183.0</ele><time>2026-04-21T14:58:24Z</time></trkpt><trkpt lat="45.5523978707005" lon="10.398651164208342"><ele>183.0</ele><time>2026-04-21T14:58:26Z</time></trkpt><trkpt lat="45.5523391743539" lon="10.39850411381227"><ele>183.0</ele><time>2026-04-21T14:58:28Z</time></trkpt><trkpt lat="45.55227590327358" lon="10.39836088483261"><ele>183.0</ele><time>2026-04-21T14:58:30Z</time></trkpt><trkpt lat="45.55221309873772" lon="10.398230545458695"><ele>183.0</ele><time>2026-04-21T14:58:32Z</time></trkpt><trkpt lat="45.55215518216662" lon="10.398093021553962"><ele>183.0</ele><time>2026-04-21T14:58:34Z</time></trkpt><trkpt lat="45.552085955266705" lon="10.39794926039212"><ele>183.0</ele><time>2026-04-21T14:58:36Z</time></trkpt><trkpt lat="45.55200989277405" lon="10.397802450948202"><ele>183.0</ele><time>2026-04-21T14:58:38Z</time></trkpt><trkpt lat="45.55192773628101" lon="10.397667450092175"><ele>182.60000000000002</ele><time>2026-04-21T14:58:40Z</time></trkpt><trkpt lat="45.551851334990616" lon="10.397535986826144"><ele>182.20000000000002</ele><time>2026-04-21T14:58:42Z</time></trkpt><trkpt lat="45.55176486293468" lon="10.397429470480272"><ele>181.8</ele><time>2026-04-21T14:58:44Z</time></trkpt><trkpt lat="45.55168877179436" lon="10.397317335920702"><ele>181.4</ele><time>2026-04-21T14:58:46Z</time></trkpt><trkpt lat="45.551617803202255" lon="10.397209645111012"><ele>181.0</ele><time>2026-04-21T14:58:48Z</time></trkpt><trkpt lat="45.5515483603321" lon="10.397104605843873"><ele>180.60000000000002</ele><time>2026-04-21T14:58:50Z</time></trkpt><trkpt lat="45.551475696028966" lon="10.397004744710685"><ele>180.2</ele><time>2026-04-21T14:58:52Z</time></trkpt><trkpt lat="45.55139966054613" lon="10.396925801172612"><ele>179.8</ele><time>2026-04-21T14:58:54Z</time></trkpt><trkpt lat="45.55131948787209" lon="10.396849527140379"><ele>179.39999999999998</ele><time>2026-04-21T14:58:56Z</time></trkpt><trkpt lat="45.55124680742731" lon="10.396770625996872"><ele>179.0</ele><time>2026-04-21T14:58:58Z</time></trkpt><trkpt lat="45.551175012928105" lon="10.396696835974993"><ele>179.0</ele><time>2026-04-21T14:59:00Z</time></trkpt><trkpt lat="45.55110646806424" lon="10.396621360435953"><ele>179.0</ele><time>2026-04-21T14:59:02Z</time></trkpt><trkpt lat="45.55103124295297" lon="10.396557741995574"><ele>179.0</ele><time>2026-04-21T14:59:04Z</time></trkpt><trkpt lat="45.55095675037189" lon="10.39647416639759"><ele>179.0</ele><time>2026-04-21T14:59:06Z</time></trkpt><trkpt lat="45.55089031552373" lon="10.396382140202112"><ele>179.0</ele><time>2026-04-21T14:59:08Z</time></trkpt><trkpt lat="45.550817840071765" lon="10.396301725104596"><ele>179.0</ele><time>2026-04-21T14:59:10Z</time></trkpt><trkpt lat="45.55075699640356" lon="10.396195021094034"><ele>179.0</ele><time>2026-04-21T14:59:12Z</time></trkpt><trkpt lat="45.55069462396702" lon="10.396079518542953"><ele>179.0</ele><time>2026-04-21T14:59:14Z</time></trkpt><trkpt lat="45.55064185691699" lon="10.395926332087258"><ele>179.0</ele><time>2026-04-21T14:59:16Z</time></trkpt><trkpt lat="45.550570055396136" lon="10.395802623237365"><ele>179.0</ele><time>2026-04-21T14:59:18Z</time></trkpt><trkpt lat="45.55051415530114" lon="10.395664230948826"><ele>179.0</ele><time>2026-04-21T14:59:20Z</time></trkpt><trkpt lat="45.55045529414352" lon="10.395539407412677"><ele>179.0</ele><time>2026-04-21T14:59:22Z</time></trkpt><trkpt lat="45.550395199269765" lon="10.3954209743542"><ele>179.0</ele><time>2026-04-21T14:59:24Z</time></trkpt><trkpt lat="45.55033969588681" lon="10.395306172392539"><ele>179.0</ele><time>2026-04-21T14:59:26Z</time></trkpt><trkpt lat="45.55028398422376" lon="10.395183820710049"><ele>179.0</ele><time>2026-04-21T14:59:28Z</time></trkpt><trkpt lat="45.550227032626545" lon="10.395072418095026"><ele>179.2</ele><time>2026-04-21T14:59:30Z</time></trkpt><trkpt lat="45.55017323417765" lon="10.394964296277058"><ele>179.39999999999998</ele><time>2026-04-21T14:59:32Z</time></trkpt><trkpt lat="45.55012223846566" lon="10.394845021665596"><ele>179.6</ele><time>2026-04-21T14:59:34Z</time></trkpt><trkpt lat="45.55006045093941" lon="10.394719601686718"><ele>179.8</ele><time>2026-04-21T14:59:36Z</time></trkpt><trkpt lat="45.549994857363416" lon="10.394585514705955"><ele>180.0</ele><time>2026-04-21T14:59:38Z</time></trkpt><trkpt lat="45.54993403511899" lon="10.394443877957833"><ele>180.0</ele><time>2026-04-21T14:59:40Z</time></trkpt><trkpt lat="45.549866075302475" lon="10.394305679008797"><ele>180.0</ele><time>2026-04-21T14:59:42Z</time></trkpt><trkpt lat="45.549827518028366" lon="10.394222904808995"><ele>180.0</ele><time>2026-04-21T14:59:43Z</time></trkpt><trkpt lat="45.54978952859785" lon="10.394147601271927"><ele>180.0</ele><time>2026-04-21T14:59:44Z</time></trkpt><trkpt lat="45.549754174011774" lon="10.394071536719869"><ele>180.0</ele><time>2026-04-21T14:59:45Z</time></trkpt><trkpt lat="45.54969303180247" lon="10.393919161061001"><ele>180.0</ele><time>2026-04-21T14:59:47Z</time></trkpt><trkpt lat="45.54965189971409" lon="10.393844238163362"><ele>180.0</ele><time>2026-04-21T14:59:48Z</time></trkpt><trkpt lat="45.5496159653207" lon="10.393767807831242"><ele>180.0</ele><time>2026-04-21T14:59:49Z</time></trkpt><trkpt lat="45.54954262404013" lon="10.393635208814581"><ele>180.0</ele><time>2026-04-21T14:59:51Z</time></trkpt><trkpt lat="45.54948715033473" lon="10.39349371361646"><ele>180.0</ele><time>2026-04-21T14:59:53Z</time></trkpt><trkpt lat="45.549423042162005" lon="10.393366049536262"><ele>180.0</ele><time>2026-04-21T14:59:55Z</time></trkpt><trkpt lat="45.54936166210632" lon="10.393244907271859"><ele>180.0</ele><time>2026-04-21T14:59:57Z</time></trkpt><trkpt lat="45.549305203452114" lon="10.393124976810709"><ele>180.0</ele><time>2026-04-21T14:59:59Z</time></trkpt><trkpt lat="45.549249441437574" lon="10.393013239187981"><ele>180.0</ele><time>2026-04-21T15:00:01Z</time></trkpt><trkpt lat="45.549241525356614" lon="10.392919308022764"><ele>180.0</ele><time>2026-04-21T15:00:05Z</time></trkpt><trkpt lat="45.54925731324514" lon="10.392770880086239"><ele>180.0</ele><time>2026-04-21T15:00:09Z</time></trkpt><trkpt lat="45.54932828828039" lon="10.39268094180782"><ele>179.4</ele><time>2026-04-21T15:00:11Z</time></trkpt><trkpt lat="45.549384801175" lon="10.392589868240883"><ele>178.8</ele><time>2026-04-21T15:00:13Z</time></trkpt><trkpt lat="45.54946853801123" lon="10.392502712368897"><ele>178.2</ele><time>2026-04-21T15:00:15Z</time></trkpt><trkpt lat="45.54955505772174" lon="10.392410926246512"><ele>177.6</ele><time>2026-04-21T15:00:17Z</time></trkpt><trkpt lat="45.54965422076738" lon="10.392305513442688"><ele>177.0</ele><time>2026-04-21T15:00:19Z</time></trkpt><trkpt lat="45.549762892106344" lon="10.392212722950866"><ele>177.14285714285714</ele><time>2026-04-21T15:00:21Z</time></trkpt><trkpt lat="45.54982212897574" lon="10.392168461748991"><ele>177.28571428571428</ele><time>2026-04-21T15:00:22Z</time></trkpt><trkpt lat="45.549883825288425" lon="10.392122705513154"><ele>177.42857142857142</ele><time>2026-04-21T15:00:23Z</time></trkpt><trkpt lat="45.5499470891384" lon="10.392082412399823"><ele>177.57142857142856</ele><time>2026-04-21T15:00:24Z</time></trkpt><trkpt lat="45.55000693668169" lon="10.392042289162596"><ele>177.71428571428572</ele><time>2026-04-21T15:00:25Z</time></trkpt><trkpt lat="45.55006870234816" lon="10.392002992734925"><ele>177.85714285714283</ele><time>2026-04-21T15:00:26Z</time></trkpt><trkpt lat="45.55013465617606" lon="10.39197286883799"><ele>178.0</ele><time>2026-04-21T15:00:27Z</time></trkpt><trkpt lat="45.55019639560785" lon="10.391938357800816"><ele>177.99999999999997</ele><time>2026-04-21T15:00:28Z</time></trkpt><trkpt lat="45.55025956312121" lon="10.391904904588285"><ele>178.0</ele><time>2026-04-21T15:00:29Z</time></trkpt><trkpt lat="45.55032401140212" lon="10.391872181775605"><ele>178.0</ele><time>2026-04-21T15:00:30Z</time></trkpt><trkpt lat="45.550388021158845" lon="10.391842978152562"><ele>178.0</ele><time>2026-04-21T15:00:31Z</time></trkpt><trkpt lat="45.55045234605923" lon="10.391813987630155"><ele>178.0</ele><time>2026-04-21T15:00:32Z</time></trkpt><trkpt lat="45.55051590315272" lon="10.39178011473494"><ele>177.99999999999997</ele><time>2026-04-21T15:00:33Z</time></trkpt><trkpt lat="45.55058178298753" lon="10.39174849707732"><ele>178.0</ele><time>2026-04-21T15:00:34Z</time></trkpt><trkpt lat="45.550645966869624" lon="10.391710573819307"><ele>177.99999999999997</ele><time>2026-04-21T15:00:35Z</time></trkpt><trkpt lat="45.55071110510178" lon="10.391680385485921"><ele>178.0</ele><time>2026-04-21T15:00:36Z</time></trkpt><trkpt lat="45.55077863558995" lon="10.39164862179766"><ele>178.0</ele><time>2026-04-21T15:00:37Z</time></trkpt><trkpt lat="45.55084560531871" lon="10.391616450143614"><ele>178.0</ele><time>2026-04-21T15:00:38Z</time></trkpt><trkpt lat="45.55091238253946" lon="10.391585597830769"><ele>178.0</ele><time>2026-04-21T15:00:39Z</time></trkpt><trkpt lat="45.55097950798395" lon="10.391550573536431"><ele>177.99999999999997</ele><time>2026-04-21T15:00:40Z</time></trkpt><trkpt lat="45.551047827062966" lon="10.391517375863064"><ele>178.0</ele><time>2026-04-21T15:00:41Z</time></trkpt><trkpt lat="45.551114013292334" lon="10.391483875223884"><ele>177.99999999999997</ele><time>2026-04-21T15:00:42Z</time></trkpt><trkpt lat="45.551181837288944" lon="10.391451528480435"><ele>178.0</ele><time>2026-04-21T15:00:43Z</time></trkpt><trkpt lat="45.55124935087449" lon="10.391418886749483"><ele>178.0</ele><time>2026-04-21T15:00:44Z</time></trkpt><trkpt lat="45.55131918399095" lon="10.391385016409075"><ele>178.0</ele><time>2026-04-21T15:00:45Z</time></trkpt><trkpt lat="45.55138901623201" lon="10.391352071890061"><ele>178.0</ele><time>2026-04-21T15:00:46Z</time></trkpt><trkpt lat="45.55145801828875" lon="10.391319816417377"><ele>177.99999999999997</ele><time>2026-04-21T15:00:47Z</time></trkpt><trkpt lat="45.5515272294688" lon="10.391285912129137"><ele>178.0</ele><time>2026-04-21T15:00:48Z</time></trkpt><trkpt lat="45.55159331365232" lon="10.391251190324175"><ele>177.85714285714283</ele><time>2026-04-21T15:00:49Z</time></trkpt><trkpt lat="45.55166322488795" lon="10.39122044997281"><ele>177.71428571428572</ele><time>2026-04-21T15:00:50Z</time></trkpt><trkpt lat="45.551730773891194" lon="10.391189033380545"><ele>177.57142857142856</ele><time>2026-04-21T15:00:51Z</time></trkpt><trkpt lat="45.55180049321314" lon="10.391152792424716"><ele>177.42857142857142</ele><time>2026-04-21T15:00:52Z</time></trkpt><trkpt lat="45.55186702978113" lon="10.391118693427085"><ele>177.28571428571428</ele><time>2026-04-21T15:00:53Z</time></trkpt><trkpt lat="45.55193568916159" lon="10.391087582857212"><ele>177.14285714285714</ele><time>2026-04-21T15:00:54Z</time></trkpt><trkpt lat="45.55200349487507" lon="10.391054466448841"><ele>177.0</ele><time>2026-04-21T15:00:55Z</time></trkpt><trkpt lat="45.55206748064817" lon="10.391026782454894"><ele>177.2857142857143</ele><time>2026-04-21T15:00:56Z</time></trkpt><trkpt lat="45.55213037531608" lon="10.39099588777558"><ele>177.57142857142856</ele><time>2026-04-21T15:00:57Z</time></trkpt><trkpt lat="45.55219884289674" lon="10.390970992321012"><ele>177.85714285714286</ele><time>2026-04-21T15:00:58Z</time></trkpt><trkpt lat="45.552265640832616" lon="10.39094487959528"><ele>178.14285714285717</ele><time>2026-04-21T15:00:59Z</time></trkpt><trkpt lat="45.55233225901947" lon="10.390916296256348"><ele>178.42857142857144</ele><time>2026-04-21T15:01:00Z</time></trkpt><trkpt lat="45.55240296599903" lon="10.390886438302045"><ele>178.71428571428572</ele><time>2026-04-21T15:01:01Z</time></trkpt><trkpt lat="45.552470152959714" lon="10.390864586808991"><ele>179.0</ele><time>2026-04-21T15:01:02Z</time></trkpt><trkpt lat="45.55253642606281" lon="10.390838980068814"><ele>179.00000000000003</ele><time>2026-04-21T15:01:03Z</time></trkpt><trkpt lat="45.55260731090283" lon="10.390821320826142"><ele>179.0</ele><time>2026-04-21T15:01:04Z</time></trkpt><trkpt lat="45.55267498943591" lon="10.390795183375268"><ele>179.0</ele><time>2026-04-21T15:01:05Z</time></trkpt><trkpt lat="45.55274458198938" lon="10.390774265203028"><ele>179.0</ele><time>2026-04-21T15:01:06Z</time></trkpt><trkpt lat="45.55281271832025" lon="10.390752874739672"><ele>179.0</ele><time>2026-04-21T15:01:07Z</time></trkpt><trkpt lat="45.55288606561218" lon="10.390732068530754"><ele>179.00000000000003</ele><time>2026-04-21T15:01:08Z</time></trkpt><trkpt lat="45.55295450626253" lon="10.390712336518892"><ele>179.0</ele><time>2026-04-21T15:01:09Z</time></trkpt><trkpt lat="45.55302770188545" lon="10.390689373434142"><ele>178.85714285714286</ele><time>2026-04-21T15:01:10Z</time></trkpt><trkpt lat="45.55310023851387" lon="10.390672457033206"><ele>178.71428571428572</ele><time>2026-04-21T15:01:11Z</time></trkpt><trkpt lat="45.553172380282454" lon="10.390652098715679"><ele>178.57142857142856</ele><time>2026-04-21T15:01:12Z</time></trkpt><trkpt lat="45.55324511837958" lon="10.390631436308706"><ele>178.42857142857144</ele><time>2026-04-21T15:01:13Z</time></trkpt><trkpt lat="45.55331838922638" lon="10.390615240255997"><ele>178.28571428571428</ele><time>2026-04-21T15:01:14Z</time></trkpt><trkpt lat="45.553392209091065" lon="10.390593542483604"><ele>178.14285714285714</ele><time>2026-04-21T15:01:15Z</time></trkpt><trkpt lat="45.553466676759726" lon="10.39057271525372"><ele>178.0</ele><time>2026-04-21T15:01:16Z</time></trkpt><trkpt lat="45.553539881169016" lon="10.39055216539637"><ele>177.99999999999997</ele><time>2026-04-21T15:01:17Z</time></trkpt><trkpt lat="45.55361195903713" lon="10.390532037302714"><ele>178.0</ele><time>2026-04-21T15:01:18Z</time></trkpt><trkpt lat="45.55367938370954" lon="10.390512280195155"><ele>178.0</ele><time>2026-04-21T15:01:19Z</time></trkpt><trkpt lat="45.553746208208146" lon="10.390495991132449"><ele>178.0</ele><time>2026-04-21T15:01:20Z</time></trkpt><trkpt lat="45.55381268005549" lon="10.39047828921343"><ele>178.0</ele><time>2026-04-21T15:01:21Z</time></trkpt><trkpt lat="45.55387557118956" lon="10.390459364023885"><ele>177.99999999999997</ele><time>2026-04-21T15:01:22Z</time></trkpt><trkpt lat="45.55393624023827" lon="10.390433210102595"><ele>178.0</ele><time>2026-04-21T15:01:23Z</time></trkpt><trkpt lat="45.55404779832663" lon="10.390381787242088"><ele>178.4</ele><time>2026-04-21T15:01:25Z</time></trkpt><trkpt lat="45.55415036078244" lon="10.390318963345921"><ele>178.8</ele><time>2026-04-21T15:01:27Z</time></trkpt><trkpt lat="45.55424579890201" lon="10.39025469978366"><ele>179.2</ele><time>2026-04-21T15:01:29Z</time></trkpt><trkpt lat="45.55433476498192" lon="10.390189115194786"><ele>179.6</ele><time>2026-04-21T15:01:31Z</time></trkpt><trkpt lat="45.55440601117226" lon="10.390112300551008"><ele>180.0</ele><time>2026-04-21T15:01:33Z</time></trkpt><trkpt lat="45.55446840465645" lon="10.39004659345"><ele>180.0</ele><time>2026-04-21T15:01:35Z</time></trkpt><trkpt lat="45.554534235711344" lon="10.39001337967077"><ele>180.0</ele><time>2026-04-21T15:01:38Z</time></trkpt><trkpt lat="45.5544274841495" lon="10.389872258862503"><ele>180.0</ele><time>2026-04-21T15:01:44Z</time></trkpt><trkpt lat="45.554336399797315" lon="10.389845913873813"><ele>180.0</ele><time>2026-04-21T15:01:47Z</time></trkpt><trkpt lat="45.554274159794" lon="10.389807138411271"><ele>180.0</ele><time>2026-04-21T15:01:49Z</time></trkpt><trkpt lat="45.554186469176564" lon="10.3897635768569"><ele>180.0</ele><time>2026-04-21T15:01:51Z</time></trkpt><trkpt lat="45.55410171780801" lon="10.389710584722037"><ele>180.0</ele><time>2026-04-21T15:01:53Z</time></trkpt><trkpt lat="45.55403465725975" lon="10.3896837031428"><ele>180.0</ele><time>2026-04-21T15:01:55Z</time></trkpt><trkpt lat="45.553959763172" lon="10.38963849790142"><ele>180.0</ele><time>2026-04-21T15:01:57Z</time></trkpt><trkpt lat="45.55389396437706" lon="10.389591249140253"><ele>180.0</ele><time>2026-04-21T15:01:59Z</time></trkpt><trkpt lat="45.55381871084084" lon="10.389554531378066"><ele>180.0</ele><time>2026-04-21T15:02:01Z</time></trkpt><trkpt lat="45.55372968743059" lon="10.38950730640092"><ele>180.0</ele><time>2026-04-21T15:02:03Z</time></trkpt><trkpt lat="45.553658466806155" lon="10.389475070713072"><ele>180.0</ele><time>2026-04-21T15:02:05Z</time></trkpt><trkpt lat="45.553580115418235" lon="10.38943785530991"><ele>180.0</ele><time>2026-04-21T15:02:07Z</time></trkpt><trkpt lat="45.55349215577731" lon="10.389414430700329"><ele>180.0</ele><time>2026-04-21T15:02:09Z</time></trkpt><trkpt lat="45.55339656217752" lon="10.389402280333204"><ele>180.0</ele><time>2026-04-21T15:02:11Z</time></trkpt><trkpt lat="45.553282955366825" lon="10.389392573781036"><ele>180.0</ele><time>2026-04-21T15:02:13Z</time></trkpt><trkpt lat="45.55317424048698" lon="10.389374330944875"><ele>180.0</ele><time>2026-04-21T15:02:15Z</time></trkpt><trkpt lat="45.55306681000325" lon="10.389358355925951"><ele>180.0</ele><time>2026-04-21T15:02:17Z</time></trkpt><trkpt lat="45.55296061053615" lon="10.389334472691338"><ele>180.0</ele><time>2026-04-21T15:02:19Z</time></trkpt><trkpt lat="45.55285649374355" lon="10.389320072654234"><ele>180.0</ele><time>2026-04-21T15:02:21Z</time></trkpt><trkpt lat="45.5527499257852" lon="10.38930661409125"><ele>179.8</ele><time>2026-04-21T15:02:23Z</time></trkpt><trkpt lat="45.55263799349364" lon="10.389288598451817"><ele>179.6</ele><time>2026-04-21T15:02:25Z</time></trkpt><trkpt lat="45.55252920118998" lon="10.38927005703113"><ele>179.39999999999998</ele><time>2026-04-21T15:02:27Z</time></trkpt><trkpt lat="45.552417349084024" lon="10.389247498336255"><ele>179.2</ele><time>2026-04-21T15:02:29Z</time></trkpt><trkpt lat="45.55231267743122" lon="10.389231447003313"><ele>179.0</ele><time>2026-04-21T15:02:31Z</time></trkpt><trkpt lat="45.5524303962388" lon="10.389014986391373"><ele>179.0</ele><time>2026-04-21T15:02:39Z</time></trkpt><trkpt lat="45.55247985368797" lon="10.388934823075319"><ele>179.0</ele><time>2026-04-21T15:02:41Z</time></trkpt><trkpt lat="45.55254009400573" lon="10.388862603485515"><ele>179.0</ele><time>2026-04-21T15:02:43Z</time></trkpt><trkpt lat="45.552601681984854" lon="10.388791581869654"><ele>179.0</ele><time>2026-04-21T15:02:45Z</time></trkpt><trkpt lat="45.55265715531042" lon="10.388715361942486"><ele>179.0</ele><time>2026-04-21T15:02:47Z</time></trkpt><trkpt lat="45.5527157884461" lon="10.388640267656784"><ele>179.0</ele><time>2026-04-21T15:02:49Z</time></trkpt><trkpt lat="45.552777925084" lon="10.388555407733152"><ele>179.0</ele><time>2026-04-21T15:02:51Z</time></trkpt><trkpt lat="45.55284318990709" lon="10.388480842303926"><ele>179.0</ele><time>2026-04-21T15:02:53Z</time></trkpt><trkpt lat="45.55290896220775" lon="10.388388231161073"><ele>179.0</ele><time>2026-04-21T15:02:55Z</time></trkpt><trkpt lat="45.5529804284609" lon="10.388293921718006"><ele>179.0</ele><time>2026-04-21T15:02:57Z</time></trkpt><trkpt lat="45.55305562677489" lon="10.388211117075313"><ele>179.0</ele><time>2026-04-21T15:02:59Z</time></trkpt><trkpt lat="45.55298518748123" lon="10.388160591107775"><ele>179.0</ele><time>2026-04-21T15:03:05Z</time></trkpt><trkpt lat="45.55302004417035" lon="10.388235459377047"><ele>179.33333333333331</ele><time>2026-04-21T15:03:10Z</time></trkpt><trkpt lat="45.5530900775546" lon="10.388193663025076"><ele>179.66666666666666</ele><time>2026-04-21T15:03:12Z</time></trkpt><trkpt lat="45.553140452263875" lon="10.38811446708654"><ele>180.0</ele><time>2026-04-21T15:03:14Z</time></trkpt><trkpt lat="45.55319664860392" lon="10.388028307702452"><ele>180.33333333333334</ele><time>2026-04-21T15:03:16Z</time></trkpt><trkpt lat="45.55325985563672" lon="10.387956686181933"><ele>180.66666666666669</ele><time>2026-04-21T15:03:18Z</time></trkpt><trkpt lat="45.5533246664827" lon="10.387882039213743"><ele>181.0</ele><time>2026-04-21T15:03:20Z</time></trkpt><trkpt lat="45.553391101299" lon="10.387793380008533"><ele>181.16666666666669</ele><time>2026-04-21T15:03:22Z</time></trkpt><trkpt lat="45.55345331788341" lon="10.38770399695396"><ele>181.33333333333334</ele><time>2026-04-21T15:03:24Z</time></trkpt><trkpt lat="45.55351319081019" lon="10.387605511218243"><ele>181.5</ele><time>2026-04-21T15:03:26Z</time></trkpt><trkpt lat="45.55356847086074" lon="10.387527921616963"><ele>181.66666666666666</ele><time>2026-04-21T15:03:28Z</time></trkpt><trkpt lat="45.553615976973475" lon="10.387446706309579"><ele>181.83333333333331</ele><time>2026-04-21T15:03:31Z</time></trkpt><trkpt lat="45.55357147880473" lon="10.387511841513748"><ele>182.0</ele><time>2026-04-21T15:03:38Z</time></trkpt><trkpt lat="45.553520423775616" lon="10.387567242716653"><ele>182.0</ele><time>2026-04-21T15:03:40Z</time></trkpt><trkpt lat="45.5534731532248" lon="10.387654540854012"><ele>182.0</ele><time>2026-04-21T15:03:42Z</time></trkpt><trkpt lat="45.553403502718076" lon="10.38773367306519"><ele>182.0</ele><time>2026-04-21T15:03:44Z</time></trkpt><trkpt lat="45.55333498255702" lon="10.387828421299513"><ele>182.0</ele><time>2026-04-21T15:03:46Z</time></trkpt><trkpt lat="45.55326786738854" lon="10.387923694077736"><ele>182.0</ele><time>2026-04-21T15:03:48Z</time></trkpt><trkpt lat="45.55318816889004" lon="10.388035025421312"><ele>181.8</ele><time>2026-04-21T15:03:50Z</time></trkpt><trkpt lat="45.55314220867578" lon="10.38809741671988"><ele>181.6</ele><time>2026-04-21T15:03:51Z</time></trkpt><trkpt lat="45.55308166264261" lon="10.38812851986844"><ele>181.4</ele><time>2026-04-21T15:03:52Z</time></trkpt><trkpt lat="45.55299719284206" lon="10.388232904233295"><ele>181.20000000000002</ele><time>2026-04-21T15:03:54Z</time></trkpt><trkpt lat="45.552917376570115" lon="10.388336121589068"><ele>181.0</ele><time>2026-04-21T15:03:56Z</time></trkpt><trkpt lat="45.55284179358258" lon="10.38844533610918"><ele>180.60000000000002</ele><time>2026-04-21T15:03:58Z</time></trkpt><trkpt lat="45.55276793696646" lon="10.388546195927413"><ele>180.2</ele><time>2026-04-21T15:04:00Z</time></trkpt><trkpt lat="45.55269165538917" lon="10.388645686954463"><ele>179.8</ele><time>2026-04-21T15:04:02Z</time></trkpt><trkpt lat="45.55261506946037" lon="10.38874590824155"><ele>179.39999999999998</ele><time>2026-04-21T15:04:04Z</time></trkpt><trkpt lat="45.55253896436389" lon="10.388839956664745"><ele>179.0</ele><time>2026-04-21T15:04:06Z</time></trkpt><trkpt lat="45.552458295566154" lon="10.388932055710743"><ele>179.0</ele><time>2026-04-21T15:04:08Z</time></trkpt><trkpt lat="45.552377962319326" lon="10.38902792698334"><ele>179.0</ele><time>2026-04-21T15:04:10Z</time></trkpt><trkpt lat="45.55230740180777" lon="10.389130057142713"><ele>179.0</ele><time>2026-04-21T15:04:12Z</time></trkpt><trkpt lat="45.552249398279095" lon="10.38919066296799"><ele>179.0</ele><time>2026-04-21T15:04:14Z</time></trkpt><trkpt lat="45.55217396244348" lon="10.389205308914994"><ele>179.0</ele><time>2026-04-21T15:04:16Z</time></trkpt><trkpt lat="45.55209966339696" lon="10.389142141016972"><ele>179.0</ele><time>2026-04-21T15:04:18Z</time></trkpt><trkpt lat="45.55201977177594" lon="10.389090866504603"><ele>179.2</ele><time>2026-04-21T15:04:20Z</time></trkpt><trkpt lat="45.551942624195746" lon="10.38903509724001"><ele>179.39999999999998</ele><time>2026-04-21T15:04:22Z</time></trkpt><trkpt lat="45.55186313384888" lon="10.388982945109777"><ele>179.6</ele><time>2026-04-21T15:04:24Z</time></trkpt><trkpt lat="45.551771178574036" lon="10.388920023037265"><ele>179.8</ele><time>2026-04-21T15:04:26Z</time></trkpt><trkpt lat="45.5516693121539" lon="10.38885118290768"><ele>180.0</ele><time>2026-04-21T15:04:28Z</time></trkpt><trkpt lat="45.55157329342671" lon="10.388791628988649"><ele>180.0</ele><time>2026-04-21T15:04:30Z</time></trkpt><trkpt lat="45.551488550689776" lon="10.388736578923"><ele>180.0</ele><time>2026-04-21T15:04:32Z</time></trkpt><trkpt lat="45.551408515532835" lon="10.388695958495942"><ele>180.0</ele><time>2026-04-21T15:04:34Z</time></trkpt><trkpt lat="45.551338332121745" lon="10.388631543809755"><ele>180.0</ele><time>2026-04-21T15:04:36Z</time></trkpt><trkpt lat="45.551251697902096" lon="10.388603783411394"><ele>180.0</ele><time>2026-04-21T15:04:38Z</time></trkpt><trkpt lat="45.551177093387466" lon="10.388524823992103"><ele>180.0</ele><time>2026-04-21T15:04:40Z</time></trkpt><trkpt lat="45.551094036294934" lon="10.388472581822457"><ele>180.0</ele><time>2026-04-21T15:04:42Z</time></trkpt><trkpt lat="45.55100969061215" lon="10.388429190714032"><ele>180.0</ele><time>2026-04-21T15:04:44Z</time></trkpt><trkpt lat="45.550920706643936" lon="10.3883807227867"><ele>180.0</ele><time>2026-04-21T15:04:46Z</time></trkpt><trkpt lat="45.55083419317553" lon="10.388331012488806"><ele>180.0</ele><time>2026-04-21T15:04:48Z</time></trkpt><trkpt lat="45.55075010082425" lon="10.388292580742483"><ele>180.0</ele><time>2026-04-21T15:04:50Z</time></trkpt><trkpt lat="45.55066870133363" lon="10.388283566505725"><ele>180.0</ele><time>2026-04-21T15:04:52Z</time></trkpt><trkpt lat="45.550588798275356" lon="10.388290384978344"><ele>180.0</ele><time>2026-04-21T15:04:54Z</time></trkpt><trkpt lat="45.55050941952016" lon="10.388310804007325"><ele>180.0</ele><time>2026-04-21T15:04:56Z</time></trkpt><trkpt lat="45.55042955790256" lon="10.388318030763466"><ele>180.0</ele><time>2026-04-21T15:04:58Z</time></trkpt><trkpt lat="45.55035345588831" lon="10.388331556022823"><ele>180.0</ele><time>2026-04-21T15:05:00Z</time></trkpt><trkpt lat="45.55028111607316" lon="10.38833910172422"><ele>180.0</ele><time>2026-04-21T15:05:02Z</time></trkpt><trkpt lat="45.5502084296118" lon="10.388356170479772"><ele>180.0</ele><time>2026-04-21T15:05:04Z</time></trkpt><trkpt lat="45.550127817922345" lon="10.388343724412215"><ele>179.8</ele><time>2026-04-21T15:05:06Z</time></trkpt><trkpt lat="45.550056989575786" lon="10.388320117524433"><ele>179.6</ele><time>2026-04-21T15:05:08Z</time></trkpt><trkpt lat="45.54999478919335" lon="10.388288245907276"><ele>179.39999999999998</ele><time>2026-04-21T15:05:10Z</time></trkpt><trkpt lat="45.550069983690214" lon="10.388074510107824"><ele>179.2</ele><time>2026-04-21T15:05:13Z</time></trkpt><trkpt lat="45.55012583501635" lon="10.38798777004271"><ele>179.0</ele><time>2026-04-21T15:05:15Z</time></trkpt><trkpt lat="45.55017371642537" lon="10.38788863832407"><ele>179.0</ele><time>2026-04-21T15:05:17Z</time></trkpt><trkpt lat="45.55023346145623" lon="10.38778508091361"><ele>179.0</ele><time>2026-04-21T15:05:19Z</time></trkpt><trkpt lat="45.550297427131724" lon="10.387676828558721"><ele>179.0</ele><time>2026-04-21T15:05:21Z</time></trkpt><trkpt lat="45.55036160017427" lon="10.387565204639587"><ele>179.0</ele><time>2026-04-21T15:05:23Z</time></trkpt><trkpt lat="45.550420510628456" lon="10.38744878994447"><ele>179.0</ele><time>2026-04-21T15:05:25Z</time></trkpt><trkpt lat="45.550488027935245" lon="10.387336653971026"><ele>178.79999999999998</ele><time>2026-04-21T15:05:27Z</time></trkpt><trkpt lat="45.55055451389219" lon="10.387220947748354"><ele>178.6</ele><time>2026-04-21T15:05:29Z</time></trkpt><trkpt lat="45.55061964233563" lon="10.3871090976979"><ele>178.4</ele><time>2026-04-21T15:05:31Z</time></trkpt><trkpt lat="45.55068324535158" lon="10.386997021056173"><ele>178.2</ele><time>2026-04-21T15:05:33Z</time></trkpt><trkpt lat="45.55074874371628" lon="10.386887047483977"><ele>178.0</ele><time>2026-04-21T15:05:35Z</time></trkpt><trkpt lat="45.55080620999251" lon="10.386775607014942"><ele>178.0</ele><time>2026-04-21T15:05:37Z</time></trkpt><trkpt lat="45.55086582672293" lon="10.386664914544339"><ele>178.0</ele><time>2026-04-21T15:05:39Z</time></trkpt><trkpt lat="45.55092761856407" lon="10.386558619891876"><ele>178.0</ele><time>2026-04-21T15:05:41Z</time></trkpt><trkpt lat="45.55099226670174" lon="10.386452476935563"><ele>178.0</ele><time>2026-04-21T15:05:43Z</time></trkpt><trkpt lat="45.5510524577517" lon="10.386337404965673"><ele>178.0</ele><time>2026-04-21T15:05:45Z</time></trkpt><trkpt lat="45.55111473527275" lon="10.3862348814862"><ele>178.66666666666669</ele><time>2026-04-21T15:05:47Z</time></trkpt><trkpt lat="45.551165585308816" lon="10.386131184089495"><ele>179.33333333333334</ele><time>2026-04-21T15:05:49Z</time></trkpt><trkpt lat="45.55121503069203" lon="10.386017838913997"><ele>180.0</ele><time>2026-04-21T15:05:51Z</time></trkpt><trkpt lat="45.55125566761312" lon="10.385902816909237"><ele>180.66666666666666</ele><time>2026-04-21T15:05:53Z</time></trkpt><trkpt lat="45.55128580243432" lon="10.38578510204273"><ele>181.33333333333331</ele><time>2026-04-21T15:05:55Z</time></trkpt><trkpt lat="45.55128183514248" lon="10.385660869493368"><ele>182.0</ele><time>2026-04-21T15:05:57Z</time></trkpt><trkpt lat="45.551227866759646" lon="10.385566195488991"><ele>182.83333333333331</ele><time>2026-04-21T15:05:59Z</time></trkpt><trkpt lat="45.55119136855596" lon="10.385472574911626"><ele>183.66666666666666</ele><time>2026-04-21T15:06:01Z</time></trkpt><trkpt lat="45.55113601684106" lon="10.385371396531822"><ele>184.5</ele><time>2026-04-21T15:06:03Z</time></trkpt><trkpt lat="45.55109015745135" lon="10.385277295114708"><ele>185.33333333333334</ele><time>2026-04-21T15:06:05Z</time></trkpt><trkpt lat="45.55104627108453" lon="10.385180440188762"><ele>186.16666666666669</ele><time>2026-04-21T15:06:07Z</time></trkpt><trkpt lat="45.551006304067016" lon="10.38509147703923"><ele>187.0</ele><time>2026-04-21T15:06:09Z</time></trkpt><trkpt lat="45.55096594978094" lon="10.385008824421417"><ele>187.0</ele><time>2026-04-21T15:06:11Z</time></trkpt><trkpt lat="45.550932373532085" lon="10.384917567416764"><ele>187.0</ele><time>2026-04-21T15:06:13Z</time></trkpt><trkpt lat="45.55089001198026" lon="10.384824198272504"><ele>187.0</ele><time>2026-04-21T15:06:15Z</time></trkpt><trkpt lat="45.55085567321632" lon="10.384725949327137"><ele>187.0</ele><time>2026-04-21T15:06:17Z</time></trkpt><trkpt lat="45.55081881828673" lon="10.384636596338128"><ele>187.0</ele><time>2026-04-21T15:06:19Z</time></trkpt><trkpt lat="45.55077917696795" lon="10.384553570768668"><ele>187.0</ele><time>2026-04-21T15:06:22Z</time></trkpt><trkpt lat="45.550722779523106" lon="10.38444034593114"><ele>188.66666666666669</ele><time>2026-04-21T15:06:25Z</time></trkpt><trkpt lat="45.55066968327962" lon="10.384330413883886"><ele>190.33333333333334</ele><time>2026-04-21T15:06:28Z</time></trkpt><trkpt lat="45.55063826302239" lon="10.384215474371096"><ele>192.0</ele><time>2026-04-21T15:06:30Z</time></trkpt><trkpt lat="45.55058105757602" lon="10.384093525635299"><ele>193.66666666666669</ele><time>2026-04-21T15:06:32Z</time></trkpt><trkpt lat="45.550529843103405" lon="10.384015075950154"><ele>195.33333333333334</ele><time>2026-04-21T15:06:34Z</time></trkpt><trkpt lat="45.550464160048605" lon="10.383966092769036"><ele>197.0</ele><time>2026-04-21T15:06:36Z</time></trkpt><trkpt lat="45.550391839461135" lon="10.38391988363175"><ele>197.00000000000003</ele><time>2026-04-21T15:06:38Z</time></trkpt><trkpt lat="45.550328714026136" lon="10.383889377194814"><ele>197.0</ele><time>2026-04-21T15:06:40Z</time></trkpt><trkpt lat="45.5502382598993" lon="10.383841732192941"><ele>197.0</ele><time>2026-04-21T15:06:43Z</time></trkpt><trkpt lat="45.55016903079141" lon="10.383801933918342"><ele>197.0</ele><time>2026-04-21T15:06:45Z</time></trkpt><trkpt lat="45.55010322876341" lon="10.383783993964126"><ele>197.00000000000003</ele><time>2026-04-21T15:06:47Z</time></trkpt><trkpt lat="45.550033301800504" lon="10.383768194627656"><ele>197.0</ele><time>2026-04-21T15:06:49Z</time></trkpt><trkpt lat="45.54995033242126" lon="10.38374655295442"><ele>196.83333333333334</ele><time>2026-04-21T15:06:52Z</time></trkpt><trkpt lat="45.549869633540595" lon="10.38372008424045"><ele>196.66666666666669</ele><time>2026-04-21T15:06:55Z</time></trkpt><trkpt lat="45.549796242371634" lon="10.383699252226407"><ele>196.5</ele><time>2026-04-21T15:06:58Z</time></trkpt><trkpt lat="45.549705421722294" lon="10.383686563393566"><ele>196.33333333333331</ele><time>2026-04-21T15:07:01Z</time></trkpt><trkpt lat="45.549628283135156" lon="10.383695759633353"><ele>196.16666666666666</ele><time>2026-04-21T15:07:05Z</time></trkpt><trkpt lat="45.549554882034606" lon="10.383713114444081"><ele>196.0</ele><time>2026-04-21T15:07:08Z</time></trkpt><trkpt lat="45.54949176513272" lon="10.383645570541038"><ele>196.0</ele><time>2026-04-21T15:07:12Z</time></trkpt><trkpt lat="45.54943758005111" lon="10.383563339092184"><ele>196.0</ele><time>2026-04-21T15:07:16Z</time></trkpt><trkpt lat="45.549388953769" lon="10.383496131996926"><ele>196.0</ele><time>2026-04-21T15:07:19Z</time></trkpt><trkpt lat="45.54938914877105" lon="10.383397793231703"><ele>196.0</ele><time>2026-04-21T15:07:22Z</time></trkpt><trkpt lat="45.54942739679623" lon="10.383317374737505"><ele>196.0</ele><time>2026-04-21T15:07:25Z</time></trkpt><trkpt lat="45.549486348779396" lon="10.383265444913825"><ele>196.0</ele><time>2026-04-21T15:07:29Z</time></trkpt><trkpt lat="45.54955023425497" lon="10.383218499911713"><ele>196.0</ele><time>2026-04-21T15:07:33Z</time></trkpt><trkpt lat="45.54960696864926" lon="10.383170169585151"><ele>197.14285714285714</ele><time>2026-04-21T15:07:40Z</time></trkpt><trkpt lat="45.549664822054986" lon="10.383112333930143"><ele>198.28571428571428</ele><time>2026-04-21T15:07:44Z</time></trkpt><trkpt lat="45.5497248043896" lon="10.383084394695423"><ele>199.42857142857144</ele><time>2026-04-21T15:07:47Z</time></trkpt><trkpt lat="45.5497861830529" lon="10.383025004395485"><ele>200.57142857142856</ele><time>2026-04-21T15:07:51Z</time></trkpt><trkpt lat="45.54984415921998" lon="10.38295844222689"><ele>201.71428571428572</ele><time>2026-04-21T15:07:55Z</time></trkpt><trkpt lat="45.5499122405047" lon="10.382914183352899"><ele>202.85714285714286</ele><time>2026-04-21T15:07:59Z</time></trkpt><trkpt lat="45.549968577730716" lon="10.38285107955914"><ele>204.0</ele><time>2026-04-21T15:08:03Z</time></trkpt><trkpt lat="45.55001651863735" lon="10.382788538667675"><ele>204.0</ele><time>2026-04-21T15:08:07Z</time></trkpt><trkpt lat="45.55006068131157" lon="10.382713910826123"><ele>204.0</ele><time>2026-04-21T15:08:11Z</time></trkpt><trkpt lat="45.55010897508255" lon="10.38261405530374"><ele>204.0</ele><time>2026-04-21T15:08:15Z</time></trkpt><trkpt lat="45.550151196888834" lon="10.382515631602176"><ele>204.0</ele><time>2026-04-21T15:08:19Z</time></trkpt><trkpt lat="45.55018737315779" lon="10.382422999608"><ele>204.0</ele><time>2026-04-21T15:08:23Z</time></trkpt><trkpt lat="45.55022235878457" lon="10.382315160597567"><ele>204.0</ele><time>2026-04-21T15:08:27Z</time></trkpt><trkpt lat="45.55026089851353" lon="10.382209394699716"><ele>203.14285714285714</ele><time>2026-04-21T15:08:31Z</time></trkpt><trkpt lat="45.550291812063314" lon="10.382104247059926"><ele>202.28571428571428</ele><time>2026-04-21T15:08:35Z</time></trkpt><trkpt lat="45.55031641156772" lon="10.382018523111771"><ele>201.42857142857144</ele><time>2026-04-21T15:08:38Z</time></trkpt><trkpt lat="45.550348273232665" lon="10.381912080943701"><ele>200.57142857142856</ele><time>2026-04-21T15:08:42Z</time></trkpt><trkpt lat="45.550362134471015" lon="10.381820796158287"><ele>199.7142857142857</ele><time>2026-04-21T15:08:45Z</time></trkpt><trkpt lat="45.55038675049685" lon="10.381710376202491"><ele>198.85714285714286</ele><time>2026-04-21T15:08:49Z</time></trkpt><trkpt lat="45.55044714357521" lon="10.381666278233018"><ele>198.0</ele><time>2026-04-21T15:08:53Z</time></trkpt><trkpt lat="45.55049513040289" lon="10.381730944336391"><ele>198.85714285714286</ele><time>2026-04-21T15:08:59Z</time></trkpt><trkpt lat="45.550483496980526" lon="10.381841115427173"><ele>199.7142857142857</ele><time>2026-04-21T15:09:03Z</time></trkpt><trkpt lat="45.55044978322035" lon="10.381924673834526"><ele>200.57142857142856</ele><time>2026-04-21T15:09:06Z</time></trkpt><trkpt lat="45.550436889945" lon="10.382027428357336"><ele>201.42857142857144</ele><time>2026-04-21T15:09:09Z</time></trkpt><trkpt lat="45.55041767443003" lon="10.382118015319396"><ele>202.28571428571428</ele><time>2026-04-21T15:09:11Z</time></trkpt><trkpt lat="45.55039067034761" lon="10.38222465184406"><ele>203.14285714285714</ele><time>2026-04-21T15:09:14Z</time></trkpt><trkpt lat="45.55037079670529" lon="10.382320864575032"><ele>204.0</ele><time>2026-04-21T15:09:17Z</time></trkpt><trkpt lat="45.550363868155294" lon="10.382427160541113"><ele>204.0</ele><time>2026-04-21T15:09:20Z</time></trkpt><trkpt lat="45.55037276153047" lon="10.382541243158492"><ele>204.0</ele><time>2026-04-21T15:09:24Z</time></trkpt><trkpt lat="45.55039735709547" lon="10.382662806348426"><ele>204.0</ele><time>2026-04-21T15:09:27Z</time></trkpt><trkpt lat="45.550446559879575" lon="10.382749667053874"><ele>204.0</ele><time>2026-04-21T15:09:30Z</time></trkpt><trkpt lat="45.55051419794937" lon="10.382818367582962"><ele>204.0</ele><time>2026-04-21T15:09:33Z</time></trkpt><trkpt lat="45.55058819726546" lon="10.382859408539403"><ele>204.0</ele><time>2026-04-21T15:09:36Z</time></trkpt><trkpt lat="45.55066273843038" lon="10.382876020390048"><ele>205.71428571428572</ele><time>2026-04-21T15:09:39Z</time></trkpt><trkpt lat="45.55073371433221" lon="10.382899127189"><ele>207.42857142857144</ele><time>2026-04-21T15:09:42Z</time></trkpt><trkpt lat="45.55080759265574" lon="10.382922492891307"><ele>209.14285714285714</ele><time>2026-04-21T15:09:45Z</time></trkpt><trkpt lat="45.55089168161113" lon="10.382952216095223"><ele>210.85714285714286</ele><time>2026-04-21T15:09:49Z</time></trkpt><trkpt lat="45.550960284377524" lon="10.382981760796264"><ele>212.57142857142856</ele><time>2026-04-21T15:09:52Z</time></trkpt><trkpt lat="45.55103078401182" lon="10.382984601045763"><ele>214.28571428571428</ele><time>2026-04-21T15:09:55Z</time></trkpt><trkpt lat="45.55110089953516" lon="10.38300322787652"><ele>216.0</ele><time>2026-04-21T15:09:58Z</time></trkpt><trkpt lat="45.551175174195116" lon="10.383023532821975"><ele>218.71428571428572</ele><time>2026-04-21T15:10:01Z</time></trkpt><trkpt lat="45.55124594890295" lon="10.383066027373093"><ele>221.42857142857142</ele><time>2026-04-21T15:10:04Z</time></trkpt><trkpt lat="45.55130705570767" lon="10.38309299399324"><ele>224.14285714285714</ele><time>2026-04-21T15:10:07Z</time></trkpt><trkpt lat="45.55138530883176" lon="10.383146433278068"><ele>226.85714285714283</ele><time>2026-04-21T15:10:11Z</time></trkpt><trkpt lat="45.55144642160645" lon="10.38320128797859"><ele>229.57142857142856</ele><time>2026-04-21T15:10:14Z</time></trkpt><trkpt lat="45.551498399022655" lon="10.38326641323261"><ele>232.28571428571428</ele><time>2026-04-21T15:10:18Z</time></trkpt><trkpt lat="45.55147515579669" lon="10.383156338706497"><ele>235.0</ele><time>2026-04-21T15:10:51Z</time></trkpt><trkpt lat="45.551419926155994" lon="10.383098087313574"><ele>234.99999999999997</ele><time>2026-04-21T15:10:54Z</time></trkpt><trkpt lat="45.55135518274239" lon="10.383063355378635"><ele>235.0</ele><time>2026-04-21T15:11:17Z</time></trkpt><trkpt lat="45.55126707193202" lon="10.383021465826461"><ele>235.0</ele><time>2026-04-21T15:11:20Z</time></trkpt><trkpt lat="45.551184980992424" lon="10.382974945662308"><ele>235.0</ele><time>2026-04-21T15:11:22Z</time></trkpt><trkpt lat="45.551076624749015" lon="10.38293756543204"><ele>234.99999999999997</ele><time>2026-04-21T15:11:24Z</time></trkpt><trkpt lat="45.55101376426101" lon="10.382928361367577"><ele>235.0</ele><time>2026-04-21T15:11:25Z</time></trkpt><trkpt lat="45.55094264489564" lon="10.38291034387959"><ele>234.49999999999997</ele><time>2026-04-21T15:11:26Z</time></trkpt><trkpt lat="45.55086941692143" lon="10.382895121245372"><ele>234.0</ele><time>2026-04-21T15:11:27Z</time></trkpt><trkpt lat="45.55078904316206" lon="10.382872770785932"><ele>233.5</ele><time>2026-04-21T15:11:28Z</time></trkpt><trkpt lat="45.55071125133279" lon="10.38284635873619"><ele>233.0</ele><time>2026-04-21T15:11:29Z</time></trkpt><trkpt lat="45.55062614840235" lon="10.38281291560204"><ele>232.49999999999997</ele><time>2026-04-21T15:11:30Z</time></trkpt><trkpt lat="45.55054208291869" lon="10.382774351844835"><ele>232.0</ele><time>2026-04-21T15:11:31Z</time></trkpt><trkpt lat="45.55047979153632" lon="10.382718920063391"><ele>231.99999999999997</ele><time>2026-04-21T15:11:32Z</time></trkpt><trkpt lat="45.55043222754315" lon="10.382659239196022"><ele>232.0</ele><time>2026-04-21T15:11:33Z</time></trkpt><trkpt lat="45.550389723710026" lon="10.382561344328778"><ele>232.0</ele><time>2026-04-21T15:11:34Z</time></trkpt><trkpt lat="45.55039789340474" lon="10.382441322972541"><ele>232.0</ele><time>2026-04-21T15:11:35Z</time></trkpt><trkpt lat="45.55040847171873" lon="10.382331352312688"><ele>231.99999999999997</ele><time>2026-04-21T15:11:36Z</time></trkpt><trkpt lat="45.55042524767411" lon="10.382216582829038"><ele>232.0</ele><time>2026-04-21T15:11:37Z</time></trkpt><trkpt lat="45.55045995794478" lon="10.382105021210332"><ele>231.8</ele><time>2026-04-21T15:11:38Z</time></trkpt><trkpt lat="45.55048055239076" lon="10.381978772411378"><ele>231.6</ele><time>2026-04-21T15:11:39Z</time></trkpt><trkpt lat="45.550520840830266" lon="10.381863629107837"><ele>231.40000000000003</ele><time>2026-04-21T15:11:40Z</time></trkpt><trkpt lat="45.550546550102226" lon="10.381762452485765"><ele>231.20000000000002</ele><time>2026-04-21T15:11:41Z</time></trkpt><trkpt lat="45.55053303928503" lon="10.381631117533042"><ele>231.0</ele><time>2026-04-21T15:11:43Z</time></trkpt><trkpt lat="45.550440974687824" lon="10.381571891603913"><ele>222.75</ele><time>2026-04-21T15:11:45Z</time></trkpt><trkpt lat="45.550360047453744" lon="10.381656807089263"><ele>214.5</ele><time>2026-04-21T15:11:47Z</time></trkpt><trkpt lat="45.55034015943261" lon="10.381810145446297"><ele>206.25</ele><time>2026-04-21T15:11:49Z</time></trkpt><trkpt lat="45.55030283109428" lon="10.381972662673347"><ele>198.0</ele><time>2026-04-21T15:11:51Z</time></trkpt><trkpt lat="45.55025348264993" lon="10.382139418302494"><ele>199.0</ele><time>2026-04-21T15:11:53Z</time></trkpt><trkpt lat="45.55022557239074" lon="10.382228949455316"><ele>200.0</ele><time>2026-04-21T15:11:54Z</time></trkpt><trkpt lat="45.55019074889309" lon="10.382318063545496"><ele>201.0</ele><time>2026-04-21T15:11:55Z</time></trkpt><trkpt lat="45.550154622850684" lon="10.382410740354967"><ele>202.0</ele><time>2026-04-21T15:11:56Z</time></trkpt><trkpt lat="45.55011681514426" lon="10.382508904337511"><ele>203.0</ele><time>2026-04-21T15:11:57Z</time></trkpt><trkpt lat="45.550072987921794" lon="10.382605282609989"><ele>204.0</ele><time>2026-04-21T15:11:58Z</time></trkpt><trkpt lat="45.55002214138318" lon="10.38270168132601"><ele>204.0</ele><time>2026-04-21T15:11:59Z</time></trkpt><trkpt lat="45.549964277597645" lon="10.382792295578662"><ele>204.0</ele><time>2026-04-21T15:12:00Z</time></trkpt><trkpt lat="45.54989671433993" lon="10.382873803757496"><ele>204.0</ele><time>2026-04-21T15:12:01Z</time></trkpt><trkpt lat="45.54982178267806" lon="10.382950748836658"><ele>204.0</ele><time>2026-04-21T15:12:02Z</time></trkpt><trkpt lat="45.54974741325438" lon="10.38302239635974"><ele>204.0</ele><time>2026-04-21T15:12:03Z</time></trkpt><trkpt lat="45.54966240560723" lon="10.383092612148127"><ele>204.5</ele><time>2026-04-21T15:12:04Z</time></trkpt><trkpt lat="45.549573583804985" lon="10.383157294609267"><ele>205.0</ele><time>2026-04-21T15:12:05Z</time></trkpt><trkpt lat="45.549498433792174" lon="10.38321545760299"><ele>205.5</ele><time>2026-04-21T15:12:06Z</time></trkpt><trkpt lat="45.54944176290802" lon="10.383276350177145"><ele>206.0</ele><time>2026-04-21T15:12:07Z</time></trkpt><trkpt lat="45.549377177813945" lon="10.383332007935692"><ele>206.5</ele><time>2026-04-21T15:12:09Z</time></trkpt><trkpt lat="45.54944253626825" lon="10.383228569984114"><ele>207.0</ele><time>2026-04-21T15:12:20Z</time></trkpt><trkpt lat="45.54951304076714" lon="10.383165534027167"><ele>207.0</ele><time>2026-04-21T15:12:22Z</time></trkpt><trkpt lat="45.54961593389003" lon="10.383089847281159"><ele>207.0</ele><time>2026-04-21T15:12:24Z</time></trkpt><trkpt lat="45.54972328844561" lon="10.382997907894453"><ele>207.0</ele><time>2026-04-21T15:12:26Z</time></trkpt><trkpt lat="45.54967305263873" lon="10.38252787840236"><ele>206.5</ele><time>2026-04-21T15:12:27Z</time></trkpt><trkpt lat="45.54971630301561" lon="10.382416180297838"><ele>206.0</ele><time>2026-04-21T15:12:28Z</time></trkpt><trkpt lat="45.54975133533929" lon="10.38230942255107"><ele>205.5</ele><time>2026-04-21T15:12:29Z</time></trkpt><trkpt lat="45.549783251601916" lon="10.38219881303772"><ele>205.0</ele><time>2026-04-21T15:12:30Z</time></trkpt><trkpt lat="45.549815747512504" lon="10.382089526550523"><ele>204.5</ele><time>2026-04-21T15:12:31Z</time></trkpt><trkpt lat="45.549845380036345" lon="10.381975725285354"><ele>204.0</ele><time>2026-04-21T15:12:32Z</time></trkpt><trkpt lat="45.549871243672115" lon="10.38186727761363"><ele>203.0</ele><time>2026-04-21T15:12:33Z</time></trkpt><trkpt lat="45.54989120143658" lon="10.381753249095784"><ele>202.0</ele><time>2026-04-21T15:12:34Z</time></trkpt><trkpt lat="45.54990034700935" lon="10.381629208619191"><ele>201.0</ele><time>2026-04-21T15:12:35Z</time></trkpt><trkpt lat="45.54991172489641" lon="10.381511771458166"><ele>200.0</ele><time>2026-04-21T15:12:36Z</time></trkpt><trkpt lat="45.54993178197206" lon="10.381394558998547"><ele>199.0</ele><time>2026-04-21T15:12:37Z</time></trkpt><trkpt lat="45.54994663459408" lon="10.381293374914556"><ele>198.0</ele><time>2026-04-21T15:12:38Z</time></trkpt><trkpt lat="45.549974135289574" lon="10.38118473554016"><ele>197.4</ele><time>2026-04-21T15:12:40Z</time></trkpt><trkpt lat="45.549856612221475" lon="10.381086276662355"><ele>196.8</ele><time>2026-04-21T15:12:43Z</time></trkpt><trkpt lat="45.54976422279785" lon="10.381076391691895"><ele>196.2</ele><time>2026-04-21T15:12:45Z</time></trkpt><trkpt lat="45.549669384692415" lon="10.381037139778831"><ele>195.6</ele><time>2026-04-21T15:12:47Z</time></trkpt><trkpt lat="45.549581001188834" lon="10.380978627702499"><ele>195.0</ele><time>2026-04-21T15:12:49Z</time></trkpt><trkpt lat="45.54948918948827" lon="10.38094073433465"><ele>193.83333333333334</ele><time>2026-04-21T15:12:51Z</time></trkpt><trkpt lat="45.54942359586871" lon="10.380988949572302"><ele>192.66666666666666</ele><time>2026-04-21T15:12:53Z</time></trkpt><trkpt lat="45.54935767804218" lon="10.381060128571939"><ele>191.5</ele><time>2026-04-21T15:12:55Z</time></trkpt><trkpt lat="45.54928252699894" lon="10.381113153183968"><ele>190.33333333333331</ele><time>2026-04-21T15:12:57Z</time></trkpt><trkpt lat="45.54920036062568" lon="10.381157633021967"><ele>189.16666666666666</ele><time>2026-04-21T15:12:59Z</time></trkpt><trkpt lat="45.54912060370628" lon="10.381214907353996"><ele>188.0</ele><time>2026-04-21T15:13:01Z</time></trkpt><trkpt lat="45.549043115753626" lon="10.3812821858589"><ele>188.0</ele><time>2026-04-21T15:13:03Z</time></trkpt><trkpt lat="45.54894055873019" lon="10.381330065786171"><ele>188.0</ele><time>2026-04-21T15:13:05Z</time></trkpt><trkpt lat="45.54883836743409" lon="10.381391252248328"><ele>188.0</ele><time>2026-04-21T15:13:07Z</time></trkpt><trkpt lat="45.54874563784414" lon="10.381448258982083"><ele>188.0</ele><time>2026-04-21T15:13:09Z</time></trkpt><trkpt lat="45.54865570200687" lon="10.381533078408832"><ele>188.0</ele><time>2026-04-21T15:13:11Z</time></trkpt><trkpt lat="45.54856786530283" lon="10.381614375339334"><ele>187.60000000000002</ele><time>2026-04-21T15:13:13Z</time></trkpt><trkpt lat="45.54846400082398" lon="10.3816710323318"><ele>187.20000000000002</ele><time>2026-04-21T15:13:15Z</time></trkpt><trkpt lat="45.54836711068042" lon="10.381735857167666"><ele>186.8</ele><time>2026-04-21T15:13:17Z</time></trkpt><trkpt lat="45.5482647717942" lon="10.381692235292132"><ele>186.4</ele><time>2026-04-21T15:13:19Z</time></trkpt><trkpt lat="45.5481676747568" lon="10.381619484868716"><ele>186.0</ele><time>2026-04-21T15:13:21Z</time></trkpt><trkpt lat="45.54807694383602" lon="10.381564893312758"><ele>186.0</ele><time>2026-04-21T15:13:23Z</time></trkpt><trkpt lat="45.54799586487459" lon="10.38156679558588"><ele>186.0</ele><time>2026-04-21T15:13:25Z</time></trkpt><trkpt lat="45.54792578681158" lon="10.381661382385696"><ele>186.0</ele><time>2026-04-21T15:13:27Z</time></trkpt><trkpt lat="45.54783302853994" lon="10.381722539680663"><ele>186.0</ele><time>2026-04-21T15:13:29Z</time></trkpt><trkpt lat="45.54773780982771" lon="10.38181435393782"><ele>186.0</ele><time>2026-04-21T15:13:31Z</time></trkpt><trkpt lat="45.547620738876596" lon="10.381864883425374"><ele>186.0</ele><time>2026-04-21T15:13:33Z</time></trkpt><trkpt lat="45.547561221804855" lon="10.381905711925338"><ele>186.0</ele><time>2026-04-21T15:13:34Z</time></trkpt><trkpt lat="45.547461150559066" lon="10.381992993229757"><ele>186.0</ele><time>2026-04-21T15:13:36Z</time></trkpt><trkpt lat="45.54739763100657" lon="10.382042268249977"><ele>186.0</ele><time>2026-04-21T15:13:37Z</time></trkpt><trkpt lat="45.54733899784538" lon="10.382087230963059"><ele>186.0</ele><time>2026-04-21T15:13:38Z</time></trkpt><trkpt lat="45.54727518705806" lon="10.38213582640497"><ele>186.0</ele><time>2026-04-21T15:13:39Z</time></trkpt><trkpt lat="45.54720171632474" lon="10.382191778429327"><ele>186.0</ele><time>2026-04-21T15:13:41Z</time></trkpt><trkpt lat="45.547105984535634" lon="10.382088863830628"><ele>186.0</ele><time>2026-04-21T15:13:46Z</time></trkpt><trkpt lat="45.54703233027012" lon="10.382011673036486"><ele>186.0</ele><time>2026-04-21T15:13:48Z</time></trkpt><trkpt lat="45.54695112856106" lon="10.381921207100413"><ele>186.0</ele><time>2026-04-21T15:13:50Z</time></trkpt><trkpt lat="45.54686503920606" lon="10.381840839563706"><ele>186.0</ele><time>2026-04-21T15:13:52Z</time></trkpt><trkpt lat="45.546783208366115" lon="10.381755518395265"><ele>185.4</ele><time>2026-04-21T15:13:54Z</time></trkpt><trkpt lat="45.54669221090489" lon="10.381688061859606"><ele>184.8</ele><time>2026-04-21T15:13:56Z</time></trkpt><trkpt lat="45.546609836338426" lon="10.381651626336001"><ele>184.20000000000002</ele><time>2026-04-21T15:13:58Z</time></trkpt><trkpt lat="45.54651255504591" lon="10.381625375718938"><ele>183.60000000000002</ele><time>2026-04-21T15:14:00Z</time></trkpt><trkpt lat="45.54641218469176" lon="10.381607335317337"><ele>183.0</ele><time>2026-04-21T15:14:02Z</time></trkpt><trkpt lat="45.54632072091834" lon="10.381537871921987"><ele>183.0</ele><time>2026-04-21T15:14:04Z</time></trkpt><trkpt lat="45.54623940498878" lon="10.381486534631442"><ele>183.0</ele><time>2026-04-21T15:14:06Z</time></trkpt><trkpt lat="45.54615392004176" lon="10.381447019233567"><ele>183.0</ele><time>2026-04-21T15:14:08Z</time></trkpt><trkpt lat="45.54607918719751" lon="10.381371024062389"><ele>183.0</ele><time>2026-04-21T15:14:10Z</time></trkpt><trkpt lat="45.54599698880872" lon="10.381335862429959"><ele>183.0</ele><time>2026-04-21T15:14:12Z</time></trkpt><trkpt lat="45.54591699406393" lon="10.381278321069644"><ele>183.0</ele><time>2026-04-21T15:14:14Z</time></trkpt><trkpt lat="45.54582872100365" lon="10.38126393650646"><ele>183.2</ele><time>2026-04-21T15:14:16Z</time></trkpt><trkpt lat="45.545744578988064" lon="10.381283887522846"><ele>183.4</ele><time>2026-04-21T15:14:18Z</time></trkpt><trkpt lat="45.54567290460918" lon="10.381314967125922"><ele>183.6</ele><time>2026-04-21T15:14:20Z</time></trkpt><trkpt lat="45.54556809451736" lon="10.381344440643396"><ele>183.79999999999998</ele><time>2026-04-21T15:14:22Z</time></trkpt><trkpt lat="45.54546973970304" lon="10.381338636955856"><ele>184.0</ele><time>2026-04-21T15:14:24Z</time></trkpt><trkpt lat="45.54536778898836" lon="10.38129495278399"><ele>183.25</ele><time>2026-04-21T15:14:26Z</time></trkpt><trkpt lat="45.545265403464434" lon="10.38121013101252"><ele>182.5</ele><time>2026-04-21T15:14:28Z</time></trkpt><trkpt lat="45.54514795641145" lon="10.381169281425187"><ele>181.75</ele><time>2026-04-21T15:14:30Z</time></trkpt><trkpt lat="45.545049288530265" lon="10.38109206024357"><ele>181.0</ele><time>2026-04-21T15:14:32Z</time></trkpt><trkpt lat="45.544957016972816" lon="10.381044473432064"><ele>181.0</ele><time>2026-04-21T15:14:34Z</time></trkpt><trkpt lat="45.54487487759059" lon="10.381171913803218"><ele>181.0</ele><time>2026-04-21T15:14:36Z</time></trkpt><trkpt lat="45.54481452310229" lon="10.381297167585194"><ele>181.0</ele><time>2026-04-21T15:14:38Z</time></trkpt><trkpt lat="45.544736632032205" lon="10.381425601976662"><ele>181.0</ele><time>2026-04-21T15:14:40Z</time></trkpt><trkpt lat="45.54464880610609" lon="10.381540586421758"><ele>180.20000000000002</ele><time>2026-04-21T15:14:42Z</time></trkpt><trkpt lat="45.544555195306444" lon="10.381663248660725"><ele>179.4</ele><time>2026-04-21T15:14:44Z</time></trkpt><trkpt lat="45.54450705921858" lon="10.381726652941724"><ele>178.6</ele><time>2026-04-21T15:14:45Z</time></trkpt><trkpt lat="45.54446267058913" lon="10.381800106170356"><ele>177.8</ele><time>2026-04-21T15:14:46Z</time></trkpt><trkpt lat="45.54440569469793" lon="10.381863827859041"><ele>177.0</ele><time>2026-04-21T15:14:47Z</time></trkpt><trkpt lat="45.54430111304401" lon="10.381965844445569"><ele>176.6</ele><time>2026-04-21T15:14:49Z</time></trkpt><trkpt lat="45.54425310032261" lon="10.382032117755191"><ele>176.2</ele><time>2026-04-21T15:14:50Z</time></trkpt><trkpt lat="45.54420701094781" lon="10.382094377163138"><ele>175.8</ele><time>2026-04-21T15:14:51Z</time></trkpt><trkpt lat="45.54409891160794" lon="10.382205111446913"><ele>175.4</ele><time>2026-04-21T15:14:53Z</time></trkpt><trkpt lat="45.54401632514578" lon="10.382325736766942"><ele>175.0</ele><time>2026-04-21T15:14:55Z</time></trkpt><trkpt lat="45.543934591949935" lon="10.382435722107127"><ele>175.0</ele><time>2026-04-21T15:14:57Z</time></trkpt><trkpt lat="45.543850845184146" lon="10.382541117747046"><ele>175.0</ele><time>2026-04-21T15:14:59Z</time></trkpt><trkpt lat="45.54376963570574" lon="10.382633394763552"><ele>175.0</ele><time>2026-04-21T15:15:01Z</time></trkpt><trkpt lat="45.54369905174996" lon="10.382729753357397"><ele>175.0</ele><time>2026-04-21T15:15:03Z</time></trkpt><trkpt lat="45.54361852992756" lon="10.382820912898682"><ele>175.0</ele><time>2026-04-21T15:15:05Z</time></trkpt><trkpt lat="45.543542612352184" lon="10.382912252724381"><ele>174.83333333333334</ele><time>2026-04-21T15:15:07Z</time></trkpt><trkpt lat="45.543504506315664" lon="10.382998739125963"><ele>174.66666666666669</ele><time>2026-04-21T15:15:09Z</time></trkpt><trkpt lat="45.54349211539387" lon="10.383108715807161"><ele>174.5</ele><time>2026-04-21T15:15:11Z</time></trkpt><trkpt lat="45.54354086108595" lon="10.383165630775522"><ele>174.33333333333334</ele><time>2026-04-21T15:15:12Z</time></trkpt><trkpt lat="45.5436021320371" lon="10.3832711340129"><ele>174.16666666666666</ele><time>2026-04-21T15:15:14Z</time></trkpt><trkpt lat="45.543669825492856" lon="10.383386258125809"><ele>174.0</ele><time>2026-04-21T15:15:16Z</time></trkpt><trkpt lat="45.54373938628799" lon="10.383476494192664"><ele>174.39999999999998</ele><time>2026-04-21T15:15:18Z</time></trkpt><trkpt lat="45.54380409963171" lon="10.383580904540421"><ele>174.8</ele><time>2026-04-21T15:15:20Z</time></trkpt><trkpt lat="45.54387995132127" lon="10.383681743374623"><ele>175.2</ele><time>2026-04-21T15:15:22Z</time></trkpt><trkpt lat="45.54395974139428" lon="10.383782101161735"><ele>175.60000000000002</ele><time>2026-04-21T15:15:24Z</time></trkpt><trkpt lat="45.544048023375765" lon="10.383887171648672"><ele>176.0</ele><time>2026-04-21T15:15:26Z</time></trkpt><trkpt lat="45.544142804016275" lon="10.383961994840636"><ele>176.0</ele><time>2026-04-21T15:15:28Z</time></trkpt><trkpt lat="45.54422606269193" lon="10.384042285407848"><ele>176.0</ele><time>2026-04-21T15:15:30Z</time></trkpt><trkpt lat="45.5442761344039" lon="10.384107684230445"><ele>176.0</ele><time>2026-04-21T15:15:31Z</time></trkpt><trkpt lat="45.54436894687652" lon="10.384179795371043"><ele>176.0</ele><time>2026-04-21T15:15:33Z</time></trkpt><trkpt lat="45.54444467740805" lon="10.384252221919974"><ele>176.0</ele><time>2026-04-21T15:15:35Z</time></trkpt><trkpt lat="45.54451797994188" lon="10.384330306955732"><ele>176.16666666666666</ele><time>2026-04-21T15:15:37Z</time></trkpt><trkpt lat="45.54458568857729" lon="10.384404775380261"><ele>176.33333333333331</ele><time>2026-04-21T15:15:39Z</time></trkpt><trkpt lat="45.544648808457396" lon="10.384478724555667"><ele>176.5</ele><time>2026-04-21T15:15:41Z</time></trkpt><trkpt lat="45.54470211376568" lon="10.384548452978406"><ele>176.66666666666666</ele><time>2026-04-21T15:15:44Z</time></trkpt><trkpt lat="45.54469402570354" lon="10.384670757930538"><ele>176.83333333333334</ele><time>2026-04-21T15:15:58Z</time></trkpt><trkpt lat="45.54473587440569" lon="10.384773130302301"><ele>177.0</ele><time>2026-04-21T15:16:00Z</time></trkpt><trkpt lat="45.54480673096546" lon="10.384814775468627"><ele>177.0</ele><time>2026-04-21T15:16:02Z</time></trkpt><trkpt lat="45.544891524381285" lon="10.384827928602277"><ele>177.0</ele><time>2026-04-21T15:16:04Z</time></trkpt><trkpt lat="45.5449817599647" lon="10.384827772112338"><ele>177.0</ele><time>2026-04-21T15:16:06Z</time></trkpt><trkpt lat="45.54507762899696" lon="10.384805984277879"><ele>177.0</ele><time>2026-04-21T15:16:08Z</time></trkpt><trkpt lat="45.545158862602214" lon="10.384848243488142"><ele>177.0</ele><time>2026-04-21T15:16:10Z</time></trkpt><trkpt lat="45.545231804034" lon="10.384926315665197"><ele>177.0</ele><time>2026-04-21T15:16:12Z</time></trkpt><trkpt lat="45.545301321772584" lon="10.384998275658704"><ele>177.0</ele><time>2026-04-21T15:16:14Z</time></trkpt><trkpt lat="45.54537052929049" lon="10.38508553388894"><ele>177.0</ele><time>2026-04-21T15:16:16Z</time></trkpt><trkpt lat="45.54543792103018" lon="10.385181734816769"><ele>177.0</ele><time>2026-04-21T15:16:18Z</time></trkpt><trkpt lat="45.545496197318634" lon="10.385277737743328"><ele>177.0</ele><time>2026-04-21T15:16:20Z</time></trkpt><trkpt lat="45.54555138112059" lon="10.385372172982928"><ele>177.0</ele><time>2026-04-21T15:16:22Z</time></trkpt><trkpt lat="45.545610600810896" lon="10.385473678675268"><ele>177.2857142857143</ele><time>2026-04-21T15:16:24Z</time></trkpt><trkpt lat="45.54565256742646" lon="10.385549100088319"><ele>177.57142857142856</ele><time>2026-04-21T15:16:26Z</time></trkpt><trkpt lat="45.54570897488008" lon="10.3856254017983"><ele>177.85714285714286</ele><time>2026-04-21T15:16:29Z</time></trkpt><trkpt lat="45.545761044157146" lon="10.385712189554452"><ele>178.14285714285717</ele><time>2026-04-21T15:16:31Z</time></trkpt><trkpt lat="45.54578338683258" lon="10.385808579096171"><ele>178.42857142857144</ele><time>2026-04-21T15:16:33Z</time></trkpt><trkpt lat="45.54577604988219" lon="10.385903334233024"><ele>178.71428571428572</ele><time>2026-04-21T15:16:35Z</time></trkpt><trkpt lat="45.54573967916114" lon="10.385988332814458"><ele>179.0</ele><time>2026-04-21T15:16:37Z</time></trkpt><trkpt lat="45.54568668061998" lon="10.386065630583316"><ele>179.0</ele><time>2026-04-21T15:16:39Z</time></trkpt><trkpt lat="45.545616840303275" lon="10.386156392752122"><ele>179.0</ele><time>2026-04-21T15:16:41Z</time></trkpt><trkpt lat="45.545553507042406" lon="10.386238538686309"><ele>179.0</ele><time>2026-04-21T15:16:43Z</time></trkpt><trkpt lat="45.54550110325427" lon="10.386338460169913"><ele>179.0</ele><time>2026-04-21T15:16:46Z</time></trkpt><trkpt lat="45.54546158004705" lon="10.386430496165843"><ele>179.0</ele><time>2026-04-21T15:16:48Z</time></trkpt><trkpt lat="45.5454590034655" lon="10.386539776255372"><ele>179.0</ele><time>2026-04-21T15:16:50Z</time></trkpt><trkpt lat="45.54550303899569" lon="10.3866434584334"><ele>178.79999999999998</ele><time>2026-04-21T15:16:52Z</time></trkpt><trkpt lat="45.54556574100243" lon="10.386728162167199"><ele>178.6</ele><time>2026-04-21T15:16:54Z</time></trkpt><trkpt lat="45.54563862169132" lon="10.386816360268188"><ele>178.4</ele><time>2026-04-21T15:16:56Z</time></trkpt><trkpt lat="45.545709056466215" lon="10.386910139769931"><ele>178.2</ele><time>2026-04-21T15:16:58Z</time></trkpt><trkpt lat="45.54578243565399" lon="10.387002539551615"><ele>178.0</ele><time>2026-04-21T15:17:00Z</time></trkpt><trkpt lat="45.545860675783175" lon="10.387092115581856"><ele>178.0</ele><time>2026-04-21T15:17:02Z</time></trkpt><trkpt lat="45.54594265527803" lon="10.38717550925325"><ele>178.0</ele><time>2026-04-21T15:17:04Z</time></trkpt><trkpt lat="45.546020048487385" lon="10.38726501732396"><ele>178.0</ele><time>2026-04-21T15:17:06Z</time></trkpt><trkpt lat="45.54609794087404" lon="10.387366121085408"><ele>178.0</ele><time>2026-04-21T15:17:08Z</time></trkpt><trkpt lat="45.54617390715938" lon="10.38744936951134"><ele>178.0</ele><time>2026-04-21T15:17:10Z</time></trkpt><trkpt lat="45.54624840579234" lon="10.387537950519162"><ele>178.4</ele><time>2026-04-21T15:17:12Z</time></trkpt><trkpt lat="45.54632638557793" lon="10.38763123945458"><ele>178.8</ele><time>2026-04-21T15:17:14Z</time></trkpt><trkpt lat="45.546405290258484" lon="10.387719865482925"><ele>179.2</ele><time>2026-04-21T15:17:16Z</time></trkpt><trkpt lat="45.54647481847689" lon="10.387800602715144"><ele>179.6</ele><time>2026-04-21T15:17:18Z</time></trkpt><trkpt lat="45.54654382353379" lon="10.387878346506968"><ele>180.0</ele><time>2026-04-21T15:17:20Z</time></trkpt><trkpt lat="45.54662241825234" lon="10.387966911870928"><ele>179.6</ele><time>2026-04-21T15:17:22Z</time></trkpt><trkpt lat="45.54671024143592" lon="10.388061639815842"><ele>179.2</ele><time>2026-04-21T15:17:24Z</time></trkpt><trkpt lat="45.5467878356008" lon="10.38815937365993"><ele>178.8</ele><time>2026-04-21T15:17:26Z</time></trkpt><trkpt lat="45.546858394094244" lon="10.388254093352398"><ele>178.4</ele><time>2026-04-21T15:17:28Z</time></trkpt><trkpt lat="45.54684679128144" lon="10.388345763127619"><ele>178.0</ele><time>2026-04-21T15:17:33Z</time></trkpt><trkpt lat="45.546863330224234" lon="10.388468621431516"><ele>178.0</ele><time>2026-04-21T15:17:36Z</time></trkpt><trkpt lat="45.54691915619799" lon="10.388558796951473"><ele>178.0</ele><time>2026-04-21T15:17:38Z</time></trkpt><trkpt lat="45.54700091455684" lon="10.388618169445"><ele>178.0</ele><time>2026-04-21T15:17:40Z</time></trkpt><trkpt lat="45.54705861227971" lon="10.388721628636375"><ele>178.0</ele><time>2026-04-21T15:17:42Z</time></trkpt><trkpt lat="45.547103927490305" lon="10.388811517962663"><ele>178.0</ele><time>2026-04-21T15:17:44Z</time></trkpt><trkpt lat="45.54716474598913" lon="10.388926760038114"><ele>178.0</ele><time>2026-04-21T15:17:46Z</time></trkpt><trkpt lat="45.54722044625025" lon="10.389046224292695"><ele>178.2</ele><time>2026-04-21T15:17:48Z</time></trkpt><trkpt lat="45.547279010615966" lon="10.389163865476236"><ele>178.4</ele><time>2026-04-21T15:17:50Z</time></trkpt><trkpt lat="45.547336657844234" lon="10.389279468116609"><ele>178.6</ele><time>2026-04-21T15:17:52Z</time></trkpt><trkpt lat="45.54740543182725" lon="10.389419242694048"><ele>178.79999999999998</ele><time>2026-04-21T15:17:54Z</time></trkpt><trkpt lat="45.547474876182974" lon="10.389550199687639"><ele>179.0</ele><time>2026-04-21T15:17:56Z</time></trkpt><trkpt lat="45.547540489151125" lon="10.389681224171031"><ele>179.0</ele><time>2026-04-21T15:17:58Z</time></trkpt><trkpt lat="45.54760539975563" lon="10.389812682177944"><ele>179.0</ele><time>2026-04-21T15:18:00Z</time></trkpt><trkpt lat="45.547673210837566" lon="10.389940934083375"><ele>179.0</ele><time>2026-04-21T15:18:02Z</time></trkpt><trkpt lat="45.54773109605332" lon="10.39006659890916"><ele>179.0</ele><time>2026-04-21T15:18:04Z</time></trkpt><trkpt lat="45.547788090015366" lon="10.390184517268114"><ele>179.0</ele><time>2026-04-21T15:18:06Z</time></trkpt><trkpt lat="45.54784391044296" lon="10.390300336349965"><ele>179.0</ele><time>2026-04-21T15:18:08Z</time></trkpt><trkpt lat="45.54790346808545" lon="10.39040406908502"><ele>179.0</ele><time>2026-04-21T15:18:10Z</time></trkpt><trkpt lat="45.547961412493066" lon="10.390527963017101"><ele>179.0</ele><time>2026-04-21T15:18:12Z</time></trkpt><trkpt lat="45.54801917116806" lon="10.390643567554527"><ele>179.0</ele><time>2026-04-21T15:18:14Z</time></trkpt><trkpt lat="45.54807818299559" lon="10.390756031474158"><ele>179.0</ele><time>2026-04-21T15:18:16Z</time></trkpt><trkpt lat="45.54813191496616" lon="10.39086137885299"><ele>178.79999999999998</ele><time>2026-04-21T15:18:18Z</time></trkpt><trkpt lat="45.5481836317734" lon="10.390964139335637"><ele>178.6</ele><time>2026-04-21T15:18:20Z</time></trkpt><trkpt lat="45.54823485424567" lon="10.39107423841661"><ele>178.4</ele><time>2026-04-21T15:18:22Z</time></trkpt><trkpt lat="45.54829411053878" lon="10.391182710819614"><ele>178.2</ele><time>2026-04-21T15:18:24Z</time></trkpt><trkpt lat="45.548352914710975" lon="10.391303054805913"><ele>178.0</ele><time>2026-04-21T15:18:26Z</time></trkpt><trkpt lat="45.548414786769335" lon="10.391422837510781"><ele>177.8</ele><time>2026-04-21T15:18:28Z</time></trkpt><trkpt lat="45.548471887021556" lon="10.391544199737583"><ele>177.60000000000002</ele><time>2026-04-21T15:18:30Z</time></trkpt><trkpt lat="45.548534733100844" lon="10.391678750050302"><ele>177.39999999999998</ele><time>2026-04-21T15:18:32Z</time></trkpt><trkpt lat="45.54860547556823" lon="10.391813588759275"><ele>177.2</ele><time>2026-04-21T15:18:34Z</time></trkpt><trkpt lat="45.54867035801037" lon="10.391936002601062"><ele>177.0</ele><time>2026-04-21T15:18:36Z</time></trkpt><trkpt lat="45.54872825162723" lon="10.392065391474878"><ele>177.0</ele><time>2026-04-21T15:18:38Z</time></trkpt><trkpt lat="45.54878751547428" lon="10.392178978412288"><ele>177.0</ele><time>2026-04-21T15:18:40Z</time></trkpt><trkpt lat="45.54884638650864" lon="10.392290355317906"><ele>177.0</ele><time>2026-04-21T15:18:42Z</time></trkpt><trkpt lat="45.54889960469582" lon="10.392408462580349"><ele>177.0</ele><time>2026-04-21T15:18:44Z</time></trkpt><trkpt lat="45.54894974763418" lon="10.392503786121784"><ele>177.0</ele><time>2026-04-21T15:18:46Z</time></trkpt><trkpt lat="45.54899886548461" lon="10.392598724567492"><ele>177.0</ele><time>2026-04-21T15:18:48Z</time></trkpt><trkpt lat="45.549043295607305" lon="10.392705810612142"><ele>177.0</ele><time>2026-04-21T15:18:50Z</time></trkpt><trkpt lat="45.54905392073126" lon="10.392849179174807"><ele>177.0</ele><time>2026-04-21T15:18:52Z</time></trkpt><trkpt lat="45.54912929057319" lon="10.392931613391132"><ele>177.0</ele><time>2026-04-21T15:18:54Z</time></trkpt><trkpt lat="45.54922590830278" lon="10.392896665365344"><ele>177.0</ele><time>2026-04-21T15:18:56Z</time></trkpt><trkpt lat="45.549286501374034" lon="10.3927551582937"><ele>177.0</ele><time>2026-04-21T15:18:58Z</time></trkpt><trkpt lat="45.549356057197485" lon="10.392618065234448"><ele>177.0</ele><time>2026-04-21T15:19:00Z</time></trkpt><trkpt lat="45.54940701160795" lon="10.392562229035349"><ele>177.0</ele><time>2026-04-21T15:19:01Z</time></trkpt><trkpt lat="45.54950173339084" lon="10.392458443578555"><ele>177.0</ele><time>2026-04-21T15:19:03Z</time></trkpt><trkpt lat="45.5495530516197" lon="10.392405872431116"><ele>177.0</ele><time>2026-04-21T15:19:04Z</time></trkpt><trkpt lat="45.5496031679063" lon="10.392351114565725"><ele>177.0</ele><time>2026-04-21T15:19:05Z</time></trkpt><trkpt lat="45.54965792200408" lon="10.392301359185874"><ele>177.0</ele><time>2026-04-21T15:19:06Z</time></trkpt><trkpt lat="45.54971203859667" lon="10.392253393097713"><ele>177.0</ele><time>2026-04-21T15:19:07Z</time></trkpt><trkpt lat="45.54976684112657" lon="10.392208428587676"><ele>177.0</ele><time>2026-04-21T15:19:08Z</time></trkpt><trkpt lat="45.549823462740676" lon="10.392166478302563"><ele>177.0</ele><time>2026-04-21T15:19:09Z</time></trkpt><trkpt lat="45.549882608698404" lon="10.392122909140973"><ele>177.0</ele><time>2026-04-21T15:19:10Z</time></trkpt><trkpt lat="45.549944035349945" lon="10.39208337105373"><ele>177.0</ele><time>2026-04-21T15:19:11Z</time></trkpt><trkpt lat="45.550005923149236" lon="10.392048847237154"><ele>177.0</ele><time>2026-04-21T15:19:12Z</time></trkpt><trkpt lat="45.55006738492127" lon="10.3920121040802"><ele>177.14285714285714</ele><time>2026-04-21T15:19:13Z</time></trkpt><trkpt lat="45.55013200609605" lon="10.391975271000922"><ele>177.28571428571428</ele><time>2026-04-21T15:19:14Z</time></trkpt><trkpt lat="45.550195648073704" lon="10.391942581025"><ele>177.42857142857142</ele><time>2026-04-21T15:19:15Z</time></trkpt><trkpt lat="45.55025998233835" lon="10.391907449662835"><ele>177.57142857142856</ele><time>2026-04-21T15:19:16Z</time></trkpt><trkpt lat="45.55032457846557" lon="10.391874622765851"><ele>177.71428571428572</ele><time>2026-04-21T15:19:17Z</time></trkpt><trkpt lat="45.55039184624417" lon="10.39184455519728"><ele>177.85714285714283</ele><time>2026-04-21T15:19:18Z</time></trkpt><trkpt lat="45.55045876351862" lon="10.391810222860089"><ele>178.0</ele><time>2026-04-21T15:19:19Z</time></trkpt><trkpt lat="45.550528687830536" lon="10.391774017256587"><ele>178.0</ele><time>2026-04-21T15:19:20Z</time></trkpt><trkpt lat="45.55059917219263" lon="10.391741462634386"><ele>178.0</ele><time>2026-04-21T15:19:21Z</time></trkpt><trkpt lat="45.550673017063325" lon="10.391705225125252"><ele>178.0</ele><time>2026-04-21T15:19:22Z</time></trkpt><trkpt lat="45.55074688747426" lon="10.391666284444536"><ele>178.0</ele><time>2026-04-21T15:19:23Z</time></trkpt><trkpt lat="45.55082124005456" lon="10.391627316400903"><ele>178.0</ele><time>2026-04-21T15:19:24Z</time></trkpt><trkpt lat="45.55089713723178" lon="10.391595157031505"><ele>178.0</ele><time>2026-04-21T15:19:25Z</time></trkpt><trkpt lat="45.55097092817673" lon="10.391559851878474"><ele>178.0</ele><time>2026-04-21T15:19:26Z</time></trkpt><trkpt lat="45.55104458150797" lon="10.391524219584664"><ele>178.0</ele><time>2026-04-21T15:19:27Z</time></trkpt><trkpt lat="45.55111817106098" lon="10.391490257610489"><ele>178.0</ele><time>2026-04-21T15:19:28Z</time></trkpt><trkpt lat="45.55119357343057" lon="10.391451552663169"><ele>178.0</ele><time>2026-04-21T15:19:29Z</time></trkpt><trkpt lat="45.55126773343828" lon="10.391417930076011"><ele>178.0</ele><time>2026-04-21T15:19:30Z</time></trkpt><trkpt lat="45.5513435966087" lon="10.391381197631276"><ele>178.0</ele><time>2026-04-21T15:19:31Z</time></trkpt><trkpt lat="45.55141972892288" lon="10.39134585755889"><ele>177.83333333333334</ele><time>2026-04-21T15:19:32Z</time></trkpt><trkpt lat="45.551494733516165" lon="10.391307117835368"><ele>177.66666666666669</ele><time>2026-04-21T15:19:33Z</time></trkpt><trkpt lat="45.55157377212446" lon="10.391271338145684"><ele>177.5</ele><time>2026-04-21T15:19:34Z</time></trkpt><trkpt lat="45.55165117212241" lon="10.391232460529825"><ele>177.33333333333334</ele><time>2026-04-21T15:19:35Z</time></trkpt><trkpt lat="45.55173090417515" lon="10.39118973576736"><ele>177.16666666666666</ele><time>2026-04-21T15:19:36Z</time></trkpt><trkpt lat="45.55181294157281" lon="10.391155252629435"><ele>177.0</ele><time>2026-04-21T15:19:37Z</time></trkpt><trkpt lat="45.55189404269603" lon="10.391115276886396"><ele>177.0</ele><time>2026-04-21T15:19:38Z</time></trkpt><trkpt lat="45.5519772805903" lon="10.391078378713077"><ele>177.0</ele><time>2026-04-21T15:19:39Z</time></trkpt><trkpt lat="45.552062190700234" lon="10.391037022700324"><ele>177.0</ele><time>2026-04-21T15:19:40Z</time></trkpt><trkpt lat="45.552147438125175" lon="10.390999522775385"><ele>177.0</ele><time>2026-04-21T15:19:41Z</time></trkpt><trkpt lat="45.55223107440972" lon="10.39096154068683"><ele>177.0</ele><time>2026-04-21T15:19:42Z</time></trkpt><trkpt lat="45.552317287809096" lon="10.390928308920122"><ele>177.0</ele><time>2026-04-21T15:19:43Z</time></trkpt><trkpt lat="45.55240447077857" lon="10.390898164456457"><ele>177.39999999999998</ele><time>2026-04-21T15:19:44Z</time></trkpt><trkpt lat="45.55249089945521" lon="10.390863585651678"><ele>177.79999999999998</ele><time>2026-04-21T15:19:45Z</time></trkpt><trkpt lat="45.55257948428217" lon="10.390833660058306"><ele>178.2</ele><time>2026-04-21T15:19:46Z</time></trkpt><trkpt lat="45.55266911016929" lon="10.390803076763515"><ele>178.6</ele><time>2026-04-21T15:19:47Z</time></trkpt><trkpt lat="45.55275895453611" lon="10.39077311415794"><ele>179.0</ele><time>2026-04-21T15:19:48Z</time></trkpt><trkpt lat="45.55284845011749" lon="10.390742815076708"><ele>178.83333333333331</ele><time>2026-04-21T15:19:49Z</time></trkpt><trkpt lat="45.55293417972963" lon="10.390722730314394"><ele>178.66666666666666</ele><time>2026-04-21T15:19:50Z</time></trkpt><trkpt lat="45.553021710897646" lon="10.390700385811893"><ele>178.5</ele><time>2026-04-21T15:19:51Z</time></trkpt><trkpt lat="45.55310845658676" lon="10.3906744444269"><ele>178.33333333333334</ele><time>2026-04-21T15:19:52Z</time></trkpt><trkpt lat="45.55319119931727" lon="10.390651963707985"><ele>178.16666666666669</ele><time>2026-04-21T15:19:53Z</time></trkpt><trkpt lat="45.553271413071386" lon="10.390628735199313"><ele>178.0</ele><time>2026-04-21T15:19:54Z</time></trkpt><trkpt lat="45.553351898928035" lon="10.390608360024894"><ele>178.0</ele><time>2026-04-21T15:19:55Z</time></trkpt><trkpt lat="45.553431097568556" lon="10.390585823247406"><ele>178.0</ele><time>2026-04-21T15:19:56Z</time></trkpt><trkpt lat="45.553509921926924" lon="10.390568326333765"><ele>178.0</ele><time>2026-04-21T15:19:57Z</time></trkpt><trkpt lat="45.553591254721645" lon="10.390547044967896"><ele>178.0</ele><time>2026-04-21T15:19:58Z</time></trkpt><trkpt lat="45.55366713631648" lon="10.390522981453907"><ele>178.0</ele><time>2026-04-21T15:19:59Z</time></trkpt><trkpt lat="45.55374298105434" lon="10.390501638800458"><ele>178.0</ele><time>2026-04-21T15:20:00Z</time></trkpt><trkpt lat="45.55381501286814" lon="10.390482556440787"><ele>178.28571428571428</ele><time>2026-04-21T15:20:01Z</time></trkpt><trkpt lat="45.55388635674004" lon="10.390463171524766"><ele>178.57142857142856</ele><time>2026-04-21T15:20:02Z</time></trkpt><trkpt lat="45.55395260819408" lon="10.390430228398117"><ele>178.85714285714283</ele><time>2026-04-21T15:20:03Z</time></trkpt><trkpt lat="45.55401911974595" lon="10.390399839922434"><ele>179.14285714285714</ele><time>2026-04-21T15:20:04Z</time></trkpt><trkpt lat="45.55408595564883" lon="10.390370728259313"><ele>179.42857142857144</ele><time>2026-04-21T15:20:05Z</time></trkpt><trkpt lat="45.55414386099118" lon="10.390331769557358"><ele>179.7142857142857</ele><time>2026-04-21T15:20:06Z</time></trkpt><trkpt lat="45.554202798805086" lon="10.390295207595955"><ele>180.0</ele><time>2026-04-21T15:20:07Z</time></trkpt><trkpt lat="45.554258755115164" lon="10.390253100739299"><ele>180.0</ele><time>2026-04-21T15:20:08Z</time></trkpt><trkpt lat="45.554360980397156" lon="10.390161591533856"><ele>180.0</ele><time>2026-04-21T15:20:10Z</time></trkpt><trkpt lat="45.55444921877396" lon="10.390057339599831"><ele>180.0</ele><time>2026-04-21T15:20:12Z</time></trkpt><trkpt lat="45.55452668793771" lon="10.390019260352096"><ele>180.0</ele><time>2026-04-21T15:20:14Z</time></trkpt><trkpt lat="45.55460584889324" lon="10.390066986549847"><ele>180.0</ele><time>2026-04-21T15:20:16Z</time></trkpt><trkpt lat="45.55467221042846" lon="10.390137963611062"><ele>180.0</ele><time>2026-04-21T15:20:18Z</time></trkpt><trkpt lat="45.55474522993341" lon="10.390216600904939"><ele>180.0</ele><time>2026-04-21T15:20:20Z</time></trkpt><trkpt lat="45.554819302608166" lon="10.390288520857531"><ele>180.0</ele><time>2026-04-21T15:20:22Z</time></trkpt><trkpt lat="45.55490048018492" lon="10.39037730991302"><ele>180.0</ele><time>2026-04-21T15:20:24Z</time></trkpt><trkpt lat="45.55497987037052" lon="10.390451655422849"><ele>180.0</ele><time>2026-04-21T15:20:26Z</time></trkpt><trkpt lat="45.55506159124007" lon="10.39052870598122"><ele>179.6</ele><time>2026-04-21T15:20:28Z</time></trkpt><trkpt lat="45.55514453292758" lon="10.390601108975558"><ele>179.2</ele><time>2026-04-21T15:20:30Z</time></trkpt><trkpt lat="45.555224966969746" lon="10.39068280189347"><ele>178.8</ele><time>2026-04-21T15:20:32Z</time></trkpt><trkpt lat="45.555318208630766" lon="10.390786148611813"><ele>178.4</ele><time>2026-04-21T15:20:34Z</time></trkpt><trkpt lat="45.55539360915966" lon="10.390889387475337"><ele>178.0</ele><time>2026-04-21T15:20:36Z</time></trkpt><trkpt lat="45.55547122248267" lon="10.390980274196634"><ele>178.8</ele><time>2026-04-21T15:20:38Z</time></trkpt><trkpt lat="45.55554204134364" lon="10.391077985797853"><ele>179.60000000000002</ele><time>2026-04-21T15:20:40Z</time></trkpt><trkpt lat="45.55560501079204" lon="10.391177472740207"><ele>180.39999999999998</ele><time>2026-04-21T15:20:42Z</time></trkpt><trkpt lat="45.55566606387585" lon="10.391278799203516"><ele>181.2</ele><time>2026-04-21T15:20:44Z</time></trkpt><trkpt lat="45.55572113282804" lon="10.391388786713629"><ele>182.0</ele><time>2026-04-21T15:20:46Z</time></trkpt><trkpt lat="45.555769363905156" lon="10.391491811979767"><ele>182.42857142857142</ele><time>2026-04-21T15:20:48Z</time></trkpt><trkpt lat="45.555798589471806" lon="10.391595326854262"><ele>182.85714285714286</ele><time>2026-04-21T15:20:50Z</time></trkpt><trkpt lat="45.55582848961363" lon="10.391690560773325"><ele>183.28571428571428</ele><time>2026-04-21T15:20:52Z</time></trkpt><trkpt lat="45.55585735025857" lon="10.39178113580026"><ele>183.71428571428572</ele><time>2026-04-21T15:20:54Z</time></trkpt><trkpt lat="45.555847630270534" lon="10.391877653453216"><ele>184.14285714285714</ele><time>2026-04-21T15:20:56Z</time></trkpt><trkpt lat="45.55580833331727" lon="10.391977499514905"><ele>184.57142857142856</ele><time>2026-04-21T15:20:58Z</time></trkpt><trkpt lat="45.55577838010137" lon="10.392080129535943"><ele>185.0</ele><time>2026-04-21T15:21:00Z</time></trkpt><trkpt lat="45.55573948330218" lon="10.392186116834289"><ele>185.66666666666666</ele><time>2026-04-21T15:21:02Z</time></trkpt><trkpt lat="45.55570536625473" lon="10.392306249103742"><ele>186.33333333333331</ele><time>2026-04-21T15:21:04Z</time></trkpt><trkpt lat="45.5556743970655" lon="10.392430761287688"><ele>187.0</ele><time>2026-04-21T15:21:06Z</time></trkpt><trkpt lat="45.555640057635486" lon="10.392535964371122"><ele>187.66666666666666</ele><time>2026-04-21T15:21:08Z</time></trkpt><trkpt lat="45.55560672825458" lon="10.392644537687186"><ele>188.33333333333334</ele><time>2026-04-21T15:21:10Z</time></trkpt><trkpt lat="45.555571635138605" lon="10.392748804527155"><ele>189.0</ele><time>2026-04-21T15:21:12Z</time></trkpt><trkpt lat="45.55550750067428" lon="10.392844657547903"><ele>189.0</ele><time>2026-04-21T15:21:14Z</time></trkpt><trkpt lat="45.555478705964255" lon="10.392927273425412"><ele>189.0</ele><time>2026-04-21T15:21:16Z</time></trkpt><trkpt lat="45.555472342232996" lon="10.393024945818375"><ele>189.0</ele><time>2026-04-21T15:21:18Z</time></trkpt><trkpt lat="45.555489498522604" lon="10.39314323268476"><ele>189.0</ele><time>2026-04-21T15:21:20Z</time></trkpt><trkpt lat="45.5555091201956" lon="10.393241046584164"><ele>189.0</ele><time>2026-04-21T15:21:22Z</time></trkpt><trkpt lat="45.55549644658126" lon="10.393336461549985"><ele>189.0</ele><time>2026-04-21T15:21:25Z</time></trkpt><trkpt lat="45.5553878998239" lon="10.393419040073471"><ele>188.25</ele><time>2026-04-21T15:21:27Z</time></trkpt><trkpt lat="45.55530781271104" lon="10.39351973209262"><ele>187.5</ele><time>2026-04-21T15:21:29Z</time></trkpt><trkpt lat="45.55521005104592" lon="10.393603796079491"><ele>186.75</ele><time>2026-04-21T15:21:31Z</time></trkpt><trkpt lat="45.55511935555652" lon="10.393705945894437"><ele>186.0</ele><time>2026-04-21T15:21:33Z</time></trkpt><trkpt lat="45.55502304488139" lon="10.393806229589531"><ele>185.25</ele><time>2026-04-21T15:21:35Z</time></trkpt><trkpt lat="45.55492867471984" lon="10.393908821516561"><ele>184.5</ele><time>2026-04-21T15:21:37Z</time></trkpt><trkpt lat="45.55483882677349" lon="10.394024180138343"><ele>183.75</ele><time>2026-04-21T15:21:39Z</time></trkpt><trkpt lat="45.55475450001869" lon="10.394151847223169"><ele>183.0</ele><time>2026-04-21T15:21:41Z</time></trkpt><trkpt lat="45.55469407079504" lon="10.394310722725981"><ele>183.0</ele><time>2026-04-21T15:21:43Z</time></trkpt><trkpt lat="45.55463360947301" lon="10.394463372392954"><ele>183.0</ele><time>2026-04-21T15:21:45Z</time></trkpt><trkpt lat="45.55458348063875" lon="10.394591331918395"><ele>183.0</ele><time>2026-04-21T15:21:47Z</time></trkpt><trkpt lat="45.554528107831196" lon="10.394720201492309"><ele>183.0</ele><time>2026-04-21T15:21:49Z</time></trkpt><trkpt lat="45.554470722960076" lon="10.394849701033522"><ele>183.0</ele><time>2026-04-21T15:21:51Z</time></trkpt><trkpt lat="45.55442652215115" lon="10.394981692958307"><ele>183.0</ele><time>2026-04-21T15:21:53Z</time></trkpt><trkpt lat="45.554378268219075" lon="10.395114993962025"><ele>183.0</ele><time>2026-04-21T15:21:55Z</time></trkpt><trkpt lat="45.55432904831179" lon="10.39524783487783"><ele>183.0</ele><time>2026-04-21T15:21:57Z</time></trkpt><trkpt lat="45.554281048504976" lon="10.395377152130447"><ele>183.0</ele><time>2026-04-21T15:21:59Z</time></trkpt><trkpt lat="45.55422869280241" lon="10.395501452709798"><ele>183.0</ele><time>2026-04-21T15:22:01Z</time></trkpt><trkpt lat="45.55418164516979" lon="10.395625249299615"><ele>183.0</ele><time>2026-04-21T15:22:03Z</time></trkpt><trkpt lat="45.5541354097954" lon="10.395751363914869"><ele>183.0</ele><time>2026-04-21T15:22:05Z</time></trkpt><trkpt lat="45.55408761211401" lon="10.395874524148036"><ele>183.0</ele><time>2026-04-21T15:22:07Z</time></trkpt><trkpt lat="45.55404429673931" lon="10.395996634317761"><ele>183.0</ele><time>2026-04-21T15:22:09Z</time></trkpt><trkpt lat="45.5539987970779" lon="10.396106072857771"><ele>183.0</ele><time>2026-04-21T15:22:11Z</time></trkpt><trkpt lat="45.55396583095016" lon="10.396201216993656"><ele>183.0</ele><time>2026-04-21T15:22:13Z</time></trkpt><trkpt lat="45.55391932404693" lon="10.39632022237001"><ele>183.0</ele><time>2026-04-21T15:22:15Z</time></trkpt><trkpt lat="45.5538749508751" lon="10.39645108872319"><ele>183.0</ele><time>2026-04-21T15:22:17Z</time></trkpt><trkpt lat="45.55382873120454" lon="10.396583962922524"><ele>183.0</ele><time>2026-04-21T15:22:19Z</time></trkpt><trkpt lat="45.55378475179719" lon="10.396690039306614"><ele>183.0</ele><time>2026-04-21T15:22:21Z</time></trkpt><trkpt lat="45.55372589539901" lon="10.39680161330087"><ele>182.75</ele><time>2026-04-21T15:22:23Z</time></trkpt><trkpt lat="45.55365715322179" lon="10.39693100071736"><ele>182.5</ele><time>2026-04-21T15:22:25Z</time></trkpt><trkpt lat="45.553588610508505" lon="10.397050152056064"><ele>182.25</ele><time>2026-04-21T15:22:27Z</time></trkpt><trkpt lat="45.553516852393415" lon="10.397182460393708"><ele>182.0</ele><time>2026-04-21T15:22:29Z</time></trkpt><trkpt lat="45.55345047563315" lon="10.3973119553531"><ele>182.6</ele><time>2026-04-21T15:22:31Z</time></trkpt><trkpt lat="45.55337982581387" lon="10.397440895460496"><ele>183.2</ele><time>2026-04-21T15:22:33Z</time></trkpt><trkpt lat="45.553317011297885" lon="10.397572831552857"><ele>183.8</ele><time>2026-04-21T15:22:35Z</time></trkpt><trkpt lat="45.553251630084596" lon="10.397686423509882"><ele>184.4</ele><time>2026-04-21T15:22:37Z</time></trkpt><trkpt lat="45.5531962249911" lon="10.397801375011692"><ele>185.0</ele><time>2026-04-21T15:22:39Z</time></trkpt><trkpt lat="45.55313973493579" lon="10.397918392944922"><ele>185.16666666666666</ele><time>2026-04-21T15:22:41Z</time></trkpt><trkpt lat="45.55308520695142" lon="10.398018740227979"><ele>185.33333333333331</ele><time>2026-04-21T15:22:43Z</time></trkpt><trkpt lat="45.55303360697707" lon="10.398124824074515"><ele>185.5</ele><time>2026-04-21T15:22:45Z</time></trkpt><trkpt lat="45.55301698617" lon="10.39824608899691"><ele>185.66666666666666</ele><time>2026-04-21T15:22:47Z</time></trkpt><trkpt lat="45.55304344543121" lon="10.39836285433837"><ele>185.83333333333334</ele><time>2026-04-21T15:22:49Z</time></trkpt><trkpt lat="45.55308481640573" lon="10.398476985315169"><ele>186.0</ele><time>2026-04-21T15:22:51Z</time></trkpt><trkpt lat="45.55312955163979" lon="10.398574655736374"><ele>186.0</ele><time>2026-04-21T15:22:53Z</time></trkpt><trkpt lat="45.553132530948105" lon="10.398680571385663"><ele>186.0</ele><time>2026-04-21T15:22:55Z</time></trkpt><trkpt lat="45.553057906826226" lon="10.398754077543929"><ele>186.0</ele><time>2026-04-21T15:22:57Z</time></trkpt><trkpt lat="45.5529680170635" lon="10.398796356865432"><ele>186.0</ele><time>2026-04-21T15:22:59Z</time></trkpt><trkpt lat="45.552878347081844" lon="10.398827685972048"><ele>186.0</ele><time>2026-04-21T15:23:01Z</time></trkpt><trkpt lat="45.5527831536188" lon="10.398889999687505"><ele>185.60000000000002</ele><time>2026-04-21T15:23:03Z</time></trkpt><trkpt lat="45.55268453385727" lon="10.398929385675933"><ele>185.2</ele><time>2026-04-21T15:23:05Z</time></trkpt><trkpt lat="45.55258859319613" lon="10.398976376365535"><ele>184.8</ele><time>2026-04-21T15:23:07Z</time></trkpt><trkpt lat="45.55247989357824" lon="10.399053432298828"><ele>184.39999999999998</ele><time>2026-04-21T15:23:09Z</time></trkpt><trkpt lat="45.552437146160926" lon="10.39912806847895"><ele>184.0</ele><time>2026-04-21T15:23:10Z</time></trkpt><trkpt lat="45.55236947217038" lon="10.399267096012963"><ele>184.0</ele><time>2026-04-21T15:23:12Z</time></trkpt><trkpt lat="45.55234492747753" lon="10.399436117937608"><ele>184.0</ele><time>2026-04-21T15:23:14Z</time></trkpt><trkpt lat="45.55233369957638" lon="10.399582008284376"><ele>184.0</ele><time>2026-04-21T15:23:16Z</time></trkpt><trkpt lat="45.552361237766014" lon="10.399727235335005"><ele>184.0</ele><time>2026-04-21T15:23:18Z</time></trkpt><trkpt lat="45.552337464337185" lon="10.399880177846232"><ele>184.0</ele><time>2026-04-21T15:23:20Z</time></trkpt><trkpt lat="45.552248433694025" lon="10.399994545339753"><ele>183.79999999999998</ele><time>2026-04-21T15:23:22Z</time></trkpt><trkpt lat="45.55220154982158" lon="10.40005813752107"><ele>183.6</ele><time>2026-04-21T15:23:23Z</time></trkpt><trkpt lat="45.552096222509405" lon="10.400143941905329"><ele>183.4</ele><time>2026-04-21T15:23:25Z</time></trkpt><trkpt lat="45.55200571835157" lon="10.400241237183456"><ele>183.2</ele><time>2026-04-21T15:23:27Z</time></trkpt><trkpt lat="45.551930971360584" lon="10.400321592953675"><ele>183.0</ele><time>2026-04-21T15:23:29Z</time></trkpt><trkpt lat="45.5519778157853" lon="10.400487623749164"><ele>182.83333333333334</ele><time>2026-04-21T15:23:31Z</time></trkpt><trkpt lat="45.55202198431416" lon="10.400609515240703"><ele>182.66666666666666</ele><time>2026-04-21T15:23:33Z</time></trkpt><trkpt lat="45.55208319225904" lon="10.40073829109397"><ele>182.5</ele><time>2026-04-21T15:23:35Z</time></trkpt><trkpt lat="45.55211975185662" lon="10.400815785438068"><ele>182.33333333333331</ele><time>2026-04-21T15:23:36Z</time></trkpt><trkpt lat="45.55216005184569" lon="10.40089067499379"><ele>182.16666666666666</ele><time>2026-04-21T15:23:37Z</time></trkpt><trkpt lat="45.55220357197731" lon="10.400982633170633"><ele>182.0</ele><time>2026-04-21T15:23:38Z</time></trkpt><trkpt lat="45.552234975235656" lon="10.401067832257631"><ele>182.0</ele><time>2026-04-21T15:23:39Z</time></trkpt><trkpt lat="45.55226942206205" lon="10.401144990936059"><ele>182.0</ele><time>2026-04-21T15:23:40Z</time></trkpt><trkpt lat="45.5523416794342" lon="10.401281180749372"><ele>182.0</ele><time>2026-04-21T15:23:42Z</time></trkpt><trkpt lat="45.5524089039792" lon="10.401406331132113"><ele>182.0</ele><time>2026-04-21T15:23:44Z</time></trkpt><trkpt lat="45.55246835299114" lon="10.401530770001989"><ele>182.0</ele><time>2026-04-21T15:23:46Z</time></trkpt><trkpt lat="45.55253150022359" lon="10.401648642136141"><ele>182.0</ele><time>2026-04-21T15:23:48Z</time></trkpt><trkpt lat="45.55258803124053" lon="10.401763658559327"><ele>182.0</ele><time>2026-04-21T15:23:50Z</time></trkpt><trkpt lat="45.55263747346901" lon="10.401861968182832"><ele>182.0</ele><time>2026-04-21T15:23:52Z</time></trkpt><trkpt lat="45.552757028620604" lon="10.40184291511938"><ele>182.0</ele><time>2026-04-21T15:23:56Z</time></trkpt><trkpt lat="45.55280477249518" lon="10.401780035831075"><ele>182.0</ele><time>2026-04-21T15:23:57Z</time></trkpt><trkpt lat="45.55288899469403" lon="10.401676760727872"><ele>183.2</ele><time>2026-04-21T15:23:59Z</time></trkpt><trkpt lat="45.55297237781496" lon="10.401581991513547"><ele>184.39999999999998</ele><time>2026-04-21T15:24:01Z</time></trkpt><trkpt lat="45.5530539220844" lon="10.401479191443025"><ele>185.60000000000002</ele><time>2026-04-21T15:24:03Z</time></trkpt><trkpt lat="45.55312531140095" lon="10.401385404775635"><ele>186.8</ele><time>2026-04-21T15:24:05Z</time></trkpt><trkpt lat="45.55319884761987" lon="10.401336134305454"><ele>188.0</ele><time>2026-04-21T15:24:07Z</time></trkpt><trkpt lat="45.553280608623375" lon="10.401406594512006"><ele>188.0</ele><time>2026-04-21T15:24:09Z</time></trkpt><trkpt lat="45.55331766875064" lon="10.401528241114685"><ele>188.0</ele><time>2026-04-21T15:24:11Z</time></trkpt><trkpt lat="45.5533695164398" lon="10.40163692520741"><ele>188.0</ele><time>2026-04-21T15:24:13Z</time></trkpt><trkpt lat="45.55342469464641" lon="10.40173805454387"><ele>188.0</ele><time>2026-04-21T15:24:15Z</time></trkpt><trkpt lat="45.55346334866483" lon="10.401856892899215"><ele>188.0</ele><time>2026-04-21T15:24:17Z</time></trkpt><trkpt lat="45.55350587189758" lon="10.401978552290716"><ele>188.0</ele><time>2026-04-21T15:24:19Z</time></trkpt><trkpt lat="45.55354306650128" lon="10.402107991972452"><ele>188.0</ele><time>2026-04-21T15:24:21Z</time></trkpt><trkpt lat="45.55358500242168" lon="10.402229159636896"><ele>188.0</ele><time>2026-04-21T15:24:23Z</time></trkpt><trkpt lat="45.55363385890222" lon="10.402352665184289"><ele>188.0</ele><time>2026-04-21T15:24:25Z</time></trkpt><trkpt lat="45.55368772348968" lon="10.402478957620907"><ele>188.0</ele><time>2026-04-21T15:24:27Z</time></trkpt><trkpt lat="45.553750497295304" lon="10.402593611904038"><ele>189.2</ele><time>2026-04-21T15:24:29Z</time></trkpt><trkpt lat="45.553802597509595" lon="10.402704297262048"><ele>190.4</ele><time>2026-04-21T15:24:31Z</time></trkpt><trkpt lat="45.55385657340112" lon="10.402811933889545"><ele>191.6</ele><time>2026-04-21T15:24:33Z</time></trkpt><trkpt lat="45.55391117766818" lon="10.402923275829139"><ele>192.79999999999998</ele><time>2026-04-21T15:24:35Z</time></trkpt><trkpt lat="45.55395539675917" lon="10.403044078119628"><ele>194.0</ele><time>2026-04-21T15:24:37Z</time></trkpt><trkpt lat="45.554018530253856" lon="10.403148309414814"><ele>194.0</ele><time>2026-04-21T15:24:39Z</time></trkpt><trkpt lat="45.55408270824982" lon="10.403291573287504"><ele>194.0</ele><time>2026-04-21T15:24:41Z</time></trkpt><trkpt lat="45.554152851202225" lon="10.403426911225685"><ele>194.0</ele><time>2026-04-21T15:24:43Z</time></trkpt><trkpt lat="45.554220532387205" lon="10.403558313296783"><ele>194.0</ele><time>2026-04-21T15:24:45Z</time></trkpt><trkpt lat="45.55426279996937" lon="10.40367784827389"><ele>194.0</ele><time>2026-04-21T15:24:47Z</time></trkpt><trkpt lat="45.554300552824394" lon="10.403775387264725"><ele>193.0</ele><time>2026-04-21T15:24:50Z</time></trkpt><trkpt lat="45.554342090865994" lon="10.403915552367424"><ele>192.0</ele><time>2026-04-21T15:24:53Z</time></trkpt><trkpt lat="45.55436410508515" lon="10.404027728230377"><ele>191.0</ele><time>2026-04-21T15:24:55Z</time></trkpt><trkpt lat="45.55440284094081" lon="10.404126386689057"><ele>190.0</ele><time>2026-04-21T15:24:57Z</time></trkpt><trkpt lat="45.554436777505735" lon="10.404242838508802"><ele>189.0</ele><time>2026-04-21T15:24:59Z</time></trkpt><trkpt lat="45.55446923298167" lon="10.404375941336077"><ele>189.0</ele><time>2026-04-21T15:25:01Z</time></trkpt><trkpt lat="45.554497205654656" lon="10.404500606622445"><ele>189.0</ele><time>2026-04-21T15:25:03Z</time></trkpt><trkpt lat="45.55452465788048" lon="10.404648561621338"><ele>189.0</ele><time>2026-04-21T15:25:05Z</time></trkpt><trkpt lat="45.554551219194884" lon="10.404785769353072"><ele>189.0</ele><time>2026-04-21T15:25:07Z</time></trkpt><trkpt lat="45.554588363458585" lon="10.404928105611805"><ele>189.0</ele><time>2026-04-21T15:25:09Z</time></trkpt><trkpt lat="45.554617201447485" lon="10.4050652714113"><ele>188.5</ele><time>2026-04-21T15:25:11Z</time></trkpt><trkpt lat="45.55465497475489" lon="10.405195884274777"><ele>188.0</ele><time>2026-04-21T15:25:13Z</time></trkpt><trkpt lat="45.55468542721268" lon="10.405319519945323"><ele>187.5</ele><time>2026-04-21T15:25:15Z</time></trkpt><trkpt lat="45.55471478141403" lon="10.405428711011528"><ele>187.0</ele><time>2026-04-21T15:25:17Z</time></trkpt><trkpt lat="45.55473868427552" lon="10.405549174107792"><ele>186.5</ele><time>2026-04-21T15:25:19Z</time></trkpt><trkpt lat="45.5547635099538" lon="10.405668229631406"><ele>186.0</ele><time>2026-04-21T15:25:21Z</time></trkpt><trkpt lat="45.55480929215751" lon="10.405778695646172"><ele>186.0</ele><time>2026-04-21T15:25:23Z</time></trkpt><trkpt lat="45.554874839115065" lon="10.405862068350139"><ele>186.0</ele><time>2026-04-21T15:25:25Z</time></trkpt><trkpt lat="45.55496075408302" lon="10.405902964925799"><ele>186.0</ele><time>2026-04-21T15:25:27Z</time></trkpt><trkpt lat="45.55503738707256" lon="10.405939931024673"><ele>186.0</ele><time>2026-04-21T15:25:29Z</time></trkpt><trkpt lat="45.55512838487129" lon="10.405988353417294"><ele>186.0</ele><time>2026-04-21T15:25:31Z</time></trkpt><trkpt lat="45.555213728234264" lon="10.406037002631672"><ele>186.0</ele><time>2026-04-21T15:25:33Z</time></trkpt><trkpt lat="45.555300267777916" lon="10.406089238497344"><ele>186.0</ele><time>2026-04-21T15:25:35Z</time></trkpt><trkpt lat="45.5553644884201" lon="10.406199470938027"><ele>186.0</ele><time>2026-04-21T15:25:37Z</time></trkpt><trkpt lat="45.55542947506635" lon="10.406292268348322"><ele>186.0</ele><time>2026-04-21T15:25:39Z</time></trkpt><trkpt lat="45.55549232272449" lon="10.40637035976232"><ele>186.0</ele><time>2026-04-21T15:25:41Z</time></trkpt><trkpt lat="45.5555527178549" lon="10.406431761294932"><ele>186.0</ele><time>2026-04-21T15:25:43Z</time></trkpt><trkpt lat="45.55561794184502" lon="10.406475612359989"><ele>186.0</ele><time>2026-04-21T15:25:45Z</time></trkpt><trkpt lat="45.55568233837141" lon="10.406535906880546"><ele>186.83333333333334</ele><time>2026-04-21T15:25:47Z</time></trkpt><trkpt lat="45.555742840705534" lon="10.406604810194482"><ele>187.66666666666666</ele><time>2026-04-21T15:25:49Z</time></trkpt><trkpt lat="45.555794526506055" lon="10.406688151502928"><ele>188.5</ele><time>2026-04-21T15:25:51Z</time></trkpt><trkpt lat="45.55584881270039" lon="10.406763584866976"><ele>189.33333333333331</ele><time>2026-04-21T15:25:53Z</time></trkpt><trkpt lat="45.55590108743125" lon="10.406843673133436"><ele>190.16666666666666</ele><time>2026-04-21T15:25:55Z</time></trkpt><trkpt lat="45.55595570364237" lon="10.40692532042231"><ele>191.0</ele><time>2026-04-21T15:25:57Z</time></trkpt><trkpt lat="45.556009202614604" lon="10.407016888876251"><ele>191.0</ele><time>2026-04-21T15:25:59Z</time></trkpt><trkpt lat="45.55606710104853" lon="10.407100401911178"><ele>191.0</ele><time>2026-04-21T15:26:01Z</time></trkpt><trkpt lat="45.55612453327372" lon="10.407172209788323"><ele>191.0</ele><time>2026-04-21T15:26:03Z</time></trkpt><trkpt lat="45.55619463157438" lon="10.407242626290952"><ele>191.0</ele><time>2026-04-21T15:26:05Z</time></trkpt><trkpt lat="45.55625359030987" lon="10.407302982088805"><ele>191.0</ele><time>2026-04-21T15:26:07Z</time></trkpt><trkpt lat="45.55631057651811" lon="10.40734617758718"><ele>191.0</ele><time>2026-04-21T15:26:09Z</time></trkpt><trkpt lat="45.55637231381462" lon="10.407422414742413"><ele>192.8</ele><time>2026-04-21T15:26:12Z</time></trkpt><trkpt lat="45.55643025693162" lon="10.407522772664194"><ele>194.60000000000002</ele><time>2026-04-21T15:26:15Z</time></trkpt><trkpt lat="45.55641554383748" lon="10.40763086534938"><ele>196.4</ele><time>2026-04-21T15:26:17Z</time></trkpt><trkpt lat="45.55637796973406" lon="10.407749576421535"><ele>198.2</ele><time>2026-04-21T15:26:19Z</time></trkpt><trkpt lat="45.55631485112818" lon="10.40784960286498"><ele>200.0</ele><time>2026-04-21T15:26:21Z</time></trkpt><trkpt lat="45.556237178193165" lon="10.407932030353697"><ele>197.4</ele><time>2026-04-21T15:26:23Z</time></trkpt><trkpt lat="45.55616625755862" lon="10.40801891559767"><ele>194.8</ele><time>2026-04-21T15:26:25Z</time></trkpt><trkpt lat="45.55609307884529" lon="10.408106898733497"><ele>192.2</ele><time>2026-04-21T15:26:27Z</time></trkpt><trkpt lat="45.55601929749706" lon="10.408190036426115"><ele>189.6</ele><time>2026-04-21T15:26:29Z</time></trkpt><trkpt lat="45.55594174670769" lon="10.408276428262463"><ele>187.0</ele><time>2026-04-21T15:26:31Z</time></trkpt><trkpt lat="45.55587170613892" lon="10.408360490540497"><ele>187.0</ele><time>2026-04-21T15:26:33Z</time></trkpt><trkpt lat="45.55579635680726" lon="10.408455228335633"><ele>187.0</ele><time>2026-04-21T15:26:35Z</time></trkpt><trkpt lat="45.55571806197193" lon="10.408549767926374"><ele>187.0</ele><time>2026-04-21T15:26:37Z</time></trkpt><trkpt lat="45.55563584029745" lon="10.408645388413838"><ele>187.0</ele><time>2026-04-21T15:26:39Z</time></trkpt><trkpt lat="45.555555285972694" lon="10.408738036337066"><ele>187.0</ele><time>2026-04-21T15:26:41Z</time></trkpt><trkpt lat="45.55547539143653" lon="10.4088258882707"><ele>187.0</ele><time>2026-04-21T15:26:43Z</time></trkpt><trkpt lat="45.5553990267255" lon="10.408910314073903"><ele>187.0</ele><time>2026-04-21T15:26:45Z</time></trkpt><trkpt lat="45.55533915986304" lon="10.408985300527847"><ele>187.0</ele><time>2026-04-21T15:26:47Z</time></trkpt><trkpt lat="45.555272119412614" lon="10.409064025059545"><ele>187.0</ele><time>2026-04-21T15:26:49Z</time></trkpt><trkpt lat="45.5551960782133" lon="10.409138648476981"><ele>187.0</ele><time>2026-04-21T15:26:51Z</time></trkpt><trkpt lat="45.55508844110908" lon="10.409229853918422"><ele>186.5</ele><time>2026-04-21T15:26:53Z</time></trkpt><trkpt lat="45.555015393541495" lon="10.409228587120769"><ele>186.0</ele><time>2026-04-21T15:26:54Z</time></trkpt><trkpt lat="45.55489585755736" lon="10.409236639656683"><ele>185.5</ele><time>2026-04-21T15:26:56Z</time></trkpt><trkpt lat="45.55490087909343" lon="10.409460127771997"><ele>185.0</ele><time>2026-04-21T15:26:57Z</time></trkpt><trkpt lat="45.55480338059489" lon="10.409496734229874"><ele>185.0</ele><time>2026-04-21T15:26:58Z</time></trkpt><trkpt lat="45.55474574322857" lon="10.409548128435919"><ele>185.0</ele><time>2026-04-21T15:26:59Z</time></trkpt><trkpt lat="45.554688394015905" lon="10.409587311295923"><ele>185.0</ele><time>2026-04-21T15:27:00Z</time></trkpt><trkpt lat="45.55463416218663" lon="10.40963907697613"><ele>185.0</ele><time>2026-04-21T15:27:01Z</time></trkpt><trkpt lat="45.55453614332924" lon="10.409730939026923"><ele>185.0</ele><time>2026-04-21T15:27:03Z</time></trkpt><trkpt lat="45.55442899763763" lon="10.409782400944518"><ele>185.0</ele><time>2026-04-21T15:27:05Z</time></trkpt><trkpt lat="45.55432444937846" lon="10.409852745325555"><ele>185.0</ele><time>2026-04-21T15:27:07Z</time></trkpt><trkpt lat="45.55421913018319" lon="10.409899771520108"><ele>185.0</ele><time>2026-04-21T15:27:09Z</time></trkpt><trkpt lat="45.554128158454986" lon="10.40995298832227"><ele>185.0</ele><time>2026-04-21T15:27:11Z</time></trkpt><trkpt lat="45.55404943414262" lon="10.409985859926069"><ele>185.0</ele><time>2026-04-21T15:27:13Z</time></trkpt><trkpt lat="45.55396873919246" lon="10.410059796662557"><ele>185.0</ele><time>2026-04-21T15:27:15Z</time></trkpt><trkpt lat="45.553877736034906" lon="10.410123604783836"><ele>185.0</ele><time>2026-04-21T15:27:17Z</time></trkpt><trkpt lat="45.55378197729912" lon="10.410180880075826"><ele>185.0</ele><time>2026-04-21T15:27:19Z</time></trkpt><trkpt lat="45.55369872865393" lon="10.410250231735239"><ele>185.0</ele><time>2026-04-21T15:27:21Z</time></trkpt><trkpt lat="45.55361249576638" lon="10.410324761631502"><ele>185.0</ele><time>2026-04-21T15:27:23Z</time></trkpt><trkpt lat="45.553524525069875" lon="10.410408948564223"><ele>185.0</ele><time>2026-04-21T15:27:25Z</time></trkpt><trkpt lat="45.553441182693206" lon="10.410490098069761"><ele>184.8</ele><time>2026-04-21T15:27:27Z</time></trkpt><trkpt lat="45.55336162490213" lon="10.410563503054085"><ele>184.6</ele><time>2026-04-21T15:27:29Z</time></trkpt><trkpt lat="45.553272036355835" lon="10.410643485317504"><ele>184.39999999999998</ele><time>2026-04-21T15:27:31Z</time></trkpt><trkpt lat="45.55317962687106" lon="10.410725524615877"><ele>184.2</ele><time>2026-04-21T15:27:33Z</time></trkpt><trkpt lat="45.55309010551722" lon="10.410804999884867"><ele>184.0</ele><time>2026-04-21T15:27:35Z</time></trkpt><trkpt lat="45.55300564255833" lon="10.410879984414935"><ele>184.0</ele><time>2026-04-21T15:27:37Z</time></trkpt><trkpt lat="45.55292870246736" lon="10.410970251435279"><ele>184.0</ele><time>2026-04-21T15:27:39Z</time></trkpt><trkpt lat="45.55283181641953" lon="10.411034303797283"><ele>184.0</ele><time>2026-04-21T15:27:41Z</time></trkpt><trkpt lat="45.55275559853109" lon="10.411126057696437"><ele>184.0</ele><time>2026-04-21T15:27:43Z</time></trkpt><trkpt lat="45.55266523838209" lon="10.411182851911324"><ele>184.0</ele><time>2026-04-21T15:27:45Z</time></trkpt><trkpt lat="45.552578157167176" lon="10.41126131024382"><ele>184.0</ele><time>2026-04-21T15:27:47Z</time></trkpt><trkpt lat="45.5524821735983" lon="10.41134954094209"><ele>184.0</ele><time>2026-04-21T15:27:49Z</time></trkpt><trkpt lat="45.55238558114718" lon="10.411437320155773"><ele>184.0</ele><time>2026-04-21T15:27:51Z</time></trkpt><trkpt lat="45.552298403272474" lon="10.411526083845898"><ele>184.0</ele><time>2026-04-21T15:27:53Z</time></trkpt><trkpt lat="45.55222445456396" lon="10.411616041182578"><ele>184.0</ele><time>2026-04-21T15:27:55Z</time></trkpt><trkpt lat="45.55216633969564" lon="10.411658754662096"><ele>184.0</ele><time>2026-04-21T15:27:56Z</time></trkpt><trkpt lat="45.55209589565028" lon="10.411762102931442"><ele>184.0</ele><time>2026-04-21T15:27:58Z</time></trkpt><trkpt lat="45.55201760012881" lon="10.4118315520621"><ele>184.0</ele><time>2026-04-21T15:28:00Z</time></trkpt><trkpt lat="45.551919021993356" lon="10.411848716500343"><ele>184.0</ele><time>2026-04-21T15:28:02Z</time></trkpt><trkpt lat="45.55184767592047" lon="10.41191084132995"><ele>184.0</ele><time>2026-04-21T15:28:04Z</time></trkpt><trkpt lat="45.55184644567724" lon="10.41203333906344"><ele>183.85714285714286</ele><time>2026-04-21T15:28:06Z</time></trkpt><trkpt lat="45.55190890261488" lon="10.412122258993467"><ele>183.7142857142857</ele><time>2026-04-21T15:28:08Z</time></trkpt><trkpt lat="45.55194871357691" lon="10.412195498135043"><ele>183.57142857142856</ele><time>2026-04-21T15:28:10Z</time></trkpt><trkpt lat="45.55199198613242" lon="10.412268642017482"><ele>183.42857142857144</ele><time>2026-04-21T15:28:12Z</time></trkpt><trkpt lat="45.55203833161815" lon="10.412352050736814"><ele>183.28571428571428</ele><time>2026-04-21T15:28:14Z</time></trkpt><trkpt lat="45.5520802424581" lon="10.41244955894346"><ele>183.14285714285714</ele><time>2026-04-21T15:28:16Z</time></trkpt><trkpt lat="45.5521280831142" lon="10.412526417122006"><ele>183.0</ele><time>2026-04-21T15:28:18Z</time></trkpt><trkpt lat="45.552178995173136" lon="10.412603064478997"><ele>184.0</ele><time>2026-04-21T15:28:20Z</time></trkpt><trkpt lat="45.55224812769519" lon="10.41267340282256"><ele>185.0</ele><time>2026-04-21T15:28:22Z</time></trkpt><trkpt lat="45.55230901079419" lon="10.412762350594083"><ele>186.0</ele><time>2026-04-21T15:28:24Z</time></trkpt><trkpt lat="45.552381244708386" lon="10.412857491898398"><ele>187.0</ele><time>2026-04-21T15:28:26Z</time></trkpt><trkpt lat="45.552452946157956" lon="10.4129626874357"><ele>188.0</ele><time>2026-04-21T15:28:28Z</time></trkpt><trkpt lat="45.55249713193528" lon="10.413071831022013"><ele>188.0</ele><time>2026-04-21T15:28:31Z</time></trkpt><trkpt lat="45.55250971840925" lon="10.413190309466"><ele>188.0</ele><time>2026-04-21T15:28:34Z</time></trkpt><trkpt lat="45.55245743422553" lon="10.41325742234635"><ele>188.0</ele><time>2026-04-21T15:28:37Z</time></trkpt><trkpt lat="45.552395901096055" lon="10.413364992107466"><ele>188.0</ele><time>2026-04-21T15:28:40Z</time></trkpt><trkpt lat="45.55232588740886" lon="10.413423381064147"><ele>188.0</ele><time>2026-04-21T15:28:42Z</time></trkpt><trkpt lat="45.552268191530125" lon="10.413504544448992"><ele>188.0</ele><time>2026-04-21T15:28:44Z</time></trkpt><trkpt lat="45.55220370680471" lon="10.41360215927549"><ele>188.0</ele><time>2026-04-21T15:28:46Z</time></trkpt><trkpt lat="45.55216398534446" lon="10.41371505964369"><ele>188.0</ele><time>2026-04-21T15:28:48Z</time></trkpt><trkpt lat="45.552113028491505" lon="10.413815174386775"><ele>188.0</ele><time>2026-04-21T15:28:50Z</time></trkpt><trkpt lat="45.55208626663596" lon="10.413939340928165"><ele>188.0</ele><time>2026-04-21T15:28:52Z</time></trkpt><trkpt lat="45.55205785308702" lon="10.414046085915542"><ele>188.0</ele><time>2026-04-21T15:28:54Z</time></trkpt><trkpt lat="45.55203385248131" lon="10.414164741572865"><ele>188.0</ele><time>2026-04-21T15:28:56Z</time></trkpt><trkpt lat="45.552003912016296" lon="10.414278994287837"><ele>188.0</ele><time>2026-04-21T15:28:58Z</time></trkpt><trkpt lat="45.552000393173195" lon="10.41440108784786"><ele>188.0</ele><time>2026-04-21T15:29:00Z</time></trkpt><trkpt lat="45.55198491712867" lon="10.414518245616545"><ele>188.0</ele><time>2026-04-21T15:29:02Z</time></trkpt><trkpt lat="45.55196862068299" lon="10.414631465918259"><ele>188.0</ele><time>2026-04-21T15:29:04Z</time></trkpt><trkpt lat="45.551936568436574" lon="10.414747473770953"><ele>188.0</ele><time>2026-04-21T15:29:06Z</time></trkpt><trkpt lat="45.55192964211681" lon="10.414893912866155"><ele>188.0</ele><time>2026-04-21T15:29:08Z</time></trkpt><trkpt lat="45.55191889782098" lon="10.41502952152794"><ele>187.8</ele><time>2026-04-21T15:29:10Z</time></trkpt><trkpt lat="45.551883843547834" lon="10.415170573039743"><ele>187.60000000000002</ele><time>2026-04-21T15:29:12Z</time></trkpt><trkpt lat="45.55186958590205" lon="10.41533939367436"><ele>187.39999999999998</ele><time>2026-04-21T15:29:14Z</time></trkpt><trkpt lat="45.551829760358046" lon="10.415477290510456"><ele>187.2</ele><time>2026-04-21T15:29:16Z</time></trkpt><trkpt lat="45.55179185478248" lon="10.415624997341276"><ele>187.0</ele><time>2026-04-21T15:29:18Z</time></trkpt><trkpt lat="45.551750645719274" lon="10.415768284604555"><ele>186.8</ele><time>2026-04-21T15:29:20Z</time></trkpt><trkpt lat="45.55172178041073" lon="10.415914707955787"><ele>186.6</ele><time>2026-04-21T15:29:22Z</time></trkpt><trkpt lat="45.551696090234465" lon="10.416048614821001"><ele>186.4</ele><time>2026-04-21T15:29:24Z</time></trkpt><trkpt lat="45.55167672409233" lon="10.416168824860248"><ele>186.20000000000002</ele><time>2026-04-21T15:29:26Z</time></trkpt><trkpt lat="45.551674787465835" lon="10.416288199621723"><ele>186.0</ele><time>2026-04-21T15:29:28Z</time></trkpt><trkpt lat="45.55165965033704" lon="10.416399195217336"><ele>186.0</ele><time>2026-04-21T15:29:30Z</time></trkpt><trkpt lat="45.55168352002598" lon="10.416493069054942"><ele>186.0</ele><time>2026-04-21T15:29:32Z</time></trkpt><trkpt lat="45.55166342381443" lon="10.416620069949568"><ele>186.0</ele><time>2026-04-21T15:29:34Z</time></trkpt><trkpt lat="45.5516334515082" lon="10.416773725933396"><ele>186.0</ele><time>2026-04-21T15:29:36Z</time></trkpt><trkpt lat="45.551606439735835" lon="10.41692880537799"><ele>186.0</ele><time>2026-04-21T15:29:38Z</time></trkpt><trkpt lat="45.55158234474122" lon="10.417099728471385"><ele>186.75</ele><time>2026-04-21T15:29:40Z</time></trkpt><trkpt lat="45.55155461201903" lon="10.417267853815499"><ele>187.5</ele><time>2026-04-21T15:29:42Z</time></trkpt><trkpt lat="45.551523399279866" lon="10.417428874088548"><ele>188.25</ele><time>2026-04-21T15:29:44Z</time></trkpt><trkpt lat="45.55149807550067" lon="10.417590341406838"><ele>189.0</ele><time>2026-04-21T15:29:46Z</time></trkpt><trkpt lat="45.55143358053655" lon="10.417744981499924"><ele>189.0</ele><time>2026-04-21T15:29:48Z</time></trkpt><trkpt lat="45.55136862061454" lon="10.417874345397374"><ele>189.0</ele><time>2026-04-21T15:29:50Z</time></trkpt><trkpt lat="45.55129516198616" lon="10.417989904906909"><ele>189.0</ele><time>2026-04-21T15:29:52Z</time></trkpt><trkpt lat="45.55122652338928" lon="10.418123578325684"><ele>189.0</ele><time>2026-04-21T15:29:54Z</time></trkpt><trkpt lat="45.55114776473833" lon="10.418243570797594"><ele>189.2</ele><time>2026-04-21T15:29:56Z</time></trkpt><trkpt lat="45.55106674544278" lon="10.41836256523884"><ele>189.39999999999998</ele><time>2026-04-21T15:29:58Z</time></trkpt><trkpt lat="45.55099329122842" lon="10.41847815391116"><ele>189.6</ele><time>2026-04-21T15:30:00Z</time></trkpt><trkpt lat="45.550921584425765" lon="10.418594427851218"><ele>189.8</ele><time>2026-04-21T15:30:02Z</time></trkpt><trkpt lat="45.55083451166134" lon="10.41869397789694"><ele>190.0</ele><time>2026-04-21T15:30:04Z</time></trkpt><trkpt lat="45.55076791323912" lon="10.418817625413686"><ele>189.8</ele><time>2026-04-21T15:30:06Z</time></trkpt><trkpt lat="45.550679826436394" lon="10.418919330570333"><ele>189.6</ele><time>2026-04-21T15:30:08Z</time></trkpt><trkpt lat="45.55061295337713" lon="10.419048909065085"><ele>189.39999999999998</ele><time>2026-04-21T15:30:10Z</time></trkpt><trkpt lat="45.55054343780854" lon="10.4191430993147"><ele>189.2</ele><time>2026-04-21T15:30:12Z</time></trkpt><trkpt lat="45.55047029364105" lon="10.419251447145673"><ele>189.0</ele><time>2026-04-21T15:30:14Z</time></trkpt><trkpt lat="45.55040424445031" lon="10.419358965867271"><ele>188.79999999999998</ele><time>2026-04-21T15:30:16Z</time></trkpt><trkpt lat="45.5503199143762" lon="10.419451502121056"><ele>188.6</ele><time>2026-04-21T15:30:18Z</time></trkpt><trkpt lat="45.55024800112391" lon="10.419577849829823"><ele>188.4</ele><time>2026-04-21T15:30:20Z</time></trkpt><trkpt lat="45.5501682140538" lon="10.419692012174815"><ele>188.2</ele><time>2026-04-21T15:30:22Z</time></trkpt><trkpt lat="45.5500928529758" lon="10.419798731299796"><ele>188.0</ele><time>2026-04-21T15:30:24Z</time></trkpt><trkpt lat="45.550012472041594" lon="10.41989489137577"><ele>188.4</ele><time>2026-04-21T15:30:26Z</time></trkpt><trkpt lat="45.549944739098244" lon="10.420017717205193"><ele>188.8</ele><time>2026-04-21T15:30:28Z</time></trkpt><trkpt lat="45.549875389854506" lon="10.420114965847803"><ele>189.2</ele><time>2026-04-21T15:30:30Z</time></trkpt><trkpt lat="45.54981330739548" lon="10.420210072673521"><ele>189.6</ele><time>2026-04-21T15:30:32Z</time></trkpt><trkpt lat="45.54974565628831" lon="10.420276777675612"><ele>190.0</ele><time>2026-04-21T15:30:34Z</time></trkpt><trkpt lat="45.54969443740217" lon="10.420362733654843"><ele>190.0</ele><time>2026-04-21T15:30:36Z</time></trkpt><trkpt lat="45.5496426085105" lon="10.42042978159481"><ele>190.0</ele><time>2026-04-21T15:30:38Z</time></trkpt><trkpt lat="45.54959459681239" lon="10.420492985332574"><ele>190.0</ele><time>2026-04-21T15:30:41Z</time></trkpt><trkpt lat="45.549644893676884" lon="10.420564563793173"><ele>190.0</ele><time>2026-04-21T15:30:42Z</time></trkpt><trkpt lat="45.549706826066" lon="10.420645133461205"><ele>190.0</ele><time>2026-04-21T15:30:44Z</time></trkpt><trkpt lat="45.54972770760917" lon="10.420755523525406"><ele>190.0</ele><time>2026-04-21T15:30:46Z</time></trkpt><trkpt lat="45.54974169786493" lon="10.420867361755885"><ele>190.2</ele><time>2026-04-21T15:30:48Z</time></trkpt><trkpt lat="45.54967748198274" lon="10.420920793197006"><ele>190.4</ele><time>2026-04-21T15:30:49Z</time></trkpt><trkpt lat="45.54960689964666" lon="10.42099047092424"><ele>190.60000000000002</ele><time>2026-04-21T15:30:51Z</time></trkpt><trkpt lat="45.549534911032325" lon="10.421077013235331"><ele>190.8</ele><time>2026-04-21T15:30:53Z</time></trkpt><trkpt lat="45.54946542819172" lon="10.421168045958982"><ele>191.0</ele><time>2026-04-21T15:30:55Z</time></trkpt><trkpt lat="45.54939041693921" lon="10.421268510442507"><ele>191.20000000000002</ele><time>2026-04-21T15:30:57Z</time></trkpt><trkpt lat="45.54931529898285" lon="10.421358131524473"><ele>191.4</ele><time>2026-04-21T15:30:59Z</time></trkpt><trkpt lat="45.5492531781765" lon="10.421468769030808"><ele>191.6</ele><time>2026-04-21T15:31:01Z</time></trkpt><trkpt lat="45.549162804587354" lon="10.421585559165566"><ele>191.8</ele><time>2026-04-21T15:31:03Z</time></trkpt><trkpt lat="45.54911270650721" lon="10.421641029503093"><ele>192.0</ele><time>2026-04-21T15:31:04Z</time></trkpt><trkpt lat="45.54902489570856" lon="10.421755687916715"><ele>192.0</ele><time>2026-04-21T15:31:06Z</time></trkpt><trkpt lat="45.54893899513231" lon="10.421869911802698"><ele>192.0</ele><time>2026-04-21T15:31:08Z</time></trkpt><trkpt lat="45.548848395425075" lon="10.42198743367192"><ele>192.0</ele><time>2026-04-21T15:31:10Z</time></trkpt><trkpt lat="45.54876098509046" lon="10.422105245162099"><ele>192.0</ele><time>2026-04-21T15:31:12Z</time></trkpt><trkpt lat="45.548671740223725" lon="10.422224576011581"><ele>192.0</ele><time>2026-04-21T15:31:14Z</time></trkpt><trkpt lat="45.54857903438336" lon="10.42235414589067"><ele>192.0</ele><time>2026-04-21T15:31:16Z</time></trkpt><trkpt lat="45.54849391391011" lon="10.422471176834396"><ele>192.0</ele><time>2026-04-21T15:31:18Z</time></trkpt><trkpt lat="45.54840493988253" lon="10.422576128929272"><ele>192.0</ele><time>2026-04-21T15:31:20Z</time></trkpt><trkpt lat="45.54832984942967" lon="10.422682229101959"><ele>192.0</ele><time>2026-04-21T15:31:22Z</time></trkpt><trkpt lat="45.548258522360015" lon="10.422786861146783"><ele>192.0</ele><time>2026-04-21T15:31:24Z</time></trkpt><trkpt lat="45.54818766532297" lon="10.42289899804361"><ele>192.0</ele><time>2026-04-21T15:31:26Z</time></trkpt><trkpt lat="45.54813169769688" lon="10.422949203572678"><ele>192.0</ele><time>2026-04-21T15:31:27Z</time></trkpt><trkpt lat="45.54804179890684" lon="10.423075864316434"><ele>192.0</ele><time>2026-04-21T15:31:29Z</time></trkpt><trkpt lat="45.54799513498139" lon="10.423142421379477"><ele>192.25</ele><time>2026-04-21T15:31:30Z</time></trkpt><trkpt lat="45.547905924967786" lon="10.423254478550408"><ele>192.5</ele><time>2026-04-21T15:31:32Z</time></trkpt><trkpt lat="45.547833292895376" lon="10.423378737011186"><ele>192.75</ele><time>2026-04-21T15:31:34Z</time></trkpt><trkpt lat="45.54775343587557" lon="10.423504065782396"><ele>193.0</ele><time>2026-04-21T15:31:36Z</time></trkpt><trkpt lat="45.54766568705689" lon="10.423635685444262"><ele>193.16666666666666</ele><time>2026-04-21T15:31:38Z</time></trkpt><trkpt lat="45.547640014189305" lon="10.423726799795341"><ele>193.33333333333331</ele><time>2026-04-21T15:31:39Z</time></trkpt><trkpt lat="45.547611106563714" lon="10.423810427482803"><ele>193.5</ele><time>2026-04-21T15:31:40Z</time></trkpt><trkpt lat="45.54758241323616" lon="10.42389460103796"><ele>193.66666666666669</ele><time>2026-04-21T15:31:41Z</time></trkpt><trkpt lat="45.5475237028766" lon="10.42404312437723"><ele>193.83333333333334</ele><time>2026-04-21T15:31:43Z</time></trkpt><trkpt lat="45.54748408648695" lon="10.424188729994832"><ele>194.0</ele><time>2026-04-21T15:31:45Z</time></trkpt><trkpt lat="45.54741509557837" lon="10.424300464836705"><ele>194.0</ele><time>2026-04-21T15:31:47Z</time></trkpt><trkpt lat="45.54734999804451" lon="10.424433805397582"><ele>194.0</ele><time>2026-04-21T15:31:49Z</time></trkpt><trkpt lat="45.54728892423351" lon="10.424584379985456"><ele>194.0</ele><time>2026-04-21T15:31:51Z</time></trkpt><trkpt lat="45.54721506858699" lon="10.424727228510202"><ele>194.0</ele><time>2026-04-21T15:31:53Z</time></trkpt><trkpt lat="45.547192739503416" lon="10.42481331252675"><ele>194.0</ele><time>2026-04-21T15:31:54Z</time></trkpt><trkpt lat="45.547173964894064" lon="10.424906626980384"><ele>194.00000000000003</ele><time>2026-04-21T15:31:55Z</time></trkpt><trkpt lat="45.54718385958337" lon="10.425021247915133"><ele>194.0</ele><time>2026-04-21T15:31:56Z</time></trkpt><trkpt lat="45.547235333953495" lon="10.425126977700163"><ele>194.0</ele><time>2026-04-21T15:31:57Z</time></trkpt><trkpt lat="45.547275375907084" lon="10.425226498109065"><ele>194.0</ele><time>2026-04-21T15:31:58Z</time></trkpt><trkpt lat="45.547287312394104" lon="10.425330494561448"><ele>194.00000000000003</ele><time>2026-04-21T15:31:59Z</time></trkpt><trkpt lat="45.547299704025995" lon="10.42543485365621"><ele>194.0</ele><time>2026-04-21T15:32:00Z</time></trkpt><trkpt lat="45.547220648875175" lon="10.425512588475307"><ele>193.50000000000003</ele><time>2026-04-21T15:32:01Z</time></trkpt><trkpt lat="45.547189697154124" lon="10.425607561843847"><ele>193.0</ele><time>2026-04-21T15:32:02Z</time></trkpt><trkpt lat="45.547153154465676" lon="10.42568765838887"><ele>192.5</ele><time>2026-04-21T15:32:03Z</time></trkpt><trkpt lat="45.54711969597903" lon="10.425771109957921"><ele>192.0</ele><time>2026-04-21T15:32:04Z</time></trkpt><trkpt lat="45.547085404217334" lon="10.425849019300871"><ele>191.5</ele><time>2026-04-21T15:32:05Z</time></trkpt><trkpt lat="45.547023706908" lon="10.426005359642092"><ele>191.0</ele><time>2026-04-21T15:32:07Z</time></trkpt><trkpt lat="45.54695747614012" lon="10.426144368726682"><ele>191.0</ele><time>2026-04-21T15:32:09Z</time></trkpt><trkpt lat="45.54690353384008" lon="10.426285406060746"><ele>191.0</ele><time>2026-04-21T15:32:11Z</time></trkpt><trkpt lat="45.546857790661896" lon="10.426426458253042"><ele>191.0</ele><time>2026-04-21T15:32:13Z</time></trkpt><trkpt lat="45.54687104296475" lon="10.426569168229852"><ele>191.0</ele><time>2026-04-21T15:32:15Z</time></trkpt><trkpt lat="45.54688907034963" lon="10.426716932585906"><ele>191.0</ele><time>2026-04-21T15:32:17Z</time></trkpt><trkpt lat="45.5468421351976" lon="10.42683599607534"><ele>191.0</ele><time>2026-04-21T15:32:19Z</time></trkpt><trkpt lat="45.546803263494574" lon="10.426910435425963"><ele>191.0</ele><time>2026-04-21T15:32:21Z</time></trkpt><trkpt lat="45.5468633433824" lon="10.426961104534545"><ele>191.0</ele><time>2026-04-21T15:33:42Z</time></trkpt><trkpt lat="45.54679332698203" lon="10.426913187683759"><ele>191.0</ele><time>2026-04-21T15:34:07Z</time></trkpt><trkpt lat="45.54673940132478" lon="10.426983922796488"><ele>191.0</ele><time>2026-04-21T15:34:09Z</time></trkpt><trkpt lat="45.54668185731246" lon="10.427124462987596"><ele>191.0</ele><time>2026-04-21T15:34:11Z</time></trkpt><trkpt lat="45.546632491525884" lon="10.427256874536337"><ele>191.0</ele><time>2026-04-21T15:34:13Z</time></trkpt><trkpt lat="45.546571381048665" lon="10.427396125099799"><ele>191.0</ele><time>2026-04-21T15:34:15Z</time></trkpt><trkpt lat="45.54648994269261" lon="10.427528522647572"><ele>191.0</ele><time>2026-04-21T15:34:17Z</time></trkpt><trkpt lat="45.54642542956419" lon="10.427675924759956"><ele>191.0</ele><time>2026-04-21T15:34:19Z</time></trkpt><trkpt lat="45.546388324152296" lon="10.42775160334203"><ele>191.0</ele><time>2026-04-21T15:34:20Z</time></trkpt><trkpt lat="45.54635430188655" lon="10.427827710382607"><ele>191.0</ele><time>2026-04-21T15:34:21Z</time></trkpt><trkpt lat="45.546278951807224" lon="10.427964276712597"><ele>191.0</ele><time>2026-04-21T15:34:23Z</time></trkpt><trkpt lat="45.5462166585998" lon="10.428098152876037"><ele>191.0</ele><time>2026-04-21T15:34:25Z</time></trkpt><trkpt lat="45.54616304447607" lon="10.428236722356287"><ele>191.0</ele><time>2026-04-21T15:34:27Z</time></trkpt><trkpt lat="45.54611189485006" lon="10.428356481539472"><ele>191.0</ele><time>2026-04-21T15:34:29Z</time></trkpt><trkpt lat="45.546082990068484" lon="10.428441321803907"><ele>190.60000000000002</ele><time>2026-04-21T15:34:30Z</time></trkpt><trkpt lat="45.5460606021937" lon="10.428536257456338"><ele>190.2</ele><time>2026-04-21T15:34:31Z</time></trkpt><trkpt lat="45.54603450582674" lon="10.428702861709686"><ele>189.8</ele><time>2026-04-21T15:34:33Z</time></trkpt><trkpt lat="45.54597691850067" lon="10.428839685249185"><ele>189.39999999999998</ele><time>2026-04-21T15:34:35Z</time></trkpt><trkpt lat="45.54591356145273" lon="10.42888741322381"><ele>189.0</ele><time>2026-04-21T15:34:37Z</time></trkpt><trkpt lat="45.54580414004397" lon="10.428794308882498"><ele>189.0</ele><time>2026-04-21T15:34:38Z</time></trkpt><trkpt lat="45.54568759694464" lon="10.428779008029693"><ele>189.0</ele><time>2026-04-21T15:34:40Z</time></trkpt><trkpt lat="45.545577793184414" lon="10.428752186626939"><ele>189.0</ele><time>2026-04-21T15:34:42Z</time></trkpt><trkpt lat="45.54547985394374" lon="10.428740299773168"><ele>189.0</ele><time>2026-04-21T15:34:44Z</time></trkpt><trkpt lat="45.54538767481209" lon="10.42879127787829"><ele>189.0</ele><time>2026-04-21T15:34:46Z</time></trkpt><trkpt lat="45.545299725888015" lon="10.42884189601695"><ele>188.79999999999998</ele><time>2026-04-21T15:34:48Z</time></trkpt><trkpt lat="45.54520775328839" lon="10.428894829946433"><ele>188.6</ele><time>2026-04-21T15:34:50Z</time></trkpt><trkpt lat="45.54511891786029" lon="10.428963689529507"><ele>188.4</ele><time>2026-04-21T15:34:52Z</time></trkpt><trkpt lat="45.5450197641637" lon="10.429009694303362"><ele>188.2</ele><time>2026-04-21T15:34:54Z</time></trkpt><trkpt lat="45.544937713894626" lon="10.429109273649518"><ele>188.0</ele><time>2026-04-21T15:34:56Z</time></trkpt><trkpt lat="45.54485273913987" lon="10.429183335843408"><ele>188.0</ele><time>2026-04-21T15:34:58Z</time></trkpt><trkpt lat="45.54478285440765" lon="10.429319688461844"><ele>188.0</ele><time>2026-04-21T15:35:00Z</time></trkpt><trkpt lat="45.544732647471804" lon="10.42947935013419"><ele>188.0</ele><time>2026-04-21T15:35:02Z</time></trkpt><trkpt lat="45.544659390344755" lon="10.429619828515527"><ele>188.0</ele><time>2026-04-21T15:35:04Z</time></trkpt><trkpt lat="45.54457691126174" lon="10.429750732728381"><ele>187.5</ele><time>2026-04-21T15:35:06Z</time></trkpt><trkpt lat="45.54450747240492" lon="10.429894977838387"><ele>187.0</ele><time>2026-04-21T15:35:08Z</time></trkpt><trkpt lat="45.544462420723384" lon="10.42996069141694"><ele>186.5</ele><time>2026-04-21T15:35:09Z</time></trkpt><trkpt lat="45.544404369486756" lon="10.430000796850676"><ele>186.0</ele><time>2026-04-21T15:35:10Z</time></trkpt><trkpt lat="45.54430357880053" lon="10.430099597739169"><ele>185.5</ele><time>2026-04-21T15:35:12Z</time></trkpt><trkpt lat="45.544256712175795" lon="10.430163842522349"><ele>185.0</ele><time>2026-04-21T15:35:13Z</time></trkpt><trkpt lat="45.54420160300476" lon="10.430220282023061"><ele>185.0</ele><time>2026-04-21T15:35:14Z</time></trkpt><trkpt lat="45.544100542975904" lon="10.430322228600444"><ele>185.0</ele><time>2026-04-21T15:35:16Z</time></trkpt><trkpt lat="45.54399605457585" lon="10.430428731299509"><ele>185.0</ele><time>2026-04-21T15:35:18Z</time></trkpt><trkpt lat="45.54395128281097" lon="10.430496287117577"><ele>185.0</ele><time>2026-04-21T15:35:19Z</time></trkpt><trkpt lat="45.543906328771044" lon="10.430563944420028"><ele>185.0</ele><time>2026-04-21T15:35:20Z</time></trkpt><trkpt lat="45.543865959517944" lon="10.430638155279762"><ele>185.0</ele><time>2026-04-21T15:35:21Z</time></trkpt><trkpt lat="45.54381903740428" lon="10.430720413467787"><ele>184.8</ele><time>2026-04-21T15:35:22Z</time></trkpt><trkpt lat="45.5437483450577" lon="10.430878044192621"><ele>184.6</ele><time>2026-04-21T15:35:24Z</time></trkpt><trkpt lat="45.54370337318557" lon="10.43097137466379"><ele>184.39999999999998</ele><time>2026-04-21T15:35:25Z</time></trkpt><trkpt lat="45.543657088505114" lon="10.43107519727483"><ele>184.2</ele><time>2026-04-21T15:35:26Z</time></trkpt><trkpt lat="45.5436144666559" lon="10.431180765097986"><ele>184.0</ele><time>2026-04-21T15:35:27Z</time></trkpt><trkpt lat="45.54357180709062" lon="10.431284594324337"><ele>184.0</ele><time>2026-04-21T15:35:28Z</time></trkpt><trkpt lat="45.543531521915675" lon="10.431382585446952"><ele>184.0</ele><time>2026-04-21T15:35:29Z</time></trkpt><trkpt lat="45.543499858965106" lon="10.431484181981826"><ele>184.0</ele><time>2026-04-21T15:35:30Z</time></trkpt><trkpt lat="45.543469146686355" lon="10.431586017166161"><ele>184.0</ele><time>2026-04-21T15:35:31Z</time></trkpt><trkpt lat="45.543436242155614" lon="10.431676549055505"><ele>184.0</ele><time>2026-04-21T15:35:32Z</time></trkpt><trkpt lat="45.54340128428474" lon="10.431765464118715"><ele>184.0</ele><time>2026-04-21T15:35:33Z</time></trkpt><trkpt lat="45.54336499782467" lon="10.431849327745224"><ele>184.0</ele><time>2026-04-21T15:35:34Z</time></trkpt><trkpt lat="45.543329215259035" lon="10.431934676829695"><ele>184.0</ele><time>2026-04-21T15:35:35Z</time></trkpt><trkpt lat="45.543292778516275" lon="10.432012549083774"><ele>184.0</ele><time>2026-04-21T15:35:36Z</time></trkpt><trkpt lat="45.54325439885319" lon="10.432086187563277"><ele>184.0</ele><time>2026-04-21T15:35:37Z</time></trkpt><trkpt lat="45.54321377059608" lon="10.43215563956025"><ele>184.0</ele><time>2026-04-21T15:35:38Z</time></trkpt><trkpt lat="45.54312329520452" lon="10.432274691296714"><ele>184.0</ele><time>2026-04-21T15:35:40Z</time></trkpt><trkpt lat="45.54308772855176" lon="10.432442320109846"><ele>184.0</ele><time>2026-04-21T15:35:42Z</time></trkpt><trkpt lat="45.54305268495405" lon="10.432584379160177"><ele>184.6</ele><time>2026-04-21T15:35:44Z</time></trkpt><trkpt lat="45.543003087139134" lon="10.432720003885507"><ele>185.2</ele><time>2026-04-21T15:35:46Z</time></trkpt><trkpt lat="45.54298269959392" lon="10.432811492866907"><ele>185.79999999999998</ele><time>2026-04-21T15:35:48Z</time></trkpt><trkpt lat="45.54293477048263" lon="10.432918414671384"><ele>186.39999999999998</ele><time>2026-04-21T15:35:50Z</time></trkpt><trkpt lat="45.54289837747659" lon="10.433047227047926"><ele>187.0</ele><time>2026-04-21T15:35:52Z</time></trkpt><trkpt lat="45.54286691511696" lon="10.433174385069783"><ele>187.0</ele><time>2026-04-21T15:35:54Z</time></trkpt><trkpt lat="45.54285826884358" lon="10.43326824184233"><ele>187.0</ele><time>2026-04-21T15:35:55Z</time></trkpt><trkpt lat="45.54285499231859" lon="10.43340993476749"><ele>187.0</ele><time>2026-04-21T15:35:58Z</time></trkpt><trkpt lat="45.54283039189709" lon="10.43357799371524"><ele>187.0</ele><time>2026-04-21T15:36:00Z</time></trkpt><trkpt lat="45.54285380667772" lon="10.433697677204911"><ele>187.0</ele><time>2026-04-21T15:36:02Z</time></trkpt><trkpt lat="45.54286211737982" lon="10.433829333186864"><ele>186.83333333333334</ele><time>2026-04-21T15:36:04Z</time></trkpt><trkpt lat="45.54286360916941" lon="10.433948053563537"><ele>186.66666666666669</ele><time>2026-04-21T15:36:06Z</time></trkpt><trkpt lat="45.54286878494345" lon="10.434066446609368"><ele>186.5</ele><time>2026-04-21T15:36:08Z</time></trkpt><trkpt lat="45.54287066036051" lon="10.434178454140671"><ele>186.33333333333334</ele><time>2026-04-21T15:36:10Z</time></trkpt><trkpt lat="45.54288941565785" lon="10.434310080833054"><ele>186.16666666666666</ele><time>2026-04-21T15:36:12Z</time></trkpt><trkpt lat="45.542919437465535" lon="10.434436448451164"><ele>186.0</ele><time>2026-04-21T15:36:14Z</time></trkpt><trkpt lat="45.54296631129811" lon="10.434544369266307"><ele>185.66666666666666</ele><time>2026-04-21T15:36:16Z</time></trkpt><trkpt lat="45.542979635365384" lon="10.434658144375211"><ele>185.33333333333334</ele><time>2026-04-21T15:36:18Z</time></trkpt><trkpt lat="45.54300097497296" lon="10.43476715761093"><ele>185.0</ele><time>2026-04-21T15:36:20Z</time></trkpt><trkpt lat="45.543018384746944" lon="10.43486269798597"><ele>184.66666666666669</ele><time>2026-04-21T15:36:22Z</time></trkpt><trkpt lat="45.54303707765281" lon="10.43496535165001"><ele>184.33333333333334</ele><time>2026-04-21T15:36:24Z</time></trkpt><trkpt lat="45.543055345725485" lon="10.435066382282567"><ele>184.0</ele><time>2026-04-21T15:36:26Z</time></trkpt><trkpt lat="45.54307713575158" lon="10.435189101895519"><ele>184.0</ele><time>2026-04-21T15:36:28Z</time></trkpt><trkpt lat="45.543096425008414" lon="10.435332922347696"><ele>184.0</ele><time>2026-04-21T15:36:30Z</time></trkpt><trkpt lat="45.543099412234625" lon="10.435431557702232"><ele>184.0</ele><time>2026-04-21T15:36:34Z</time></trkpt><trkpt lat="45.543090360233684" lon="10.435543909887873"><ele>184.0</ele><time>2026-04-21T15:36:39Z</time></trkpt><trkpt lat="45.542878229310354" lon="10.435610580981665"><ele>183.0</ele><time>2026-04-21T15:36:40Z</time></trkpt><trkpt lat="45.542805237216406" lon="10.435670517038076"><ele>182.0</ele><time>2026-04-21T15:36:42Z</time></trkpt><trkpt lat="45.54271172463188" lon="10.435657682782425"><ele>181.0</ele><time>2026-04-21T15:36:45Z</time></trkpt><trkpt lat="45.54259307994565" lon="10.435688781204124"><ele>180.0</ele><time>2026-04-21T15:36:47Z</time></trkpt><trkpt lat="45.5425200127849" lon="10.435698857484867"><ele>179.0</ele><time>2026-04-21T15:36:48Z</time></trkpt><trkpt lat="45.542451835200175" lon="10.435730537939543"><ele>178.0</ele><time>2026-04-21T15:36:50Z</time></trkpt><trkpt lat="45.54236757880774" lon="10.435754393666294"><ele>178.0</ele><time>2026-04-21T15:36:52Z</time></trkpt><trkpt lat="45.54229737966001" lon="10.435781901246918"><ele>178.0</ele><time>2026-04-21T15:36:56Z</time></trkpt><trkpt lat="45.54223199521101" lon="10.435776167831861"><ele>178.0</ele><time>2026-04-21T15:36:58Z</time></trkpt><trkpt lat="45.5421472268866" lon="10.435799686249348"><ele>178.0</ele><time>2026-04-21T15:37:00Z</time></trkpt><trkpt lat="45.54205342193068" lon="10.435804503945706"><ele>178.0</ele><time>2026-04-21T15:37:02Z</time></trkpt><trkpt lat="45.54198243692579" lon="10.435819571461181"><ele>178.0</ele><time>2026-04-21T15:37:04Z</time></trkpt><trkpt lat="45.54188481066508" lon="10.435824711218388"><ele>177.8</ele><time>2026-04-21T15:37:06Z</time></trkpt><trkpt lat="45.54178497970465" lon="10.435829908411698"><ele>177.60000000000002</ele><time>2026-04-21T15:37:08Z</time></trkpt><trkpt lat="45.54167422148416" lon="10.435826530017748"><ele>177.39999999999998</ele><time>2026-04-21T15:37:10Z</time></trkpt><trkpt lat="45.541552953105935" lon="10.435819142294632"><ele>177.2</ele><time>2026-04-21T15:37:12Z</time></trkpt><trkpt lat="45.541443094255015" lon="10.435818356806838"><ele>177.0</ele><time>2026-04-21T15:37:14Z</time></trkpt><trkpt lat="45.54134245250312" lon="10.435799666130833"><ele>177.0</ele><time>2026-04-21T15:37:16Z</time></trkpt><trkpt lat="45.541247151730865" lon="10.43578952539301"><ele>177.0</ele><time>2026-04-21T15:37:18Z</time></trkpt><trkpt lat="45.54117162412656" lon="10.435793371292972"><ele>177.0</ele><time>2026-04-21T15:37:20Z</time></trkpt><trkpt lat="45.54108454181695" lon="10.435884844187395"><ele>177.0</ele><time>2026-04-21T15:37:23Z</time></trkpt><trkpt lat="45.54103069192523" lon="10.435965779927312"><ele>177.0</ele><time>2026-04-21T15:37:25Z</time></trkpt><trkpt lat="45.5410268714381" lon="10.43605768843495"><ele>177.0</ele><time>2026-04-21T15:37:27Z</time></trkpt><trkpt lat="45.5409348209216" lon="10.436068149512275"><ele>176.8</ele><time>2026-04-21T15:37:30Z</time></trkpt><trkpt lat="45.54085239862014" lon="10.436073738330434"><ele>176.6</ele><time>2026-04-21T15:37:32Z</time></trkpt><trkpt lat="45.540761068291076" lon="10.43606541486041"><ele>176.4</ele><time>2026-04-21T15:37:34Z</time></trkpt><trkpt lat="45.54066063403935" lon="10.436080717729306"><ele>176.20000000000002</ele><time>2026-04-21T15:37:36Z</time></trkpt><trkpt lat="45.54056145155493" lon="10.436120283336923"><ele>176.0</ele><time>2026-04-21T15:37:38Z</time></trkpt><trkpt lat="45.54046892832382" lon="10.436133503902763"><ele>176.4</ele><time>2026-04-21T15:37:40Z</time></trkpt><trkpt lat="45.540358955306345" lon="10.436157255794434"><ele>176.8</ele><time>2026-04-21T15:37:42Z</time></trkpt><trkpt lat="45.54024614452366" lon="10.436198599907609"><ele>177.20000000000002</ele><time>2026-04-21T15:37:44Z</time></trkpt><trkpt lat="45.54013591359402" lon="10.436207850995952"><ele>177.60000000000002</ele><time>2026-04-21T15:37:46Z</time></trkpt><trkpt lat="45.54003749706811" lon="10.436251425823851"><ele>178.0</ele><time>2026-04-21T15:37:48Z</time></trkpt><trkpt lat="45.53993420314672" lon="10.436284516265658"><ele>177.2</ele><time>2026-04-21T15:37:50Z</time></trkpt><trkpt lat="45.5398165796995" lon="10.436312427360164"><ele>176.4</ele><time>2026-04-21T15:37:52Z</time></trkpt><trkpt lat="45.53973906377182" lon="10.436318995168063"><ele>175.6</ele><time>2026-04-21T15:37:53Z</time></trkpt><trkpt lat="45.53964315066912" lon="10.436347715688711"><ele>174.79999999999998</ele><time>2026-04-21T15:37:55Z</time></trkpt><trkpt lat="45.539518405428204" lon="10.436436973218408"><ele>174.0</ele><time>2026-04-21T15:37:57Z</time></trkpt><trkpt lat="45.53945521576927" lon="10.43645406672176"><ele>174.0</ele><time>2026-04-21T15:37:58Z</time></trkpt><trkpt lat="45.53935552302533" lon="10.43649541364502"><ele>174.0</ele><time>2026-04-21T15:38:00Z</time></trkpt><trkpt lat="45.53924878957285" lon="10.436536366995599"><ele>174.0</ele><time>2026-04-21T15:38:02Z</time></trkpt><trkpt lat="45.539155247891465" lon="10.43659197030028"><ele>174.0</ele><time>2026-04-21T15:38:04Z</time></trkpt><trkpt lat="45.539079606405465" lon="10.436641496850976"><ele>174.0</ele><time>2026-04-21T15:38:06Z</time></trkpt><trkpt lat="45.538996532459166" lon="10.436694663465719"><ele>174.0</ele><time>2026-04-21T15:38:08Z</time></trkpt><trkpt lat="45.538920424325944" lon="10.436766605844749"><ele>174.0</ele><time>2026-04-21T15:38:10Z</time></trkpt><trkpt lat="45.53883406115061" lon="10.436840877516325"><ele>174.0</ele><time>2026-04-21T15:38:12Z</time></trkpt><trkpt lat="45.538750221647526" lon="10.436899400756111"><ele>174.0</ele><time>2026-04-21T15:38:14Z</time></trkpt><trkpt lat="45.5386685408683" lon="10.436935526961692"><ele>174.0</ele><time>2026-04-21T15:38:16Z</time></trkpt><trkpt lat="45.538562266237484" lon="10.43693828354393"><ele>174.16666666666666</ele><time>2026-04-21T15:38:18Z</time></trkpt><trkpt lat="45.53846988869841" lon="10.436926494190958"><ele>174.33333333333334</ele><time>2026-04-21T15:38:20Z</time></trkpt><trkpt lat="45.538383690748994" lon="10.436913601267223"><ele>174.5</ele><time>2026-04-21T15:38:22Z</time></trkpt><trkpt lat="45.538310383624356" lon="10.436914993171117"><ele>174.66666666666669</ele><time>2026-04-21T15:38:50Z</time></trkpt><trkpt lat="45.53822474808075" lon="10.436927750020605"><ele>174.83333333333334</ele><time>2026-04-21T15:38:57Z</time></trkpt><trkpt lat="45.53816065381626" lon="10.436916535098876"><ele>175.0</ele><time>2026-04-21T15:38:58Z</time></trkpt><trkpt lat="45.53808693894188" lon="10.436902902931324"><ele>175.0</ele><time>2026-04-21T15:39:00Z</time></trkpt><trkpt lat="45.53797971204092" lon="10.436910940102386"><ele>175.0</ele><time>2026-04-21T15:39:02Z</time></trkpt><trkpt lat="45.537880949554015" lon="10.436901885275253"><ele>175.0</ele><time>2026-04-21T15:39:04Z</time></trkpt><trkpt lat="45.53776367996558" lon="10.436886386314734"><ele>175.0</ele><time>2026-04-21T15:39:06Z</time></trkpt><trkpt lat="45.53765782482836" lon="10.436877514028465"><ele>175.0</ele><time>2026-04-21T15:39:08Z</time></trkpt><trkpt lat="45.537583141626016" lon="10.436820820664549"><ele>174.83333333333334</ele><time>2026-04-21T15:39:10Z</time></trkpt><trkpt lat="45.53750698345287" lon="10.436821403294221"><ele>174.66666666666669</ele><time>2026-04-21T15:39:11Z</time></trkpt><trkpt lat="45.53744429462976" lon="10.436810529686484"><ele>174.5</ele><time>2026-04-21T15:39:12Z</time></trkpt><trkpt lat="45.53733792181432" lon="10.436759213981054"><ele>174.33333333333334</ele><time>2026-04-21T15:39:14Z</time></trkpt><trkpt lat="45.53724862326509" lon="10.436702262695633"><ele>174.16666666666666</ele><time>2026-04-21T15:39:16Z</time></trkpt><trkpt lat="45.53716049690333" lon="10.436651472278918"><ele>174.0</ele><time>2026-04-21T15:39:18Z</time></trkpt><trkpt lat="45.537077043922686" lon="10.436602702227498"><ele>173.6</ele><time>2026-04-21T15:39:20Z</time></trkpt><trkpt lat="45.53699978666737" lon="10.436553051889375"><ele>173.2</ele><time>2026-04-21T15:39:22Z</time></trkpt><trkpt lat="45.53690252107242" lon="10.436511983887074"><ele>172.79999999999998</ele><time>2026-04-21T15:39:24Z</time></trkpt><trkpt lat="45.53681543901699" lon="10.436469481997992"><ele>172.39999999999998</ele><time>2026-04-21T15:39:26Z</time></trkpt><trkpt lat="45.53673525269485" lon="10.43640882720944"><ele>172.0</ele><time>2026-04-21T15:39:28Z</time></trkpt><trkpt lat="45.53665393527979" lon="10.436368666720766"><ele>172.0</ele><time>2026-04-21T15:39:30Z</time></trkpt><trkpt lat="45.536574310178686" lon="10.436321331812492"><ele>172.0</ele><time>2026-04-21T15:39:32Z</time></trkpt><trkpt lat="45.53648937935682" lon="10.43624375616461"><ele>172.0</ele><time>2026-04-21T15:39:34Z</time></trkpt><trkpt lat="45.5363989968994" lon="10.436160459802608"><ele>172.0</ele><time>2026-04-21T15:39:36Z</time></trkpt><trkpt lat="45.53631696798416" lon="10.436048853892775"><ele>172.0</ele><time>2026-04-21T15:39:38Z</time></trkpt><trkpt lat="45.536231264125846" lon="10.435951401238308"><ele>171.39999999999998</ele><time>2026-04-21T15:39:40Z</time></trkpt><trkpt lat="45.53613861513233" lon="10.435864423453028"><ele>170.79999999999998</ele><time>2026-04-21T15:39:42Z</time></trkpt><trkpt lat="45.53604750435888" lon="10.435764999548264"><ele>170.2</ele><time>2026-04-21T15:39:44Z</time></trkpt><trkpt lat="45.53597676727436" lon="10.435655900620763"><ele>169.6</ele><time>2026-04-21T15:39:46Z</time></trkpt><trkpt lat="45.53592169787773" lon="10.435608282310117"><ele>169.0</ele><time>2026-04-21T15:39:47Z</time></trkpt><trkpt lat="45.535816829887814" lon="10.435526141602601"><ele>169.6</ele><time>2026-04-21T15:39:49Z</time></trkpt><trkpt lat="45.53575521820537" lon="10.4354029798042"><ele>170.2</ele><time>2026-04-21T15:39:51Z</time></trkpt><trkpt lat="45.53568143756927" lon="10.435274671576822"><ele>170.79999999999998</ele><time>2026-04-21T15:39:53Z</time></trkpt><trkpt lat="45.53564471997746" lon="10.435193129422554"><ele>171.39999999999998</ele><time>2026-04-21T15:39:54Z</time></trkpt><trkpt lat="45.53560817472155" lon="10.4351165402751"><ele>172.0</ele><time>2026-04-21T15:39:55Z</time></trkpt><trkpt lat="45.535533803361425" lon="10.43497510741077"><ele>172.0</ele><time>2026-04-21T15:39:57Z</time></trkpt><trkpt lat="45.535448104594224" lon="10.434838882927258"><ele>172.0</ele><time>2026-04-21T15:39:59Z</time></trkpt><trkpt lat="45.535406589899516" lon="10.434766088135433"><ele>172.0</ele><time>2026-04-21T15:40:00Z</time></trkpt><trkpt lat="45.53536763409547" lon="10.434688470392178"><ele>172.0</ele><time>2026-04-21T15:40:01Z</time></trkpt><trkpt lat="45.53529223388565" lon="10.434554566998258"><ele>172.0</ele><time>2026-04-21T15:40:03Z</time></trkpt><trkpt lat="45.53521807316697" lon="10.434483963136582"><ele>171.2</ele><time>2026-04-21T15:40:04Z</time></trkpt><trkpt lat="45.53517636172028" lon="10.434348032237756"><ele>170.39999999999998</ele><time>2026-04-21T15:40:06Z</time></trkpt><trkpt lat="45.535102867921516" lon="10.43422806169537"><ele>169.60000000000002</ele><time>2026-04-21T15:40:08Z</time></trkpt><trkpt lat="45.53503897018479" lon="10.434095273102292"><ele>168.8</ele><time>2026-04-21T15:40:10Z</time></trkpt><trkpt lat="45.53497824052591" lon="10.433991789579403"><ele>168.0</ele><time>2026-04-21T15:40:12Z</time></trkpt><trkpt lat="45.53490061446828" lon="10.433919413519439"><ele>168.0</ele><time>2026-04-21T15:40:14Z</time></trkpt><trkpt lat="45.53482312409591" lon="10.433834680165134"><ele>168.0</ele><time>2026-04-21T15:40:16Z</time></trkpt><trkpt lat="45.5347534264881" lon="10.43371582864759"><ele>168.0</ele><time>2026-04-21T15:40:18Z</time></trkpt><trkpt lat="45.53468648177651" lon="10.433628625403818"><ele>168.0</ele><time>2026-04-21T15:40:20Z</time></trkpt><trkpt lat="45.534624109049375" lon="10.433519811316344"><ele>168.0</ele><time>2026-04-21T15:40:22Z</time></trkpt><trkpt lat="45.53453537450003" lon="10.433492520401096"><ele>168.2</ele><time>2026-04-21T15:40:24Z</time></trkpt><trkpt lat="45.53447320971532" lon="10.433468992439614"><ele>168.4</ele><time>2026-04-21T15:40:26Z</time></trkpt><trkpt lat="45.534384889018305" lon="10.433411448326725"><ele>168.6</ele><time>2026-04-21T15:40:28Z</time></trkpt><trkpt lat="45.53428005180376" lon="10.433365457786655"><ele>168.79999999999998</ele><time>2026-04-21T15:40:30Z</time></trkpt><trkpt lat="45.53417435357864" lon="10.433349214094706"><ele>169.0</ele><time>2026-04-21T15:40:32Z</time></trkpt><trkpt lat="45.534069212788175" lon="10.43329856660347"><ele>169.0</ele><time>2026-04-21T15:40:34Z</time></trkpt><trkpt lat="45.53401920502647" lon="10.433242043245736"><ele>169.0</ele><time>2026-04-21T15:40:35Z</time></trkpt><trkpt lat="45.53394264644041" lon="10.433120546412288"><ele>169.0</ele><time>2026-04-21T15:40:37Z</time></trkpt><trkpt lat="45.533830782614714" lon="10.432999909329421"><ele>169.0</ele><time>2026-04-21T15:40:39Z</time></trkpt><trkpt lat="45.5337828262875" lon="10.43286774302404"><ele>169.0</ele><time>2026-04-21T15:40:41Z</time></trkpt><trkpt lat="45.53370999342811" lon="10.432720012853341"><ele>169.0</ele><time>2026-04-21T15:40:43Z</time></trkpt><trkpt lat="45.53364698563034" lon="10.43259592387423"><ele>169.0</ele><time>2026-04-21T15:40:45Z</time></trkpt><trkpt lat="45.53353682474329" lon="10.432481952119787"><ele>169.0</ele><time>2026-04-21T15:40:47Z</time></trkpt><trkpt lat="45.53346888191892" lon="10.432360613700359"><ele>169.0</ele><time>2026-04-21T15:40:49Z</time></trkpt><trkpt lat="45.53340391996991" lon="10.432207535566492"><ele>169.39999999999998</ele><time>2026-04-21T15:40:51Z</time></trkpt><trkpt lat="45.53333943318872" lon="10.432065120462731"><ele>169.8</ele><time>2026-04-21T15:40:53Z</time></trkpt><trkpt lat="45.53326932277186" lon="10.431942605412493"><ele>170.2</ele><time>2026-04-21T15:40:55Z</time></trkpt><trkpt lat="45.53325300150239" lon="10.431815451571799"><ele>170.60000000000002</ele><time>2026-04-21T15:40:57Z</time></trkpt><trkpt lat="45.53329324599583" lon="10.431744472330276"><ele>171.0</ele><time>2026-04-21T15:41:01Z</time></trkpt><trkpt lat="45.533233277290165" lon="10.43169680252775"><ele>171.0</ele><time>2026-04-21T15:41:06Z</time></trkpt><trkpt lat="45.533225335441514" lon="10.43157440451341"><ele>171.0</ele><time>2026-04-21T15:41:10Z</time></trkpt><trkpt lat="45.53326633717594" lon="10.431448028094936"><ele>171.0</ele><time>2026-04-21T15:41:12Z</time></trkpt><trkpt lat="45.53345314249023" lon="10.431180329854154"><ele>171.0</ele><time>2026-04-21T15:41:14Z</time></trkpt><trkpt lat="45.53346434157843" lon="10.431067918644066"><ele>171.33333333333334</ele><time>2026-04-21T15:41:17Z</time></trkpt><trkpt lat="45.53348472685937" lon="10.430941067155796"><ele>171.66666666666666</ele><time>2026-04-21T15:41:20Z</time></trkpt><trkpt lat="45.53354240653829" lon="10.430854581124626"><ele>172.0</ele><time>2026-04-21T15:41:23Z</time></trkpt><trkpt lat="45.53358107582656" lon="10.430750069640155"><ele>172.33333333333331</ele><time>2026-04-21T15:41:26Z</time></trkpt><trkpt lat="45.533624864488516" lon="10.430682062661207"><ele>172.66666666666666</ele><time>2026-04-21T15:41:28Z</time></trkpt><trkpt lat="45.53368601707064" lon="10.430586582263938"><ele>173.0</ele><time>2026-04-21T15:41:31Z</time></trkpt><trkpt lat="45.533738152858945" lon="10.430525212722863"><ele>173.33333333333331</ele><time>2026-04-21T15:41:33Z</time></trkpt><trkpt lat="45.533796261930235" lon="10.430454390610121"><ele>173.66666666666666</ele><time>2026-04-21T15:41:35Z</time></trkpt><trkpt lat="45.53385876208971" lon="10.430383138395158"><ele>174.0</ele><time>2026-04-21T15:41:37Z</time></trkpt><trkpt lat="45.53393902640573" lon="10.430282233515278"><ele>174.33333333333334</ele><time>2026-04-21T15:41:39Z</time></trkpt><trkpt lat="45.533997469945284" lon="10.4302095451952"><ele>174.66666666666669</ele><time>2026-04-21T15:41:41Z</time></trkpt><trkpt lat="45.53405815914835" lon="10.430145106524302"><ele>175.0</ele><time>2026-04-21T15:41:43Z</time></trkpt><trkpt lat="45.53411882411942" lon="10.430086604232303"><ele>175.0</ele><time>2026-04-21T15:41:45Z</time></trkpt><trkpt lat="45.53419195074218" lon="10.430088344112992"><ele>175.0</ele><time>2026-04-21T15:41:47Z</time></trkpt><trkpt lat="45.53424003546902" lon="10.430178842004176"><ele>175.0</ele><time>2026-04-21T15:41:49Z</time></trkpt><trkpt lat="45.53428034701236" lon="10.430266073654678"><ele>175.0</ele><time>2026-04-21T15:41:51Z</time></trkpt><trkpt lat="45.53432714992838" lon="10.43035290658062"><ele>175.0</ele><time>2026-04-21T15:41:53Z</time></trkpt><trkpt lat="45.53439278818609" lon="10.430426499676756"><ele>175.0</ele><time>2026-04-21T15:41:55Z</time></trkpt><trkpt lat="45.53445245322386" lon="10.430478329662062"><ele>175.0</ele><time>2026-04-21T15:41:57Z</time></trkpt><trkpt lat="45.53453421755604" lon="10.430511185584495"><ele>175.0</ele><time>2026-04-21T15:41:59Z</time></trkpt><trkpt lat="45.53461596079922" lon="10.430546389576799"><ele>175.0</ele><time>2026-04-21T15:42:01Z</time></trkpt><trkpt lat="45.53469390002735" lon="10.430570902781593"><ele>175.0</ele><time>2026-04-21T15:42:03Z</time></trkpt><trkpt lat="45.53477739078862" lon="10.430616267504139"><ele>175.0</ele><time>2026-04-21T15:42:05Z</time></trkpt><trkpt lat="45.534849542142176" lon="10.430685160140603"><ele>175.0</ele><time>2026-04-21T15:42:07Z</time></trkpt><trkpt lat="45.53491219457146" lon="10.430762773581149"><ele>175.0</ele><time>2026-04-21T15:42:09Z</time></trkpt><trkpt lat="45.53497313965382" lon="10.430813218738827"><ele>175.0</ele><time>2026-04-21T15:42:11Z</time></trkpt><trkpt lat="45.53503699148262" lon="10.430894969744735"><ele>175.0</ele><time>2026-04-21T15:42:13Z</time></trkpt><trkpt lat="45.5351091989129" lon="10.43097326096656"><ele>175.0</ele><time>2026-04-21T15:42:15Z</time></trkpt><trkpt lat="45.53517694665175" lon="10.431057382932696"><ele>175.0</ele><time>2026-04-21T15:42:17Z</time></trkpt><trkpt lat="45.53524363185501" lon="10.43113656799458"><ele>175.0</ele><time>2026-04-21T15:42:19Z</time></trkpt><trkpt lat="45.53531281304288" lon="10.43120425966512"><ele>175.0</ele><time>2026-04-21T15:42:21Z</time></trkpt><trkpt lat="45.535378939992256" lon="10.431286846915828"><ele>175.0</ele><time>2026-04-21T15:42:23Z</time></trkpt><trkpt lat="45.535449488003664" lon="10.431355585634337"><ele>175.0</ele><time>2026-04-21T15:42:25Z</time></trkpt><trkpt lat="45.53552607250706" lon="10.431432279538136"><ele>175.0</ele><time>2026-04-21T15:42:27Z</time></trkpt><trkpt lat="45.53559669878562" lon="10.431508637262592"><ele>175.0</ele><time>2026-04-21T15:42:29Z</time></trkpt><trkpt lat="45.53566309913452" lon="10.431577490617366"><ele>175.0</ele><time>2026-04-21T15:42:31Z</time></trkpt><trkpt lat="45.535733648837585" lon="10.431634953625855"><ele>175.2</ele><time>2026-04-21T15:42:33Z</time></trkpt><trkpt lat="45.53581741434995" lon="10.431693694380757"><ele>175.4</ele><time>2026-04-21T15:42:35Z</time></trkpt><trkpt lat="45.53590907001264" lon="10.431730387250468"><ele>175.60000000000002</ele><time>2026-04-21T15:42:37Z</time></trkpt><trkpt lat="45.5359898110052" lon="10.431782102413825"><ele>175.8</ele><time>2026-04-21T15:42:39Z</time></trkpt><trkpt lat="45.53607918065693" lon="10.431817321302153"><ele>176.0</ele><time>2026-04-21T15:42:41Z</time></trkpt><trkpt lat="45.53616811093129" lon="10.43184996401646"><ele>176.0</ele><time>2026-04-21T15:42:43Z</time></trkpt><trkpt lat="45.53625361160196" lon="10.431895035757238"><ele>176.0</ele><time>2026-04-21T15:42:45Z</time></trkpt><trkpt lat="45.53633274148244" lon="10.431929825673125"><ele>176.0</ele><time>2026-04-21T15:42:47Z</time></trkpt><trkpt lat="45.536415775538174" lon="10.431947222802636"><ele>176.0</ele><time>2026-04-21T15:42:49Z</time></trkpt><trkpt lat="45.536471415873955" lon="10.432012580480286"><ele>176.0</ele><time>2026-04-21T15:42:51Z</time></trkpt><trkpt lat="45.53653997169465" lon="10.431884590269943"><ele>176.0</ele><time>2026-04-21T15:42:52Z</time></trkpt><trkpt lat="45.536614619004354" lon="10.43181958132792"><ele>176.0</ele><time>2026-04-21T15:42:54Z</time></trkpt><trkpt lat="45.5366876940132" lon="10.431736794435322"><ele>176.0</ele><time>2026-04-21T15:42:56Z</time></trkpt><trkpt lat="45.536773770927816" lon="10.4316591833434"><ele>176.0</ele><time>2026-04-21T15:42:58Z</time></trkpt><trkpt lat="45.53685226180523" lon="10.431575976922218"><ele>176.0</ele><time>2026-04-21T15:43:00Z</time></trkpt><trkpt lat="45.53693327351758" lon="10.43149254544204"><ele>176.0</ele><time>2026-04-21T15:43:02Z</time></trkpt><trkpt lat="45.53700464094015" lon="10.431397793472783"><ele>176.66666666666666</ele><time>2026-04-21T15:43:04Z</time></trkpt><trkpt lat="45.537075760547225" lon="10.431309900491868"><ele>177.33333333333331</ele><time>2026-04-21T15:43:06Z</time></trkpt><trkpt lat="45.53714391019015" lon="10.431219227814537"><ele>178.0</ele><time>2026-04-21T15:43:08Z</time></trkpt><trkpt lat="45.53720950690896" lon="10.431146583491024"><ele>178.66666666666666</ele><time>2026-04-21T15:43:10Z</time></trkpt><trkpt lat="45.53727032145323" lon="10.431063852931652"><ele>179.33333333333334</ele><time>2026-04-21T15:43:12Z</time></trkpt><trkpt lat="45.53732985452988" lon="10.430980600292353"><ele>180.0</ele><time>2026-04-21T15:43:14Z</time></trkpt><trkpt lat="45.5373863419823" lon="10.430905998330093"><ele>180.0</ele><time>2026-04-21T15:43:16Z</time></trkpt><trkpt lat="45.537440348351815" lon="10.430813425405862"><ele>180.0</ele><time>2026-04-21T15:43:18Z</time></trkpt><trkpt lat="45.537493120848936" lon="10.430724661349295"><ele>180.0</ele><time>2026-04-21T15:43:20Z</time></trkpt><trkpt lat="45.537567639434414" lon="10.43064872644488"><ele>180.0</ele><time>2026-04-21T15:43:22Z</time></trkpt><trkpt lat="45.537633364491654" lon="10.4305518394092"><ele>180.0</ele><time>2026-04-21T15:43:24Z</time></trkpt><trkpt lat="45.53770122996669" lon="10.43045179712519"><ele>180.0</ele><time>2026-04-21T15:43:26Z</time></trkpt><trkpt lat="45.53775813426343" lon="10.430335560880998"><ele>180.0</ele><time>2026-04-21T15:43:28Z</time></trkpt><trkpt lat="45.537828964001825" lon="10.43023625356682"><ele>180.0</ele><time>2026-04-21T15:43:30Z</time></trkpt><trkpt lat="45.53790217373109" lon="10.430132965777963"><ele>180.0</ele><time>2026-04-21T15:43:32Z</time></trkpt><trkpt lat="45.53797537244938" lon="10.430024775372255"><ele>180.0</ele><time>2026-04-21T15:43:34Z</time></trkpt><trkpt lat="45.538043419318505" lon="10.429912216095103"><ele>180.0</ele><time>2026-04-21T15:43:36Z</time></trkpt><trkpt lat="45.53811348980665" lon="10.429798872466105"><ele>180.0</ele><time>2026-04-21T15:43:38Z</time></trkpt><trkpt lat="45.53818620400107" lon="10.429682115946532"><ele>180.0</ele><time>2026-04-21T15:43:40Z</time></trkpt><trkpt lat="45.53826353226469" lon="10.429562809489019"><ele>180.0</ele><time>2026-04-21T15:43:42Z</time></trkpt><trkpt lat="45.53833080646889" lon="10.429439733043361"><ele>180.0</ele><time>2026-04-21T15:43:44Z</time></trkpt><trkpt lat="45.53837455178926" lon="10.42936978695235"><ele>180.0</ele><time>2026-04-21T15:43:45Z</time></trkpt><trkpt lat="45.53844922567898" lon="10.429253639717768"><ele>180.0</ele><time>2026-04-21T15:43:47Z</time></trkpt><trkpt lat="45.53851386518235" lon="10.42913965140844"><ele>180.0</ele><time>2026-04-21T15:43:49Z</time></trkpt><trkpt lat="45.538580390722984" lon="10.429038193103244"><ele>180.0</ele><time>2026-04-21T15:43:51Z</time></trkpt><trkpt lat="45.53864785098858" lon="10.42894790336927"><ele>180.0</ele><time>2026-04-21T15:43:53Z</time></trkpt><trkpt lat="45.53872317644907" lon="10.428884228241547"><ele>180.0</ele><time>2026-04-21T15:43:55Z</time></trkpt><trkpt lat="45.53879479844116" lon="10.428816489114269"><ele>180.16666666666666</ele><time>2026-04-21T15:43:57Z</time></trkpt><trkpt lat="45.53887071519215" lon="10.428774289500012"><ele>180.33333333333334</ele><time>2026-04-21T15:43:59Z</time></trkpt><trkpt lat="45.538961625768046" lon="10.428821058681391"><ele>180.5</ele><time>2026-04-21T15:44:02Z</time></trkpt><trkpt lat="45.53905207753226" lon="10.428869808615781"><ele>180.66666666666669</ele><time>2026-04-21T15:44:04Z</time></trkpt><trkpt lat="45.53913634810588" lon="10.428894398086493"><ele>180.83333333333334</ele><time>2026-04-21T15:44:06Z</time></trkpt><trkpt lat="45.539212743277645" lon="10.428862297181096"><ele>181.0</ele><time>2026-04-21T15:44:08Z</time></trkpt><trkpt lat="45.539225450070276" lon="10.428738317829485"><ele>181.0</ele><time>2026-04-21T15:44:10Z</time></trkpt><trkpt lat="45.539270248874104" lon="10.428641524758023"><ele>181.0</ele><time>2026-04-21T15:44:12Z</time></trkpt><trkpt lat="45.539301160582056" lon="10.428527244409084"><ele>181.0</ele><time>2026-04-21T15:44:14Z</time></trkpt><trkpt lat="45.53933590527644" lon="10.428396067851299"><ele>181.0</ele><time>2026-04-21T15:44:16Z</time></trkpt><trkpt lat="45.5393633444878" lon="10.42826757896565"><ele>181.0</ele><time>2026-04-21T15:44:18Z</time></trkpt><trkpt lat="45.53942190314976" lon="10.42817792783864"><ele>181.0</ele><time>2026-04-21T15:44:20Z</time></trkpt><trkpt lat="45.53950543821865" lon="10.428130067105597"><ele>181.33333333333334</ele><time>2026-04-21T15:44:22Z</time></trkpt><trkpt lat="45.539589874929796" lon="10.428109449272307"><ele>181.66666666666669</ele><time>2026-04-21T15:44:24Z</time></trkpt><trkpt lat="45.53967021691393" lon="10.428092744073874"><ele>182.0</ele><time>2026-04-21T15:44:26Z</time></trkpt><trkpt lat="45.53974786830715" lon="10.428073125810515"><ele>182.33333333333334</ele><time>2026-04-21T15:44:28Z</time></trkpt><trkpt lat="45.539823077890105" lon="10.428053320805311"><ele>182.66666666666666</ele><time>2026-04-21T15:44:30Z</time></trkpt><trkpt lat="45.539899544704284" lon="10.42803887413823"><ele>183.0</ele><time>2026-04-21T15:44:32Z</time></trkpt><trkpt lat="45.53997624220891" lon="10.428026671977495"><ele>183.0</ele><time>2026-04-21T15:44:34Z</time></trkpt><trkpt lat="45.540045952103455" lon="10.428012586756164"><ele>183.0</ele><time>2026-04-21T15:44:36Z</time></trkpt><trkpt lat="45.540131224821856" lon="10.428016329177462"><ele>183.0</ele><time>2026-04-21T15:44:38Z</time></trkpt><trkpt lat="45.54022743661246" lon="10.427986187694945"><ele>183.0</ele><time>2026-04-21T15:44:41Z</time></trkpt><trkpt lat="45.54029889303306" lon="10.42794277055457"><ele>183.0</ele><time>2026-04-21T15:44:43Z</time></trkpt><trkpt lat="45.54036778695881" lon="10.427891425704921"><ele>183.0</ele><time>2026-04-21T15:44:45Z</time></trkpt><trkpt lat="45.54043984464587" lon="10.427827145050129"><ele>183.4</ele><time>2026-04-21T15:44:47Z</time></trkpt><trkpt lat="45.540500248063765" lon="10.427733433696838"><ele>183.8</ele><time>2026-04-21T15:44:49Z</time></trkpt><trkpt lat="45.54054819766979" lon="10.42761344641155"><ele>184.2</ele><time>2026-04-21T15:44:51Z</time></trkpt><trkpt lat="45.54060169303117" lon="10.427501311569614"><ele>184.6</ele><time>2026-04-21T15:44:53Z</time></trkpt><trkpt lat="45.540655128988234" lon="10.427387747817791"><ele>185.0</ele><time>2026-04-21T15:44:55Z</time></trkpt><trkpt lat="45.54071216916247" lon="10.42725163577862"><ele>185.0</ele><time>2026-04-21T15:44:57Z</time></trkpt><trkpt lat="45.540775909126936" lon="10.427131035056894"><ele>185.0</ele><time>2026-04-21T15:44:59Z</time></trkpt><trkpt lat="45.54082265738323" lon="10.427003839494706"><ele>185.0</ele><time>2026-04-21T15:45:01Z</time></trkpt><trkpt lat="45.54089071860707" lon="10.426894724012831"><ele>185.0</ele><time>2026-04-21T15:45:03Z</time></trkpt><trkpt lat="45.540936619265906" lon="10.426829428420941"><ele>185.0</ele><time>2026-04-21T15:45:04Z</time></trkpt><trkpt lat="45.541029765196555" lon="10.426712643484251"><ele>185.0</ele><time>2026-04-21T15:45:06Z</time></trkpt><trkpt lat="45.541086415976565" lon="10.426584671554844"><ele>185.0</ele><time>2026-04-21T15:45:08Z</time></trkpt><trkpt lat="45.54113382861908" lon="10.426497741600665"><ele>185.0</ele><time>2026-04-21T15:45:09Z</time></trkpt><trkpt lat="45.541180289921165" lon="10.426411809078486"><ele>185.0</ele><time>2026-04-21T15:45:10Z</time></trkpt><trkpt lat="45.54122369925249" lon="10.426296441902354"><ele>185.0</ele><time>2026-04-21T15:45:13Z</time></trkpt><trkpt lat="45.54124251914524" lon="10.426201917587347"><ele>185.0</ele><time>2026-04-21T15:45:15Z</time></trkpt><trkpt lat="45.54129235537311" lon="10.426051766346566"><ele>185.0</ele><time>2026-04-21T15:45:17Z</time></trkpt><trkpt lat="45.54134392381807" lon="10.425902545592956"><ele>185.0</ele><time>2026-04-21T15:45:19Z</time></trkpt><trkpt lat="45.54138389859095" lon="10.425826018389413"><ele>185.0</ele><time>2026-04-21T15:45:20Z</time></trkpt><trkpt lat="45.54144143341621" lon="10.42566721696511"><ele>185.0</ele><time>2026-04-21T15:45:22Z</time></trkpt><trkpt lat="45.54147456391093" lon="10.425580265645587"><ele>185.0</ele><time>2026-04-21T15:45:23Z</time></trkpt><trkpt lat="45.54154217809625" lon="10.425414921133632"><ele>185.0</ele><time>2026-04-21T15:45:25Z</time></trkpt><trkpt lat="45.54161356791941" lon="10.425318435175068"><ele>185.0</ele><time>2026-04-21T15:45:27Z</time></trkpt><trkpt lat="45.541691112652614" lon="10.425241182933041"><ele>185.0</ele><time>2026-04-21T15:45:29Z</time></trkpt><trkpt lat="45.54174118517866" lon="10.425306087919472"><ele>185.0</ele><time>2026-04-21T15:45:30Z</time></trkpt><trkpt lat="45.54185066987438" lon="10.425372463666163"><ele>185.0</ele><time>2026-04-21T15:45:32Z</time></trkpt><trkpt lat="45.54190762712594" lon="10.425411398860517"><ele>185.0</ele><time>2026-04-21T15:45:33Z</time></trkpt><trkpt lat="45.541966165222256" lon="10.425455603954369"><ele>185.0</ele><time>2026-04-21T15:45:34Z</time></trkpt><trkpt lat="45.54202751117527" lon="10.425499202799193"><ele>185.0</ele><time>2026-04-21T15:45:35Z</time></trkpt><trkpt lat="45.54208639766259" lon="10.425537256922896"><ele>185.0</ele><time>2026-04-21T15:45:36Z</time></trkpt><trkpt lat="45.54216370925007" lon="10.425573980124536"><ele>185.0</ele><time>2026-04-21T15:45:37Z</time></trkpt><trkpt lat="45.54226899554317" lon="10.425648477255109"><ele>185.0</ele><time>2026-04-21T15:45:39Z</time></trkpt><trkpt lat="45.542374040273714" lon="10.425713645419396"><ele>185.0</ele><time>2026-04-21T15:45:41Z</time></trkpt><trkpt lat="45.54248327965364" lon="10.425741372808183"><ele>185.0</ele><time>2026-04-21T15:45:43Z</time></trkpt><trkpt lat="45.54258591538299" lon="10.425716899828444"><ele>185.0</ele><time>2026-04-21T15:45:45Z</time></trkpt><trkpt lat="45.54267435715311" lon="10.425625608430789"><ele>185.0</ele><time>2026-04-21T15:45:47Z</time></trkpt><trkpt lat="45.542746695494216" lon="10.425473556876218"><ele>185.0</ele><time>2026-04-21T15:45:49Z</time></trkpt><trkpt lat="45.54280560944573" lon="10.425320857254375"><ele>184.85714285714283</ele><time>2026-04-21T15:45:51Z</time></trkpt><trkpt lat="45.54283728409407" lon="10.425240826748313"><ele>184.71428571428572</ele><time>2026-04-21T15:45:52Z</time></trkpt><trkpt lat="45.542867232940715" lon="10.425159360350365"><ele>184.57142857142856</ele><time>2026-04-21T15:45:53Z</time></trkpt><trkpt lat="45.54289439075183" lon="10.42507752842009"><ele>184.42857142857142</ele><time>2026-04-21T15:45:54Z</time></trkpt><trkpt lat="45.54295549968591" lon="10.424920795203906"><ele>184.28571428571428</ele><time>2026-04-21T15:45:56Z</time></trkpt><trkpt lat="45.54298628986711" lon="10.424837225760504"><ele>184.14285714285714</ele><time>2026-04-21T15:45:57Z</time></trkpt><trkpt lat="45.543019853998764" lon="10.42475727843661"><ele>184.0</ele><time>2026-04-21T15:45:58Z</time></trkpt><trkpt lat="45.54305379193716" lon="10.424677292481288"><ele>183.66666666666669</ele><time>2026-04-21T15:45:59Z</time></trkpt><trkpt lat="45.543088627028" lon="10.424596608524004"><ele>183.33333333333334</ele><time>2026-04-21T15:46:00Z</time></trkpt><trkpt lat="45.54317656441922" lon="10.424468360990906"><ele>183.0</ele><time>2026-04-21T15:46:02Z</time></trkpt><trkpt lat="45.543220796998064" lon="10.424399733085714"><ele>182.66666666666666</ele><time>2026-04-21T15:46:03Z</time></trkpt><trkpt lat="45.543293975389844" lon="10.424280664511047"><ele>182.33333333333331</ele><time>2026-04-21T15:46:05Z</time></trkpt><trkpt lat="45.54332930723183" lon="10.424201512136317"><ele>182.0</ele><time>2026-04-21T15:46:15Z</time></trkpt><trkpt lat="45.54338585425902" lon="10.424119922232546"><ele>182.0</ele><time>2026-04-21T15:46:24Z</time></trkpt><trkpt lat="45.54343960363268" lon="10.424031317019178"><ele>182.0</ele><time>2026-04-21T15:46:27Z</time></trkpt><trkpt lat="45.5434947934171" lon="10.42394186842731"><ele>182.0</ele><time>2026-04-21T15:46:30Z</time></trkpt><trkpt lat="45.543548342707446" lon="10.42385585212024"><ele>182.0</ele><time>2026-04-21T15:46:33Z</time></trkpt><trkpt lat="45.54359964268546" lon="10.42377344891243"><ele>182.0</ele><time>2026-04-21T15:46:36Z</time></trkpt><trkpt lat="45.543645934286154" lon="10.423700824873432"><ele>182.0</ele><time>2026-04-21T15:46:39Z</time></trkpt><trkpt lat="45.54369276789007" lon="10.423627267648577"><ele>182.83333333333331</ele><time>2026-04-21T15:46:42Z</time></trkpt><trkpt lat="45.54375344784576" lon="10.423531963217478"><ele>183.66666666666666</ele><time>2026-04-21T15:46:45Z</time></trkpt><trkpt lat="45.54381954906742" lon="10.423427587164767"><ele>184.5</ele><time>2026-04-21T15:46:48Z</time></trkpt><trkpt lat="45.543868514507906" lon="10.42334958886358"><ele>185.33333333333334</ele><time>2026-04-21T15:46:50Z</time></trkpt><trkpt lat="45.54391315765598" lon="10.423278475669067"><ele>186.16666666666669</ele><time>2026-04-21T15:46:52Z</time></trkpt><trkpt lat="45.54395804325555" lon="10.423180856472365"><ele>187.0</ele><time>2026-04-21T15:46:54Z</time></trkpt><trkpt lat="45.5440139007921" lon="10.423117999374162"><ele>187.0</ele><time>2026-04-21T15:46:56Z</time></trkpt><trkpt lat="45.544058692023974" lon="10.423023634269056"><ele>187.0</ele><time>2026-04-21T15:46:58Z</time></trkpt><trkpt lat="45.544129190969386" lon="10.422934998485564"><ele>187.0</ele><time>2026-04-21T15:47:00Z</time></trkpt><trkpt lat="45.54417765307492" lon="10.42282671925109"><ele>187.0</ele><time>2026-04-21T15:47:02Z</time></trkpt><trkpt lat="45.54423714343774" lon="10.422747412564664"><ele>187.0</ele><time>2026-04-21T15:47:04Z</time></trkpt><trkpt lat="45.54428932417638" lon="10.422658719313546"><ele>187.0</ele><time>2026-04-21T15:47:06Z</time></trkpt><trkpt lat="45.54434568911976" lon="10.422577546180642"><ele>187.16666666666669</ele><time>2026-04-21T15:47:08Z</time></trkpt><trkpt lat="45.544409867615876" lon="10.422515105555453"><ele>187.33333333333334</ele><time>2026-04-21T15:47:10Z</time></trkpt><trkpt lat="45.54445832113415" lon="10.422412815251887"><ele>187.5</ele><time>2026-04-21T15:47:12Z</time></trkpt><trkpt lat="45.54451386801427" lon="10.42233152868988"><ele>187.66666666666666</ele><time>2026-04-21T15:47:14Z</time></trkpt><trkpt lat="45.54457839552304" lon="10.422224525693522"><ele>187.83333333333331</ele><time>2026-04-21T15:47:16Z</time></trkpt><trkpt lat="45.54462919442249" lon="10.422142805561434"><ele>188.0</ele><time>2026-04-21T15:47:18Z</time></trkpt><trkpt lat="45.54470360053791" lon="10.422006525822914"><ele>188.60000000000002</ele><time>2026-04-21T15:47:20Z</time></trkpt><trkpt lat="45.54479601726831" lon="10.421909693941997"><ele>189.20000000000002</ele><time>2026-04-21T15:47:22Z</time></trkpt><trkpt lat="45.54485491119497" lon="10.421865044497114"><ele>189.8</ele><time>2026-04-21T15:47:24Z</time></trkpt><trkpt lat="45.54494247982063" lon="10.42176152304142"><ele>190.4</ele><time>2026-04-21T15:47:26Z</time></trkpt><trkpt lat="45.54500661994735" lon="10.42172011411522"><ele>191.0</ele><time>2026-04-21T15:47:27Z</time></trkpt><trkpt lat="45.54511101080426" lon="10.421601792896489"><ele>191.0</ele><time>2026-04-21T15:47:29Z</time></trkpt><trkpt lat="45.545166875031065" lon="10.421539160509438"><ele>191.0</ele><time>2026-04-21T15:47:30Z</time></trkpt><trkpt lat="45.5452209299047" lon="10.421470355578"><ele>191.0</ele><time>2026-04-21T15:47:31Z</time></trkpt><trkpt lat="45.545277556219396" lon="10.421409851874293"><ele>191.0</ele><time>2026-04-21T15:47:32Z</time></trkpt><trkpt lat="45.545331393168816" lon="10.421332163360583"><ele>191.0</ele><time>2026-04-21T15:47:33Z</time></trkpt><trkpt lat="45.54538731953926" lon="10.421264079616824"><ele>191.0</ele><time>2026-04-21T15:47:34Z</time></trkpt><trkpt lat="45.54545020144927" lon="10.421208480140312"><ele>191.0</ele><time>2026-04-21T15:47:35Z</time></trkpt><trkpt lat="45.5455051347092" lon="10.421148246851224"><ele>190.8</ele><time>2026-04-21T15:47:36Z</time></trkpt><trkpt lat="45.545563797367116" lon="10.421100907321799"><ele>190.60000000000002</ele><time>2026-04-21T15:47:37Z</time></trkpt><trkpt lat="45.54562431358572" lon="10.42106909558141"><ele>190.4</ele><time>2026-04-21T15:47:38Z</time></trkpt><trkpt lat="45.5457261815354" lon="10.42096355771518"><ele>190.2</ele><time>2026-04-21T15:47:40Z</time></trkpt><trkpt lat="45.54579390437794" lon="10.420855431428931"><ele>190.0</ele><time>2026-04-21T15:47:42Z</time></trkpt><trkpt lat="45.545807520943505" lon="10.420721017747447"><ele>190.0</ele><time>2026-04-21T15:47:45Z</time></trkpt><trkpt lat="45.54588095438968" lon="10.42060657112165"><ele>190.0</ele><time>2026-04-21T15:47:47Z</time></trkpt><trkpt lat="45.54592314985988" lon="10.420533227435316"><ele>190.0</ele><time>2026-04-21T15:47:48Z</time></trkpt><trkpt lat="45.54600389651144" lon="10.420395931722085"><ele>190.0</ele><time>2026-04-21T15:47:50Z</time></trkpt><trkpt lat="45.54604213232485" lon="10.42031491996081"><ele>190.0</ele><time>2026-04-21T15:47:51Z</time></trkpt><trkpt lat="45.54609227748303" lon="10.420239918103729"><ele>190.0</ele><time>2026-04-21T15:47:52Z</time></trkpt><trkpt lat="45.546144001603764" lon="10.420163893227256"><ele>189.85714285714286</ele><time>2026-04-21T15:47:53Z</time></trkpt><trkpt lat="45.54619271123884" lon="10.420085186878808"><ele>189.71428571428572</ele><time>2026-04-21T15:47:54Z</time></trkpt><trkpt lat="45.54624255028049" lon="10.420003656679972"><ele>189.57142857142856</ele><time>2026-04-21T15:47:55Z</time></trkpt><trkpt lat="45.5462928841522" lon="10.419930368071233"><ele>189.42857142857144</ele><time>2026-04-21T15:47:56Z</time></trkpt><trkpt lat="45.54634818733281" lon="10.419849935544498"><ele>189.28571428571428</ele><time>2026-04-21T15:47:57Z</time></trkpt><trkpt lat="45.54639864087077" lon="10.419768364583923"><ele>189.14285714285714</ele><time>2026-04-21T15:47:58Z</time></trkpt><trkpt lat="45.54644573291327" lon="10.419689161798464"><ele>189.0</ele><time>2026-04-21T15:47:59Z</time></trkpt><trkpt lat="45.54649426073622" lon="10.419615687862333"><ele>189.0</ele><time>2026-04-21T15:48:00Z</time></trkpt><trkpt lat="45.546548057883086" lon="10.419541728483265"><ele>189.0</ele><time>2026-04-21T15:48:01Z</time></trkpt><trkpt lat="45.54659518216727" lon="10.419462379547674"><ele>189.0</ele><time>2026-04-21T15:48:02Z</time></trkpt><trkpt lat="45.5466429909657" lon="10.419389263875937"><ele>189.0</ele><time>2026-04-21T15:48:03Z</time></trkpt><trkpt lat="45.5466899381377" lon="10.41932031870335"><ele>189.0</ele><time>2026-04-21T15:48:04Z</time></trkpt><trkpt lat="45.54673145987399" lon="10.419246242006643"><ele>189.0</ele><time>2026-04-21T15:48:05Z</time></trkpt><trkpt lat="45.54677010334705" lon="10.419171799974533"><ele>189.0</ele><time>2026-04-21T15:48:06Z</time></trkpt><trkpt lat="45.546817134612915" lon="10.419107711235464"><ele>189.0</ele><time>2026-04-21T15:48:07Z</time></trkpt><trkpt lat="45.54690002507908" lon="10.419197515609518"><ele>189.0</ele><time>2026-04-21T15:48:09Z</time></trkpt><trkpt lat="45.54696381637267" lon="10.419333912610075"><ele>189.0</ele><time>2026-04-21T15:48:11Z</time></trkpt><trkpt lat="45.547050481484085" lon="10.419450731895811"><ele>189.0</ele><time>2026-04-21T15:48:13Z</time></trkpt><trkpt lat="45.54710182925787" lon="10.419536115678635"><ele>189.0</ele><time>2026-04-21T15:48:14Z</time></trkpt><trkpt lat="45.54714750461536" lon="10.419611739416084"><ele>189.16666666666666</ele><time>2026-04-21T15:48:15Z</time></trkpt><trkpt lat="45.54719253876339" lon="10.41968098447388"><ele>189.33333333333334</ele><time>2026-04-21T15:48:16Z</time></trkpt><trkpt lat="45.547240684403775" lon="10.419750672424737"><ele>189.5</ele><time>2026-04-21T15:48:17Z</time></trkpt><trkpt lat="45.54728642938245" lon="10.419821837951671"><ele>189.66666666666669</ele><time>2026-04-21T15:48:18Z</time></trkpt><trkpt lat="45.54732798748971" lon="10.419897126787093"><ele>189.83333333333334</ele><time>2026-04-21T15:48:19Z</time></trkpt><trkpt lat="45.547406829900005" lon="10.420026448646476"><ele>190.0</ele><time>2026-04-21T15:48:21Z</time></trkpt><trkpt lat="45.54748739313904" lon="10.420149601510131"><ele>190.0</ele><time>2026-04-21T15:48:23Z</time></trkpt><trkpt lat="45.54755230779531" lon="10.420263483098745"><ele>190.0</ele><time>2026-04-21T15:48:25Z</time></trkpt><trkpt lat="45.54759925889667" lon="10.420342198220265"><ele>190.0</ele><time>2026-04-21T15:48:28Z</time></trkpt><trkpt lat="45.54766607156355" lon="10.42033940906292"><ele>190.0</ele><time>2026-04-21T15:48:33Z</time></trkpt><trkpt lat="45.54774095845669" lon="10.420291565740072"><ele>190.0</ele><time>2026-04-21T15:48:35Z</time></trkpt><trkpt lat="45.54780176959679" lon="10.420226974586827"><ele>190.0</ele><time>2026-04-21T15:48:37Z</time></trkpt><trkpt lat="45.547856060197155" lon="10.420140971647653"><ele>189.83333333333334</ele><time>2026-04-21T15:48:39Z</time></trkpt><trkpt lat="45.547912452344875" lon="10.42005963113252"><ele>189.66666666666669</ele><time>2026-04-21T15:48:41Z</time></trkpt><trkpt lat="45.547987623045465" lon="10.420050387917282"><ele>189.5</ele><time>2026-04-21T15:48:43Z</time></trkpt><trkpt lat="45.54805826048889" lon="10.419968408488096"><ele>189.33333333333334</ele><time>2026-04-21T15:48:46Z</time></trkpt><trkpt lat="45.54812250500647" lon="10.419892115424565"><ele>189.16666666666666</ele><time>2026-04-21T15:48:48Z</time></trkpt><trkpt lat="45.54818186827484" lon="10.419798184984632"><ele>189.0</ele><time>2026-04-21T15:48:50Z</time></trkpt><trkpt lat="45.54823203517615" lon="10.419697778497127"><ele>189.0</ele><time>2026-04-21T15:48:52Z</time></trkpt><trkpt lat="45.548275175064624" lon="10.419581355578565"><ele>189.0</ele><time>2026-04-21T15:48:54Z</time></trkpt><trkpt lat="45.54830749832886" lon="10.419468219446992"><ele>189.0</ele><time>2026-04-21T15:48:56Z</time></trkpt><trkpt lat="45.54835140049828" lon="10.419374690675173"><ele>189.0</ele><time>2026-04-21T15:48:58Z</time></trkpt><trkpt lat="45.548384058327294" lon="10.419270594239029"><ele>189.0</ele><time>2026-04-21T15:49:00Z</time></trkpt><trkpt lat="45.548438206624326" lon="10.41918394024234"><ele>189.0</ele><time>2026-04-21T15:49:02Z</time></trkpt><trkpt lat="45.5484884051198" lon="10.41911108696671"><ele>189.0</ele><time>2026-04-21T15:49:04Z</time></trkpt><trkpt lat="45.54853282932612" lon="10.419025798803448"><ele>189.0</ele><time>2026-04-21T15:49:06Z</time></trkpt><trkpt lat="45.54858069314126" lon="10.41896635021651"><ele>189.0</ele><time>2026-04-21T15:49:09Z</time></trkpt><trkpt lat="45.5486306779698" lon="10.419045035083752"><ele>189.0</ele><time>2026-04-21T15:49:11Z</time></trkpt><trkpt lat="45.54869160335129" lon="10.419115962433564"><ele>189.0</ele><time>2026-04-21T15:49:13Z</time></trkpt><trkpt lat="45.548761915515904" lon="10.41921603264589"><ele>189.0</ele><time>2026-04-21T15:49:15Z</time></trkpt><trkpt lat="45.54883945436277" lon="10.41931919684017"><ele>189.16666666666666</ele><time>2026-04-21T15:49:17Z</time></trkpt><trkpt lat="45.54892383561172" lon="10.419424262323448"><ele>189.33333333333334</ele><time>2026-04-21T15:49:19Z</time></trkpt><trkpt lat="45.548974599913585" lon="10.419492344253936"><ele>189.5</ele><time>2026-04-21T15:49:20Z</time></trkpt><trkpt lat="45.54902572397737" lon="10.419562158117737"><ele>189.66666666666669</ele><time>2026-04-21T15:49:21Z</time></trkpt><trkpt lat="45.54908170996192" lon="10.419645632669306"><ele>189.83333333333334</ele><time>2026-04-21T15:49:22Z</time></trkpt><trkpt lat="45.54912688789665" lon="10.419727821199938"><ele>190.0</ele><time>2026-04-21T15:49:23Z</time></trkpt><trkpt lat="45.549188545009066" lon="10.419804753752"><ele>190.0</ele><time>2026-04-21T15:49:24Z</time></trkpt><trkpt lat="45.549250392097726" lon="10.419892254929064"><ele>190.0</ele><time>2026-04-21T15:49:25Z</time></trkpt><trkpt lat="45.549300364906706" lon="10.419974934907241"><ele>190.0</ele><time>2026-04-21T15:49:26Z</time></trkpt><trkpt lat="45.54935311519189" lon="10.420050239001174"><ele>190.0</ele><time>2026-04-21T15:49:27Z</time></trkpt><trkpt lat="45.54939946158828" lon="10.420117686219596"><ele>190.0</ele><time>2026-04-21T15:49:28Z</time></trkpt><trkpt lat="45.54943275752227" lon="10.420200693587006"><ele>190.0</ele><time>2026-04-21T15:49:29Z</time></trkpt><trkpt lat="45.549515099432234" lon="10.420324359286296"><ele>190.0</ele><time>2026-04-21T15:49:31Z</time></trkpt><trkpt lat="45.5495935620983" lon="10.420440944362584"><ele>190.0</ele><time>2026-04-21T15:49:33Z</time></trkpt><trkpt lat="45.54964734397587" lon="10.420520856392498"><ele>190.0</ele><time>2026-04-21T15:49:35Z</time></trkpt><trkpt lat="45.549745582109026" lon="10.420368282355556"><ele>190.0</ele><time>2026-04-21T15:49:36Z</time></trkpt><trkpt lat="45.549802152968844" lon="10.42025754475852"><ele>190.0</ele><time>2026-04-21T15:49:38Z</time></trkpt><trkpt lat="45.54985895734007" lon="10.420157543677123"><ele>190.0</ele><time>2026-04-21T15:49:40Z</time></trkpt><trkpt lat="45.549924065146556" lon="10.420064174368573"><ele>190.0</ele><time>2026-04-21T15:49:42Z</time></trkpt><trkpt lat="45.54999498350568" lon="10.41998711662227"><ele>190.0</ele><time>2026-04-21T15:49:44Z</time></trkpt><trkpt lat="45.549828281338776" lon="10.419805647211497"><ele>190.0</ele><time>2026-04-21T15:49:50Z</time></trkpt><trkpt lat="45.54973547740399" lon="10.419859908835507"><ele>190.0</ele><time>2026-04-21T15:49:55Z</time></trkpt></trkseg></trk></gpx>